<?xml version="1.0" encoding="UTF-8" standalone="no" ?>
<gpx xmlns="http://www.topografix.com/GPX/1/1" xmlns:xsi="http://www.w3.org/2001/XMLSchema-instance" xsi:schemaLocation="http://www.topografix.com/GPX/1/1 http://www.topografix.com/GPX/1/1/gpx.xsd" version="1.1" creator="VisuGPX - https://www.visugpx.com">
  <metadata>
    <name>fournels / aumont aubrac </name>
    <desc><![CDATA[rando en aubrac ]]></desc>
  </metadata>
  <trk>
    <name><![CDATA[AUMONT AUBRAC]]></name>
    <trkseg>
      <trkpt lat="44.81722" lon="3.12055">
        <ele>935.02</ele>
        <time>2014-07-02T06:26:53Z</time>
      </trkpt>
      <trkpt lat="44.81718" lon="3.1206">
        <ele>934.54</ele>
        <time>2014-07-02T06:26:58Z</time>
      </trkpt>
      <trkpt lat="44.81709" lon="3.12074">
        <ele>934.06</ele>
        <time>2014-07-02T06:27:10Z</time>
      </trkpt>
      <trkpt lat="44.81701" lon="3.1208">
        <ele>934.06</ele>
        <time>2014-07-02T06:27:19Z</time>
      </trkpt>
      <trkpt lat="44.81695" lon="3.12078">
        <ele>937.9</ele>
        <time>2014-07-02T06:27:23Z</time>
      </trkpt>
      <trkpt lat="44.81694" lon="3.12076">
        <ele>938.86</ele>
        <time>2014-07-02T06:27:24Z</time>
      </trkpt>
      <trkpt lat="44.81688" lon="3.12077">
        <ele>943.19</ele>
        <time>2014-07-02T06:27:29Z</time>
      </trkpt>
      <trkpt lat="44.81683" lon="3.12083">
        <ele>946.56</ele>
        <time>2014-07-02T06:27:36Z</time>
      </trkpt>
      <trkpt lat="44.81678" lon="3.12094">
        <ele>949.92</ele>
        <time>2014-07-02T06:27:45Z</time>
      </trkpt>
      <trkpt lat="44.81674" lon="3.12115">
        <ele>952.8</ele>
        <time>2014-07-02T06:28:02Z</time>
      </trkpt>
      <trkpt lat="44.81672" lon="3.1212">
        <ele>953.77</ele>
        <time>2014-07-02T06:28:06Z</time>
      </trkpt>
      <trkpt lat="44.81672" lon="3.12141">
        <ele>954.73</ele>
        <time>2014-07-02T06:28:20Z</time>
      </trkpt>
      <trkpt lat="44.81672" lon="3.12143">
        <ele>954.73</ele>
        <time>2014-07-02T06:28:21Z</time>
      </trkpt>
      <trkpt lat="44.81672" lon="3.1217">
        <ele>955.69</ele>
        <time>2014-07-02T06:28:36Z</time>
      </trkpt>
      <trkpt lat="44.81671" lon="3.1218">
        <ele>956.17</ele>
        <time>2014-07-02T06:28:42Z</time>
      </trkpt>
      <trkpt lat="44.81672" lon="3.12199">
        <ele>956.17</ele>
        <time>2014-07-02T06:28:57Z</time>
      </trkpt>
      <trkpt lat="44.81675" lon="3.12207">
        <ele>956.65</ele>
        <time>2014-07-02T06:29:05Z</time>
      </trkpt>
      <trkpt lat="44.81676" lon="3.12233">
        <ele>956.65</ele>
        <time>2014-07-02T06:29:21Z</time>
      </trkpt>
      <trkpt lat="44.81679" lon="3.12261">
        <ele>956.65</ele>
        <time>2014-07-02T06:29:38Z</time>
      </trkpt>
      <trkpt lat="44.81679" lon="3.12264">
        <ele>956.65</ele>
        <time>2014-07-02T06:29:40Z</time>
      </trkpt>
      <trkpt lat="44.81678" lon="3.12269">
        <ele>956.65</ele>
        <time>2014-07-02T06:29:43Z</time>
      </trkpt>
      <trkpt lat="44.81673" lon="3.12291">
        <ele>956.65</ele>
        <time>2014-07-02T06:29:57Z</time>
      </trkpt>
      <trkpt lat="44.81671" lon="3.12314">
        <ele>958.09</ele>
        <time>2014-07-02T06:30:10Z</time>
      </trkpt>
      <trkpt lat="44.81668" lon="3.12323">
        <ele>958.57</ele>
        <time>2014-07-02T06:30:16Z</time>
      </trkpt>
      <trkpt lat="44.81661" lon="3.12334">
        <ele>960.01</ele>
        <time>2014-07-02T06:30:28Z</time>
      </trkpt>
      <trkpt lat="44.8166" lon="3.12334">
        <ele>960.01</ele>
        <time>2014-07-02T06:30:37Z</time>
      </trkpt>
      <trkpt lat="44.81657" lon="3.12336">
        <ele>960.01</ele>
        <time>2014-07-02T06:30:40Z</time>
      </trkpt>
      <trkpt lat="44.81655" lon="3.12336">
        <ele>960.01</ele>
        <time>2014-07-02T06:30:43Z</time>
      </trkpt>
      <trkpt lat="44.81666" lon="3.12348">
        <ele>960.49</ele>
        <time>2014-07-02T06:30:57Z</time>
      </trkpt>
      <trkpt lat="44.81662" lon="3.12356">
        <ele>961.94</ele>
        <time>2014-07-02T06:31:11Z</time>
      </trkpt>
      <trkpt lat="44.81657" lon="3.12371">
        <ele>963.86</ele>
        <time>2014-07-02T06:31:26Z</time>
      </trkpt>
      <trkpt lat="44.81657" lon="3.12387">
        <ele>965.3</ele>
        <time>2014-07-02T06:31:41Z</time>
      </trkpt>
      <trkpt lat="44.81657" lon="3.12408">
        <ele>967.22</ele>
        <time>2014-07-02T06:31:56Z</time>
      </trkpt>
      <trkpt lat="44.81657" lon="3.12411">
        <ele>967.7</ele>
        <time>2014-07-02T06:31:59Z</time>
      </trkpt>
      <trkpt lat="44.81656" lon="3.1242">
        <ele>968.67</ele>
        <time>2014-07-02T06:32:06Z</time>
      </trkpt>
      <trkpt lat="44.81653" lon="3.12432">
        <ele>970.59</ele>
        <time>2014-07-02T06:32:22Z</time>
      </trkpt>
      <trkpt lat="44.81655" lon="3.12436">
        <ele>970.59</ele>
        <time>2014-07-02T06:32:30Z</time>
      </trkpt>
      <trkpt lat="44.81656" lon="3.12456">
        <ele>973.95</ele>
        <time>2014-07-02T06:32:46Z</time>
      </trkpt>
      <trkpt lat="44.81656" lon="3.12468">
        <ele>975.39</ele>
        <time>2014-07-02T06:32:59Z</time>
      </trkpt>
      <trkpt lat="44.81658" lon="3.12472">
        <ele>975.39</ele>
        <time>2014-07-02T06:33:16Z</time>
      </trkpt>
      <trkpt lat="44.81657" lon="3.12473">
        <ele>975.39</ele>
        <time>2014-07-02T06:33:30Z</time>
      </trkpt>
      <trkpt lat="44.81657" lon="3.12476">
        <ele>975.39</ele>
        <time>2014-07-02T06:33:42Z</time>
      </trkpt>
      <trkpt lat="44.81656" lon="3.12478">
        <ele>975.88</ele>
        <time>2014-07-02T06:33:54Z</time>
      </trkpt>
      <trkpt lat="44.81655" lon="3.12479">
        <ele>975.88</ele>
        <time>2014-07-02T06:34:13Z</time>
      </trkpt>
      <trkpt lat="44.81657" lon="3.12486">
        <ele>976.84</ele>
        <time>2014-07-02T06:34:24Z</time>
      </trkpt>
      <trkpt lat="44.81656" lon="3.12485">
        <ele>976.84</ele>
        <time>2014-07-02T06:34:37Z</time>
      </trkpt>
      <trkpt lat="44.81655" lon="3.12476">
        <ele>975.88</ele>
        <time>2014-07-02T06:34:49Z</time>
      </trkpt>
      <trkpt lat="44.81654" lon="3.12465">
        <ele>973.95</ele>
        <time>2014-07-02T06:35:04Z</time>
      </trkpt>
      <trkpt lat="44.81655" lon="3.12452">
        <ele>971.55</ele>
        <time>2014-07-02T06:35:15Z</time>
      </trkpt>
      <trkpt lat="44.81661" lon="3.12425">
        <ele>969.63</ele>
        <time>2014-07-02T06:35:32Z</time>
      </trkpt>
      <trkpt lat="44.81659" lon="3.12406">
        <ele>966.74</ele>
        <time>2014-07-02T06:35:48Z</time>
      </trkpt>
      <trkpt lat="44.81659" lon="3.1239">
        <ele>964.82</ele>
        <time>2014-07-02T06:36:03Z</time>
      </trkpt>
      <trkpt lat="44.81665" lon="3.1237">
        <ele>962.9</ele>
        <time>2014-07-02T06:36:18Z</time>
      </trkpt>
      <trkpt lat="44.81662" lon="3.12347">
        <ele>960.98</ele>
        <time>2014-07-02T06:36:34Z</time>
      </trkpt>
      <trkpt lat="44.81658" lon="3.12346">
        <ele>961.46</ele>
        <time>2014-07-02T06:36:38Z</time>
      </trkpt>
      <trkpt lat="44.81641" lon="3.1234">
        <ele>960.49</ele>
        <time>2014-07-02T06:36:55Z</time>
      </trkpt>
      <trkpt lat="44.81621" lon="3.12337">
        <ele>960.01</ele>
        <time>2014-07-02T06:37:10Z</time>
      </trkpt>
      <trkpt lat="44.81609" lon="3.12346">
        <ele>960.01</ele>
        <time>2014-07-02T06:37:23Z</time>
      </trkpt>
      <trkpt lat="44.81595" lon="3.12348">
        <ele>961.46</ele>
        <time>2014-07-02T06:37:34Z</time>
      </trkpt>
      <trkpt lat="44.81584" lon="3.12352">
        <ele>961.94</ele>
        <time>2014-07-02T06:37:43Z</time>
      </trkpt>
      <trkpt lat="44.81565" lon="3.12357">
        <ele>962.42</ele>
        <time>2014-07-02T06:37:57Z</time>
      </trkpt>
      <trkpt lat="44.81542" lon="3.12357">
        <ele>962.42</ele>
        <time>2014-07-02T06:38:14Z</time>
      </trkpt>
      <trkpt lat="44.81534" lon="3.12359">
        <ele>962.42</ele>
        <time>2014-07-02T06:38:20Z</time>
      </trkpt>
      <trkpt lat="44.81526" lon="3.12359">
        <ele>962.42</ele>
        <time>2014-07-02T06:38:26Z</time>
      </trkpt>
      <trkpt lat="44.81512" lon="3.12363">
        <ele>962.42</ele>
        <time>2014-07-02T06:38:40Z</time>
      </trkpt>
      <trkpt lat="44.81509" lon="3.12363">
        <ele>962.42</ele>
        <time>2014-07-02T06:38:43Z</time>
      </trkpt>
      <trkpt lat="44.81499" lon="3.12372">
        <ele>962.42</ele>
        <time>2014-07-02T06:38:57Z</time>
      </trkpt>
      <trkpt lat="44.81487" lon="3.12375">
        <ele>962.42</ele>
        <time>2014-07-02T06:39:07Z</time>
      </trkpt>
      <trkpt lat="44.8146" lon="3.1237">
        <ele>962.42</ele>
        <time>2014-07-02T06:39:25Z</time>
      </trkpt>
      <trkpt lat="44.81456" lon="3.12368">
        <ele>962.42</ele>
        <time>2014-07-02T06:39:29Z</time>
      </trkpt>
      <trkpt lat="44.81446" lon="3.12362">
        <ele>962.9</ele>
        <time>2014-07-02T06:39:37Z</time>
      </trkpt>
      <trkpt lat="44.81431" lon="3.12365">
        <ele>963.86</ele>
        <time>2014-07-02T06:39:48Z</time>
      </trkpt>
      <trkpt lat="44.81414" lon="3.12362">
        <ele>964.82</ele>
        <time>2014-07-02T06:40:05Z</time>
      </trkpt>
      <trkpt lat="44.81402" lon="3.12365">
        <ele>965.78</ele>
        <time>2014-07-02T06:40:18Z</time>
      </trkpt>
      <trkpt lat="44.81393" lon="3.12366">
        <ele>966.74</ele>
        <time>2014-07-02T06:40:27Z</time>
      </trkpt>
      <trkpt lat="44.81377" lon="3.12377">
        <ele>968.18</ele>
        <time>2014-07-02T06:40:43Z</time>
      </trkpt>
      <trkpt lat="44.81363" lon="3.12392">
        <ele>969.63</ele>
        <time>2014-07-02T06:40:58Z</time>
      </trkpt>
      <trkpt lat="44.81358" lon="3.12398">
        <ele>970.59</ele>
        <time>2014-07-02T06:41:05Z</time>
      </trkpt>
      <trkpt lat="44.8135" lon="3.12407">
        <ele>971.55</ele>
        <time>2014-07-02T06:41:18Z</time>
      </trkpt>
      <trkpt lat="44.81354" lon="3.12402">
        <ele>971.55</ele>
        <time>2014-07-02T06:41:33Z</time>
      </trkpt>
      <trkpt lat="44.81357" lon="3.124">
        <ele>970.11</ele>
        <time>2014-07-02T06:41:47Z</time>
      </trkpt>
      <trkpt lat="44.81355" lon="3.12401">
        <ele>970.59</ele>
        <time>2014-07-02T06:42:07Z</time>
      </trkpt>
      <trkpt lat="44.81348" lon="3.1241">
        <ele>970.59</ele>
        <time>2014-07-02T06:42:20Z</time>
      </trkpt>
      <trkpt lat="44.81348" lon="3.12412">
        <ele>971.55</ele>
        <time>2014-07-02T06:42:22Z</time>
      </trkpt>
      <trkpt lat="44.8134" lon="3.12418">
        <ele>972.99</ele>
        <time>2014-07-02T06:42:31Z</time>
      </trkpt>
      <trkpt lat="44.81331" lon="3.12428">
        <ele>974.43</ele>
        <time>2014-07-02T06:42:43Z</time>
      </trkpt>
      <trkpt lat="44.81321" lon="3.12436">
        <ele>975.88</ele>
        <time>2014-07-02T06:42:54Z</time>
      </trkpt>
      <trkpt lat="44.81312" lon="3.1245">
        <ele>978.28</ele>
        <time>2014-07-02T06:43:09Z</time>
      </trkpt>
      <trkpt lat="44.81307" lon="3.1246">
        <ele>980.2</ele>
        <time>2014-07-02T06:43:21Z</time>
      </trkpt>
      <trkpt lat="44.81297" lon="3.12472">
        <ele>982.12</ele>
        <time>2014-07-02T06:43:34Z</time>
      </trkpt>
      <trkpt lat="44.81284" lon="3.12481">
        <ele>983.57</ele>
        <time>2014-07-02T06:43:47Z</time>
      </trkpt>
      <trkpt lat="44.81272" lon="3.1249">
        <ele>984.53</ele>
        <time>2014-07-02T06:44:00Z</time>
      </trkpt>
      <trkpt lat="44.81269" lon="3.12494">
        <ele>985.01</ele>
        <time>2014-07-02T06:44:05Z</time>
      </trkpt>
      <trkpt lat="44.81266" lon="3.12495">
        <ele>985.49</ele>
        <time>2014-07-02T06:44:07Z</time>
      </trkpt>
      <trkpt lat="44.81265" lon="3.12497">
        <ele>985.49</ele>
        <time>2014-07-02T06:44:09Z</time>
      </trkpt>
      <trkpt lat="44.81254" lon="3.12504">
        <ele>987.41</ele>
        <time>2014-07-02T06:44:23Z</time>
      </trkpt>
      <trkpt lat="44.8125" lon="3.12508">
        <ele>987.89</ele>
        <time>2014-07-02T06:44:28Z</time>
      </trkpt>
      <trkpt lat="44.8124" lon="3.12519">
        <ele>990.78</ele>
        <time>2014-07-02T06:44:41Z</time>
      </trkpt>
      <trkpt lat="44.81237" lon="3.12522">
        <ele>991.26</ele>
        <time>2014-07-02T06:44:45Z</time>
      </trkpt>
      <trkpt lat="44.81236" lon="3.12523">
        <ele>991.26</ele>
        <time>2014-07-02T06:44:47Z</time>
      </trkpt>
      <trkpt lat="44.81226" lon="3.12531">
        <ele>992.7</ele>
        <time>2014-07-02T06:44:59Z</time>
      </trkpt>
      <trkpt lat="44.81221" lon="3.12534">
        <ele>993.18</ele>
        <time>2014-07-02T06:45:04Z</time>
      </trkpt>
      <trkpt lat="44.81207" lon="3.12542">
        <ele>994.14</ele>
        <time>2014-07-02T06:45:17Z</time>
      </trkpt>
      <trkpt lat="44.81205" lon="3.12544">
        <ele>994.14</ele>
        <time>2014-07-02T06:45:19Z</time>
      </trkpt>
      <trkpt lat="44.81191" lon="3.12554">
        <ele>995.58</ele>
        <time>2014-07-02T06:45:33Z</time>
      </trkpt>
      <trkpt lat="44.81186" lon="3.12558">
        <ele>996.54</ele>
        <time>2014-07-02T06:45:38Z</time>
      </trkpt>
      <trkpt lat="44.81184" lon="3.12559">
        <ele>996.54</ele>
        <time>2014-07-02T06:45:40Z</time>
      </trkpt>
      <trkpt lat="44.81181" lon="3.12562">
        <ele>997.02</ele>
        <time>2014-07-02T06:45:44Z</time>
      </trkpt>
      <trkpt lat="44.81171" lon="3.12569">
        <ele>997.99</ele>
        <time>2014-07-02T06:45:54Z</time>
      </trkpt>
      <trkpt lat="44.81161" lon="3.1258">
        <ele>999.91</ele>
        <time>2014-07-02T06:46:07Z</time>
      </trkpt>
      <trkpt lat="44.81153" lon="3.12589">
        <ele>1001.35</ele>
        <time>2014-07-02T06:46:18Z</time>
      </trkpt>
      <trkpt lat="44.81145" lon="3.12598">
        <ele>1003.75</ele>
        <time>2014-07-02T06:46:31Z</time>
      </trkpt>
      <trkpt lat="44.81137" lon="3.12606">
        <ele>1005.68</ele>
        <time>2014-07-02T06:46:42Z</time>
      </trkpt>
      <trkpt lat="44.81127" lon="3.12612">
        <ele>1007.6</ele>
        <time>2014-07-02T06:46:55Z</time>
      </trkpt>
      <trkpt lat="44.81124" lon="3.12614">
        <ele>1008.08</ele>
        <time>2014-07-02T06:46:58Z</time>
      </trkpt>
      <trkpt lat="44.81119" lon="3.12616">
        <ele>1008.56</ele>
        <time>2014-07-02T06:47:03Z</time>
      </trkpt>
      <trkpt lat="44.8111" lon="3.1262">
        <ele>1009.04</ele>
        <time>2014-07-02T06:47:12Z</time>
      </trkpt>
      <trkpt lat="44.81106" lon="3.1262">
        <ele>1009.04</ele>
        <time>2014-07-02T06:47:15Z</time>
      </trkpt>
      <trkpt lat="44.81097" lon="3.12625">
        <ele>1010</ele>
        <time>2014-07-02T06:47:25Z</time>
      </trkpt>
      <trkpt lat="44.81088" lon="3.12635">
        <ele>1011.44</ele>
        <time>2014-07-02T06:47:38Z</time>
      </trkpt>
      <trkpt lat="44.81084" lon="3.1264">
        <ele>1011.93</ele>
        <time>2014-07-02T06:47:43Z</time>
      </trkpt>
      <trkpt lat="44.81077" lon="3.12649">
        <ele>1013.37</ele>
        <time>2014-07-02T06:47:53Z</time>
      </trkpt>
      <trkpt lat="44.81075" lon="3.12653">
        <ele>1014.33</ele>
        <time>2014-07-02T06:47:57Z</time>
      </trkpt>
      <trkpt lat="44.81066" lon="3.12671">
        <ele>1014.33</ele>
        <time>2014-07-02T06:48:12Z</time>
      </trkpt>
      <trkpt lat="44.8106" lon="3.12688">
        <ele>1015.77</ele>
        <time>2014-07-02T06:48:25Z</time>
      </trkpt>
      <trkpt lat="44.81059" lon="3.12692">
        <ele>1015.77</ele>
        <time>2014-07-02T06:48:28Z</time>
      </trkpt>
      <trkpt lat="44.81055" lon="3.12714">
        <ele>1016.25</ele>
        <time>2014-07-02T06:48:42Z</time>
      </trkpt>
      <trkpt lat="44.8105" lon="3.12739">
        <ele>1017.21</ele>
        <time>2014-07-02T06:48:59Z</time>
      </trkpt>
      <trkpt lat="44.81044" lon="3.12758">
        <ele>1017.69</ele>
        <time>2014-07-02T06:49:13Z</time>
      </trkpt>
      <trkpt lat="44.81037" lon="3.12773">
        <ele>1019.62</ele>
        <time>2014-07-02T06:49:26Z</time>
      </trkpt>
      <trkpt lat="44.81037" lon="3.12775">
        <ele>1019.62</ele>
        <time>2014-07-02T06:49:27Z</time>
      </trkpt>
      <trkpt lat="44.81025" lon="3.12794">
        <ele>1021.06</ele>
        <time>2014-07-02T06:49:44Z</time>
      </trkpt>
      <trkpt lat="44.81014" lon="3.12807">
        <ele>1022.02</ele>
        <time>2014-07-02T06:49:57Z</time>
      </trkpt>
      <trkpt lat="44.81003" lon="3.12818">
        <ele>1023.94</ele>
        <time>2014-07-02T06:50:09Z</time>
      </trkpt>
      <trkpt lat="44.80991" lon="3.12832">
        <ele>1025.86</ele>
        <time>2014-07-02T06:50:25Z</time>
      </trkpt>
      <trkpt lat="44.80979" lon="3.12846">
        <ele>1027.31</ele>
        <time>2014-07-02T06:50:40Z</time>
      </trkpt>
      <trkpt lat="44.80967" lon="3.12862">
        <ele>1029.23</ele>
        <time>2014-07-02T06:50:54Z</time>
      </trkpt>
      <trkpt lat="44.80955" lon="3.12879">
        <ele>1030.67</ele>
        <time>2014-07-02T06:51:09Z</time>
      </trkpt>
      <trkpt lat="44.80954" lon="3.1288">
        <ele>1030.67</ele>
        <time>2014-07-02T06:51:12Z</time>
      </trkpt>
      <trkpt lat="44.80945" lon="3.12897">
        <ele>1032.11</ele>
        <time>2014-07-02T06:51:25Z</time>
      </trkpt>
      <trkpt lat="44.80939" lon="3.12908">
        <ele>1033.07</ele>
        <time>2014-07-02T06:51:34Z</time>
      </trkpt>
      <trkpt lat="44.80936" lon="3.12916">
        <ele>1033.55</ele>
        <time>2014-07-02T06:51:40Z</time>
      </trkpt>
      <trkpt lat="44.80927" lon="3.12933">
        <ele>1035</ele>
        <time>2014-07-02T06:51:57Z</time>
      </trkpt>
      <trkpt lat="44.80918" lon="3.12949">
        <ele>1036.44</ele>
        <time>2014-07-02T06:52:11Z</time>
      </trkpt>
      <trkpt lat="44.80915" lon="3.12958">
        <ele>1036.92</ele>
        <time>2014-07-02T06:52:17Z</time>
      </trkpt>
      <trkpt lat="44.80907" lon="3.12976">
        <ele>1037.88</ele>
        <time>2014-07-02T06:52:32Z</time>
      </trkpt>
      <trkpt lat="44.80895" lon="3.12994">
        <ele>1038.84</ele>
        <time>2014-07-02T06:52:46Z</time>
      </trkpt>
      <trkpt lat="44.80891" lon="3.13001">
        <ele>1037.4</ele>
        <time>2014-07-02T06:52:53Z</time>
      </trkpt>
      <trkpt lat="44.80888" lon="3.13007">
        <ele>1037.4</ele>
        <time>2014-07-02T06:52:57Z</time>
      </trkpt>
      <trkpt lat="44.80876" lon="3.1303">
        <ele>1035.96</ele>
        <time>2014-07-02T06:53:14Z</time>
      </trkpt>
      <trkpt lat="44.80869" lon="3.13045">
        <ele>1035.96</ele>
        <time>2014-07-02T06:53:25Z</time>
      </trkpt>
      <trkpt lat="44.80864" lon="3.13049">
        <ele>1035.96</ele>
        <time>2014-07-02T06:53:30Z</time>
      </trkpt>
      <trkpt lat="44.80854" lon="3.13066">
        <ele>1035.96</ele>
        <time>2014-07-02T06:53:45Z</time>
      </trkpt>
      <trkpt lat="44.80853" lon="3.1307">
        <ele>1035.96</ele>
        <time>2014-07-02T06:53:56Z</time>
      </trkpt>
      <trkpt lat="44.80856" lon="3.13068">
        <ele>1035.48</ele>
        <time>2014-07-02T06:54:06Z</time>
      </trkpt>
      <trkpt lat="44.80853" lon="3.13071">
        <ele>1035.48</ele>
        <time>2014-07-02T06:54:44Z</time>
      </trkpt>
      <trkpt lat="44.8085" lon="3.13071">
        <ele>1035.96</ele>
        <time>2014-07-02T06:55:26Z</time>
      </trkpt>
      <trkpt lat="44.8085" lon="3.13071">
        <ele>1035</ele>
        <time>2014-07-02T06:55:58Z</time>
      </trkpt>
      <trkpt lat="44.80852" lon="3.13069">
        <ele>1035.96</ele>
        <time>2014-07-02T06:56:18Z</time>
      </trkpt>
      <trkpt lat="44.80855" lon="3.13068">
        <ele>1036.44</ele>
        <time>2014-07-02T06:56:43Z</time>
      </trkpt>
      <trkpt lat="44.80853" lon="3.13071">
        <ele>1037.4</ele>
        <time>2014-07-02T06:56:53Z</time>
      </trkpt>
      <trkpt lat="44.80852" lon="3.13074">
        <ele>1037.88</ele>
        <time>2014-07-02T06:57:12Z</time>
      </trkpt>
      <trkpt lat="44.80851" lon="3.13077">
        <ele>1037.88</ele>
        <time>2014-07-02T06:57:14Z</time>
      </trkpt>
      <trkpt lat="44.80848" lon="3.13081">
        <ele>1037.88</ele>
        <time>2014-07-02T06:57:18Z</time>
      </trkpt>
      <trkpt lat="44.80837" lon="3.131">
        <ele>1037.88</ele>
        <time>2014-07-02T06:57:35Z</time>
      </trkpt>
      <trkpt lat="44.80821" lon="3.13109">
        <ele>1037.88</ele>
        <time>2014-07-02T06:57:50Z</time>
      </trkpt>
      <trkpt lat="44.80801" lon="3.13116">
        <ele>1037.88</ele>
        <time>2014-07-02T06:58:08Z</time>
      </trkpt>
      <trkpt lat="44.80793" lon="3.13118">
        <ele>1038.36</ele>
        <time>2014-07-02T06:58:16Z</time>
      </trkpt>
      <trkpt lat="44.80779" lon="3.13118">
        <ele>1040.28</ele>
        <time>2014-07-02T06:58:29Z</time>
      </trkpt>
      <trkpt lat="44.80762" lon="3.13116">
        <ele>1042.69</ele>
        <time>2014-07-02T06:58:45Z</time>
      </trkpt>
      <trkpt lat="44.8075" lon="3.13115">
        <ele>1043.65</ele>
        <time>2014-07-02T06:58:55Z</time>
      </trkpt>
      <trkpt lat="44.80733" lon="3.13112">
        <ele>1046.05</ele>
        <time>2014-07-02T06:59:10Z</time>
      </trkpt>
      <trkpt lat="44.80724" lon="3.13113">
        <ele>1046.53</ele>
        <time>2014-07-02T06:59:18Z</time>
      </trkpt>
      <trkpt lat="44.80706" lon="3.13117">
        <ele>1048.45</ele>
        <time>2014-07-02T06:59:34Z</time>
      </trkpt>
      <trkpt lat="44.80705" lon="3.13117">
        <ele>1048.45</ele>
        <time>2014-07-02T06:59:35Z</time>
      </trkpt>
      <trkpt lat="44.80689" lon="3.13121">
        <ele>1050.38</ele>
        <time>2014-07-02T06:59:50Z</time>
      </trkpt>
      <trkpt lat="44.80676" lon="3.13126">
        <ele>1052.3</ele>
        <time>2014-07-02T07:00:04Z</time>
      </trkpt>
      <trkpt lat="44.80665" lon="3.13135">
        <ele>1053.26</ele>
        <time>2014-07-02T07:00:16Z</time>
      </trkpt>
      <trkpt lat="44.80654" lon="3.13141">
        <ele>1055.18</ele>
        <time>2014-07-02T07:00:29Z</time>
      </trkpt>
      <trkpt lat="44.80643" lon="3.13139">
        <ele>1056.63</ele>
        <time>2014-07-02T07:00:40Z</time>
      </trkpt>
      <trkpt lat="44.80633" lon="3.13135">
        <ele>1058.55</ele>
        <time>2014-07-02T07:00:52Z</time>
      </trkpt>
      <trkpt lat="44.8063" lon="3.13133">
        <ele>1058.55</ele>
        <time>2014-07-02T07:00:55Z</time>
      </trkpt>
      <trkpt lat="44.80628" lon="3.13132">
        <ele>1059.03</ele>
        <time>2014-07-02T07:00:57Z</time>
      </trkpt>
      <trkpt lat="44.80617" lon="3.1312">
        <ele>1059.99</ele>
        <time>2014-07-02T07:01:10Z</time>
      </trkpt>
      <trkpt lat="44.80615" lon="3.13119">
        <ele>1059.99</ele>
        <time>2014-07-02T07:01:12Z</time>
      </trkpt>
      <trkpt lat="44.80613" lon="3.13115">
        <ele>1059.99</ele>
        <time>2014-07-02T07:01:15Z</time>
      </trkpt>
      <trkpt lat="44.80612" lon="3.13112">
        <ele>1060.47</ele>
        <time>2014-07-02T07:01:17Z</time>
      </trkpt>
      <trkpt lat="44.8061" lon="3.13108">
        <ele>1060.47</ele>
        <time>2014-07-02T07:01:20Z</time>
      </trkpt>
      <trkpt lat="44.80608" lon="3.13105">
        <ele>1060.95</ele>
        <time>2014-07-02T07:01:23Z</time>
      </trkpt>
      <trkpt lat="44.80606" lon="3.13085">
        <ele>1060.95</ele>
        <time>2014-07-02T07:01:35Z</time>
      </trkpt>
      <trkpt lat="44.80606" lon="3.13074">
        <ele>1061.43</ele>
        <time>2014-07-02T07:01:41Z</time>
      </trkpt>
      <trkpt lat="44.80606" lon="3.13066">
        <ele>1061.91</ele>
        <time>2014-07-02T07:01:46Z</time>
      </trkpt>
      <trkpt lat="44.80606" lon="3.13063">
        <ele>1062.39</ele>
        <time>2014-07-02T07:01:48Z</time>
      </trkpt>
      <trkpt lat="44.80605" lon="3.13046">
        <ele>1062.87</ele>
        <time>2014-07-02T07:01:58Z</time>
      </trkpt>
      <trkpt lat="44.80604" lon="3.13037">
        <ele>1062.87</ele>
        <time>2014-07-02T07:02:04Z</time>
      </trkpt>
      <trkpt lat="44.80602" lon="3.13032">
        <ele>1063.36</ele>
        <time>2014-07-02T07:02:07Z</time>
      </trkpt>
      <trkpt lat="44.80591" lon="3.13016">
        <ele>1064.32</ele>
        <time>2014-07-02T07:02:21Z</time>
      </trkpt>
      <trkpt lat="44.80588" lon="3.13013">
        <ele>1064.32</ele>
        <time>2014-07-02T07:02:24Z</time>
      </trkpt>
      <trkpt lat="44.80582" lon="3.13008">
        <ele>1064.8</ele>
        <time>2014-07-02T07:02:30Z</time>
      </trkpt>
      <trkpt lat="44.80576" lon="3.13005">
        <ele>1065.28</ele>
        <time>2014-07-02T07:02:35Z</time>
      </trkpt>
      <trkpt lat="44.80573" lon="3.13003">
        <ele>1065.76</ele>
        <time>2014-07-02T07:02:38Z</time>
      </trkpt>
      <trkpt lat="44.80569" lon="3.13">
        <ele>1066.24</ele>
        <time>2014-07-02T07:02:42Z</time>
      </trkpt>
      <trkpt lat="44.80568" lon="3.13">
        <ele>1066.24</ele>
        <time>2014-07-02T07:02:44Z</time>
      </trkpt>
      <trkpt lat="44.80565" lon="3.12997">
        <ele>1066.72</ele>
        <time>2014-07-02T07:02:47Z</time>
      </trkpt>
      <trkpt lat="44.8055" lon="3.12989">
        <ele>1069.6</ele>
        <time>2014-07-02T07:03:01Z</time>
      </trkpt>
      <trkpt lat="44.80538" lon="3.12981">
        <ele>1071.53</ele>
        <time>2014-07-02T07:03:15Z</time>
      </trkpt>
      <trkpt lat="44.80528" lon="3.12976">
        <ele>1072.97</ele>
        <time>2014-07-02T07:03:25Z</time>
      </trkpt>
      <trkpt lat="44.80518" lon="3.12969">
        <ele>1075.37</ele>
        <time>2014-07-02T07:03:37Z</time>
      </trkpt>
      <trkpt lat="44.80518" lon="3.12968">
        <ele>1074.89</ele>
        <time>2014-07-02T07:03:38Z</time>
      </trkpt>
      <trkpt lat="44.80515" lon="3.12966">
        <ele>1075.85</ele>
        <time>2014-07-02T07:03:41Z</time>
      </trkpt>
      <trkpt lat="44.80506" lon="3.12953">
        <ele>1076.81</ele>
        <time>2014-07-02T07:03:56Z</time>
      </trkpt>
      <trkpt lat="44.80505" lon="3.1295">
        <ele>1077.29</ele>
        <time>2014-07-02T07:04:16Z</time>
      </trkpt>
      <trkpt lat="44.80505" lon="3.1295">
        <ele>1077.29</ele>
        <time>2014-07-02T07:04:36Z</time>
      </trkpt>
      <trkpt lat="44.805" lon="3.12945">
        <ele>1077.29</ele>
        <time>2014-07-02T07:04:49Z</time>
      </trkpt>
      <trkpt lat="44.80498" lon="3.12943">
        <ele>1077.29</ele>
        <time>2014-07-02T07:04:51Z</time>
      </trkpt>
      <trkpt lat="44.80494" lon="3.12938">
        <ele>1077.29</ele>
        <time>2014-07-02T07:04:56Z</time>
      </trkpt>
      <trkpt lat="44.8049" lon="3.12935">
        <ele>1077.29</ele>
        <time>2014-07-02T07:05:00Z</time>
      </trkpt>
      <trkpt lat="44.80484" lon="3.1293">
        <ele>1077.78</ele>
        <time>2014-07-02T07:05:06Z</time>
      </trkpt>
      <trkpt lat="44.80463" lon="3.12929">
        <ele>1075.85</ele>
        <time>2014-07-02T07:05:23Z</time>
      </trkpt>
      <trkpt lat="44.80445" lon="3.1293">
        <ele>1073.93</ele>
        <time>2014-07-02T07:05:39Z</time>
      </trkpt>
      <trkpt lat="44.80426" lon="3.1293">
        <ele>1072.49</ele>
        <time>2014-07-02T07:05:56Z</time>
      </trkpt>
      <trkpt lat="44.80408" lon="3.12937">
        <ele>1071.53</ele>
        <time>2014-07-02T07:06:13Z</time>
      </trkpt>
      <trkpt lat="44.80403" lon="3.1294">
        <ele>1071.53</ele>
        <time>2014-07-02T07:06:18Z</time>
      </trkpt>
      <trkpt lat="44.80399" lon="3.12942">
        <ele>1071.05</ele>
        <time>2014-07-02T07:06:22Z</time>
      </trkpt>
      <trkpt lat="44.80385" lon="3.12958">
        <ele>1070.57</ele>
        <time>2014-07-02T07:06:37Z</time>
      </trkpt>
      <trkpt lat="44.80375" lon="3.12972">
        <ele>1070.08</ele>
        <time>2014-07-02T07:06:49Z</time>
      </trkpt>
      <trkpt lat="44.8036" lon="3.12988">
        <ele>1069.6</ele>
        <time>2014-07-02T07:07:05Z</time>
      </trkpt>
      <trkpt lat="44.80356" lon="3.12989">
        <ele>1069.6</ele>
        <time>2014-07-02T07:07:09Z</time>
      </trkpt>
      <trkpt lat="44.80352" lon="3.12992">
        <ele>1069.6</ele>
        <time>2014-07-02T07:07:13Z</time>
      </trkpt>
      <trkpt lat="44.80342" lon="3.12996">
        <ele>1069.12</ele>
        <time>2014-07-02T07:07:21Z</time>
      </trkpt>
      <trkpt lat="44.80339" lon="3.12998">
        <ele>1068.64</ele>
        <time>2014-07-02T07:07:24Z</time>
      </trkpt>
      <trkpt lat="44.8033" lon="3.13003">
        <ele>1068.64</ele>
        <time>2014-07-02T07:07:32Z</time>
      </trkpt>
      <trkpt lat="44.80327" lon="3.13004">
        <ele>1070.57</ele>
        <time>2014-07-02T07:07:35Z</time>
      </trkpt>
      <trkpt lat="44.80322" lon="3.13008">
        <ele>1070.57</ele>
        <time>2014-07-02T07:07:40Z</time>
      </trkpt>
      <trkpt lat="44.80319" lon="3.13012">
        <ele>1070.57</ele>
        <time>2014-07-02T07:07:43Z</time>
      </trkpt>
      <trkpt lat="44.80317" lon="3.13013">
        <ele>1071.05</ele>
        <time>2014-07-02T07:07:45Z</time>
      </trkpt>
      <trkpt lat="44.80312" lon="3.13017">
        <ele>1071.05</ele>
        <time>2014-07-02T07:07:49Z</time>
      </trkpt>
      <trkpt lat="44.80307" lon="3.13022">
        <ele>1071.53</ele>
        <time>2014-07-02T07:07:54Z</time>
      </trkpt>
      <trkpt lat="44.80304" lon="3.13025">
        <ele>1072.01</ele>
        <time>2014-07-02T07:07:57Z</time>
      </trkpt>
      <trkpt lat="44.80302" lon="3.13027">
        <ele>1072.01</ele>
        <time>2014-07-02T07:07:59Z</time>
      </trkpt>
      <trkpt lat="44.80293" lon="3.13037">
        <ele>1072.97</ele>
        <time>2014-07-02T07:08:08Z</time>
      </trkpt>
      <trkpt lat="44.80274" lon="3.13059">
        <ele>1073.45</ele>
        <time>2014-07-02T07:08:27Z</time>
      </trkpt>
      <trkpt lat="44.80273" lon="3.1306">
        <ele>1073.45</ele>
        <time>2014-07-02T07:08:28Z</time>
      </trkpt>
      <trkpt lat="44.80257" lon="3.13072">
        <ele>1072.49</ele>
        <time>2014-07-02T07:08:43Z</time>
      </trkpt>
      <trkpt lat="44.80242" lon="3.13077">
        <ele>1072.01</ele>
        <time>2014-07-02T07:08:55Z</time>
      </trkpt>
      <trkpt lat="44.80221" lon="3.13071">
        <ele>1072.01</ele>
        <time>2014-07-02T07:09:12Z</time>
      </trkpt>
      <trkpt lat="44.80216" lon="3.13069">
        <ele>1072.01</ele>
        <time>2014-07-02T07:09:16Z</time>
      </trkpt>
      <trkpt lat="44.80212" lon="3.13068">
        <ele>1072.01</ele>
        <time>2014-07-02T07:09:20Z</time>
      </trkpt>
      <trkpt lat="44.80201" lon="3.13064">
        <ele>1072.49</ele>
        <time>2014-07-02T07:09:36Z</time>
      </trkpt>
      <trkpt lat="44.80197" lon="3.13061">
        <ele>1072.01</ele>
        <time>2014-07-02T07:09:53Z</time>
      </trkpt>
      <trkpt lat="44.80198" lon="3.13059">
        <ele>1072.01</ele>
        <time>2014-07-02T07:10:11Z</time>
      </trkpt>
      <trkpt lat="44.80187" lon="3.13061">
        <ele>1070.57</ele>
        <time>2014-07-02T07:10:24Z</time>
      </trkpt>
      <trkpt lat="44.80181" lon="3.13059">
        <ele>1070.08</ele>
        <time>2014-07-02T07:10:37Z</time>
      </trkpt>
      <trkpt lat="44.80179" lon="3.13058">
        <ele>1069.6</ele>
        <time>2014-07-02T07:10:47Z</time>
      </trkpt>
      <trkpt lat="44.80181" lon="3.13059">
        <ele>1069.6</ele>
        <time>2014-07-02T07:11:21Z</time>
      </trkpt>
      <trkpt lat="44.80179" lon="3.13061">
        <ele>1070.57</ele>
        <time>2014-07-02T07:11:49Z</time>
      </trkpt>
      <trkpt lat="44.80179" lon="3.13061">
        <ele>1070.57</ele>
        <time>2014-07-02T07:11:56Z</time>
      </trkpt>
      <trkpt lat="44.80158" lon="3.13074">
        <ele>1072.97</ele>
        <time>2014-07-02T07:12:14Z</time>
      </trkpt>
      <trkpt lat="44.80137" lon="3.13082">
        <ele>1073.93</ele>
        <time>2014-07-02T07:12:30Z</time>
      </trkpt>
      <trkpt lat="44.8012" lon="3.13095">
        <ele>1075.37</ele>
        <time>2014-07-02T07:12:44Z</time>
      </trkpt>
      <trkpt lat="44.80107" lon="3.13102">
        <ele>1077.29</ele>
        <time>2014-07-02T07:12:56Z</time>
      </trkpt>
      <trkpt lat="44.80097" lon="3.13106">
        <ele>1078.26</ele>
        <time>2014-07-02T07:13:04Z</time>
      </trkpt>
      <trkpt lat="44.80089" lon="3.1311">
        <ele>1079.7</ele>
        <time>2014-07-02T07:13:11Z</time>
      </trkpt>
      <trkpt lat="44.80076" lon="3.13117">
        <ele>1081.14</ele>
        <time>2014-07-02T07:13:23Z</time>
      </trkpt>
      <trkpt lat="44.80069" lon="3.13126">
        <ele>1083.06</ele>
        <time>2014-07-02T07:13:34Z</time>
      </trkpt>
      <trkpt lat="44.80067" lon="3.13152">
        <ele>1086.43</ele>
        <time>2014-07-02T07:13:52Z</time>
      </trkpt>
      <trkpt lat="44.80063" lon="3.13178">
        <ele>1089.31</ele>
        <time>2014-07-02T07:14:09Z</time>
      </trkpt>
      <trkpt lat="44.80057" lon="3.13208">
        <ele>1091.23</ele>
        <time>2014-07-02T07:14:27Z</time>
      </trkpt>
      <trkpt lat="44.80053" lon="3.13235">
        <ele>1092.68</ele>
        <time>2014-07-02T07:14:42Z</time>
      </trkpt>
      <trkpt lat="44.80049" lon="3.13264">
        <ele>1094.6</ele>
        <time>2014-07-02T07:14:59Z</time>
      </trkpt>
      <trkpt lat="44.80048" lon="3.13294">
        <ele>1095.56</ele>
        <time>2014-07-02T07:15:16Z</time>
      </trkpt>
      <trkpt lat="44.80049" lon="3.13319">
        <ele>1097.96</ele>
        <time>2014-07-02T07:15:31Z</time>
      </trkpt>
      <trkpt lat="44.80054" lon="3.13346">
        <ele>1099.89</ele>
        <time>2014-07-02T07:15:49Z</time>
      </trkpt>
      <trkpt lat="44.80054" lon="3.13369">
        <ele>1101.33</ele>
        <time>2014-07-02T07:16:04Z</time>
      </trkpt>
      <trkpt lat="44.80055" lon="3.13398">
        <ele>1103.73</ele>
        <time>2014-07-02T07:16:21Z</time>
      </trkpt>
      <trkpt lat="44.80055" lon="3.13405">
        <ele>1104.69</ele>
        <time>2014-07-02T07:16:25Z</time>
      </trkpt>
      <trkpt lat="44.80055" lon="3.13412">
        <ele>1104.69</ele>
        <time>2014-07-02T07:16:29Z</time>
      </trkpt>
      <trkpt lat="44.80056" lon="3.13418">
        <ele>1106.13</ele>
        <time>2014-07-02T07:16:33Z</time>
      </trkpt>
      <trkpt lat="44.80053" lon="3.13453">
        <ele>1106.61</ele>
        <time>2014-07-02T07:16:52Z</time>
      </trkpt>
      <trkpt lat="44.80048" lon="3.1348">
        <ele>1107.1</ele>
        <time>2014-07-02T07:17:08Z</time>
      </trkpt>
      <trkpt lat="44.80042" lon="3.13508">
        <ele>1108.54</ele>
        <time>2014-07-02T07:17:24Z</time>
      </trkpt>
      <trkpt lat="44.80036" lon="3.13536">
        <ele>1109.02</ele>
        <time>2014-07-02T07:17:41Z</time>
      </trkpt>
      <trkpt lat="44.80034" lon="3.13541">
        <ele>1109.5</ele>
        <time>2014-07-02T07:17:44Z</time>
      </trkpt>
      <trkpt lat="44.80022" lon="3.13563">
        <ele>1110.94</ele>
        <time>2014-07-02T07:17:59Z</time>
      </trkpt>
      <trkpt lat="44.80014" lon="3.13582">
        <ele>1113.34</ele>
        <time>2014-07-02T07:18:13Z</time>
      </trkpt>
      <trkpt lat="44.80001" lon="3.13604">
        <ele>1113.82</ele>
        <time>2014-07-02T07:18:30Z</time>
      </trkpt>
      <trkpt lat="44.79993" lon="3.13622">
        <ele>1115.75</ele>
        <time>2014-07-02T07:18:43Z</time>
      </trkpt>
      <trkpt lat="44.7999" lon="3.1363">
        <ele>1114.79</ele>
        <time>2014-07-02T07:18:48Z</time>
      </trkpt>
      <trkpt lat="44.79979" lon="3.13651">
        <ele>1114.79</ele>
        <time>2014-07-02T07:19:04Z</time>
      </trkpt>
      <trkpt lat="44.79978" lon="3.13653">
        <ele>1114.79</ele>
        <time>2014-07-02T07:19:05Z</time>
      </trkpt>
      <trkpt lat="44.79974" lon="3.13662">
        <ele>1116.23</ele>
        <time>2014-07-02T07:19:12Z</time>
      </trkpt>
      <trkpt lat="44.79973" lon="3.13663">
        <ele>1116.23</ele>
        <time>2014-07-02T07:19:13Z</time>
      </trkpt>
      <trkpt lat="44.79972" lon="3.13666">
        <ele>1116.23</ele>
        <time>2014-07-02T07:19:15Z</time>
      </trkpt>
      <trkpt lat="44.79969" lon="3.13676">
        <ele>1116.23</ele>
        <time>2014-07-02T07:19:22Z</time>
      </trkpt>
      <trkpt lat="44.79966" lon="3.13685">
        <ele>1116.71</ele>
        <time>2014-07-02T07:19:27Z</time>
      </trkpt>
      <trkpt lat="44.79965" lon="3.1371">
        <ele>1119.59</ele>
        <time>2014-07-02T07:19:43Z</time>
      </trkpt>
      <trkpt lat="44.79965" lon="3.13717">
        <ele>1119.59</ele>
        <time>2014-07-02T07:19:47Z</time>
      </trkpt>
      <trkpt lat="44.79965" lon="3.13728">
        <ele>1120.55</ele>
        <time>2014-07-02T07:19:54Z</time>
      </trkpt>
      <trkpt lat="44.79964" lon="3.13753">
        <ele>1122</ele>
        <time>2014-07-02T07:20:10Z</time>
      </trkpt>
      <trkpt lat="44.79963" lon="3.13763">
        <ele>1122</ele>
        <time>2014-07-02T07:20:16Z</time>
      </trkpt>
      <trkpt lat="44.79958" lon="3.13782">
        <ele>1123.44</ele>
        <time>2014-07-02T07:20:29Z</time>
      </trkpt>
      <trkpt lat="44.79953" lon="3.13802">
        <ele>1123.92</ele>
        <time>2014-07-02T07:20:41Z</time>
      </trkpt>
      <trkpt lat="44.79948" lon="3.13819">
        <ele>1124.88</ele>
        <time>2014-07-02T07:20:52Z</time>
      </trkpt>
      <trkpt lat="44.79945" lon="3.13834">
        <ele>1126.32</ele>
        <time>2014-07-02T07:21:01Z</time>
      </trkpt>
      <trkpt lat="44.79939" lon="3.13857">
        <ele>1127.28</ele>
        <time>2014-07-02T07:21:16Z</time>
      </trkpt>
      <trkpt lat="44.79939" lon="3.13859">
        <ele>1127.28</ele>
        <time>2014-07-02T07:21:17Z</time>
      </trkpt>
      <trkpt lat="44.79938" lon="3.13864">
        <ele>1127.28</ele>
        <time>2014-07-02T07:21:20Z</time>
      </trkpt>
      <trkpt lat="44.79936" lon="3.13876">
        <ele>1128.24</ele>
        <time>2014-07-02T07:21:28Z</time>
      </trkpt>
      <trkpt lat="44.79929" lon="3.13903">
        <ele>1128.73</ele>
        <time>2014-07-02T07:21:45Z</time>
      </trkpt>
      <trkpt lat="44.79929" lon="3.13904">
        <ele>1128.73</ele>
        <time>2014-07-02T07:21:46Z</time>
      </trkpt>
      <trkpt lat="44.79927" lon="3.13909">
        <ele>1129.21</ele>
        <time>2014-07-02T07:21:49Z</time>
      </trkpt>
      <trkpt lat="44.79925" lon="3.13917">
        <ele>1129.69</ele>
        <time>2014-07-02T07:21:55Z</time>
      </trkpt>
      <trkpt lat="44.79925" lon="3.13921">
        <ele>1129.69</ele>
        <time>2014-07-02T07:21:58Z</time>
      </trkpt>
      <trkpt lat="44.79923" lon="3.13925">
        <ele>1130.17</ele>
        <time>2014-07-02T07:22:01Z</time>
      </trkpt>
      <trkpt lat="44.79923" lon="3.1393">
        <ele>1130.17</ele>
        <time>2014-07-02T07:22:04Z</time>
      </trkpt>
      <trkpt lat="44.79921" lon="3.13939">
        <ele>1130.65</ele>
        <time>2014-07-02T07:22:10Z</time>
      </trkpt>
      <trkpt lat="44.79919" lon="3.13949">
        <ele>1131.61</ele>
        <time>2014-07-02T07:22:17Z</time>
      </trkpt>
      <trkpt lat="44.79916" lon="3.13964">
        <ele>1132.09</ele>
        <time>2014-07-02T07:22:27Z</time>
      </trkpt>
      <trkpt lat="44.79914" lon="3.13973">
        <ele>1132.57</ele>
        <time>2014-07-02T07:22:33Z</time>
      </trkpt>
      <trkpt lat="44.79911" lon="3.1398">
        <ele>1133.05</ele>
        <time>2014-07-02T07:22:39Z</time>
      </trkpt>
      <trkpt lat="44.79903" lon="3.14001">
        <ele>1133.53</ele>
        <time>2014-07-02T07:22:54Z</time>
      </trkpt>
      <trkpt lat="44.79901" lon="3.1401">
        <ele>1132.09</ele>
        <time>2014-07-02T07:23:00Z</time>
      </trkpt>
      <trkpt lat="44.79898" lon="3.14016">
        <ele>1131.61</ele>
        <time>2014-07-02T07:23:14Z</time>
      </trkpt>
      <trkpt lat="44.79899" lon="3.14016">
        <ele>1131.61</ele>
        <time>2014-07-02T07:23:33Z</time>
      </trkpt>
      <trkpt lat="44.79899" lon="3.14018">
        <ele>1132.09</ele>
        <time>2014-07-02T07:23:48Z</time>
      </trkpt>
      <trkpt lat="44.79897" lon="3.14021">
        <ele>1131.13</ele>
        <time>2014-07-02T07:24:10Z</time>
      </trkpt>
      <trkpt lat="44.79889" lon="3.14035">
        <ele>1129.21</ele>
        <time>2014-07-02T07:24:27Z</time>
      </trkpt>
      <trkpt lat="44.79878" lon="3.14057">
        <ele>1128.24</ele>
        <time>2014-07-02T07:24:42Z</time>
      </trkpt>
      <trkpt lat="44.79861" lon="3.14073">
        <ele>1128.24</ele>
        <time>2014-07-02T07:25:01Z</time>
      </trkpt>
      <trkpt lat="44.79849" lon="3.14094">
        <ele>1129.21</ele>
        <time>2014-07-02T07:25:17Z</time>
      </trkpt>
      <trkpt lat="44.79848" lon="3.14119">
        <ele>1130.65</ele>
        <time>2014-07-02T07:25:33Z</time>
      </trkpt>
      <trkpt lat="44.79848" lon="3.14124">
        <ele>1131.61</ele>
        <time>2014-07-02T07:25:47Z</time>
      </trkpt>
      <trkpt lat="44.79842" lon="3.14119">
        <ele>1130.65</ele>
        <time>2014-07-02T07:26:03Z</time>
      </trkpt>
      <trkpt lat="44.79846" lon="3.14124">
        <ele>1130.65</ele>
        <time>2014-07-02T07:26:26Z</time>
      </trkpt>
      <trkpt lat="44.79845" lon="3.14136">
        <ele>1132.57</ele>
        <time>2014-07-02T07:26:32Z</time>
      </trkpt>
      <trkpt lat="44.79844" lon="3.14144">
        <ele>1133.05</ele>
        <time>2014-07-02T07:26:37Z</time>
      </trkpt>
      <trkpt lat="44.79841" lon="3.14157">
        <ele>1134.01</ele>
        <time>2014-07-02T07:26:45Z</time>
      </trkpt>
      <trkpt lat="44.79834" lon="3.14192">
        <ele>1136.42</ele>
        <time>2014-07-02T07:27:04Z</time>
      </trkpt>
      <trkpt lat="44.79834" lon="3.14195">
        <ele>1136.9</ele>
        <time>2014-07-02T07:27:06Z</time>
      </trkpt>
      <trkpt lat="44.79832" lon="3.14205">
        <ele>1137.38</ele>
        <time>2014-07-02T07:27:12Z</time>
      </trkpt>
      <trkpt lat="44.79828" lon="3.14235">
        <ele>1139.3</ele>
        <time>2014-07-02T07:27:28Z</time>
      </trkpt>
      <trkpt lat="44.79821" lon="3.1426">
        <ele>1140.26</ele>
        <time>2014-07-02T07:27:43Z</time>
      </trkpt>
      <trkpt lat="44.79814" lon="3.14276">
        <ele>1140.26</ele>
        <time>2014-07-02T07:27:54Z</time>
      </trkpt>
      <trkpt lat="44.79812" lon="3.14283">
        <ele>1140.74</ele>
        <time>2014-07-02T07:27:58Z</time>
      </trkpt>
      <trkpt lat="44.79804" lon="3.14307">
        <ele>1142.66</ele>
        <time>2014-07-02T07:28:13Z</time>
      </trkpt>
      <trkpt lat="44.79797" lon="3.14337">
        <ele>1144.11</ele>
        <time>2014-07-02T07:28:31Z</time>
      </trkpt>
      <trkpt lat="44.79793" lon="3.14363">
        <ele>1144.11</ele>
        <time>2014-07-02T07:28:46Z</time>
      </trkpt>
      <trkpt lat="44.79789" lon="3.1439">
        <ele>1145.07</ele>
        <time>2014-07-02T07:29:02Z</time>
      </trkpt>
      <trkpt lat="44.79787" lon="3.14413">
        <ele>1145.55</ele>
        <time>2014-07-02T07:29:16Z</time>
      </trkpt>
      <trkpt lat="44.79786" lon="3.14435">
        <ele>1146.03</ele>
        <time>2014-07-02T07:29:30Z</time>
      </trkpt>
      <trkpt lat="44.79786" lon="3.14436">
        <ele>1146.51</ele>
        <time>2014-07-02T07:29:31Z</time>
      </trkpt>
      <trkpt lat="44.79785" lon="3.14453">
        <ele>1146.99</ele>
        <time>2014-07-02T07:29:41Z</time>
      </trkpt>
      <trkpt lat="44.79782" lon="3.14478">
        <ele>1148.43</ele>
        <time>2014-07-02T07:29:56Z</time>
      </trkpt>
      <trkpt lat="44.79778" lon="3.14502">
        <ele>1149.87</ele>
        <time>2014-07-02T07:30:10Z</time>
      </trkpt>
      <trkpt lat="44.79779" lon="3.14508">
        <ele>1149.87</ele>
        <time>2014-07-02T07:30:14Z</time>
      </trkpt>
      <trkpt lat="44.79778" lon="3.14523">
        <ele>1150.35</ele>
        <time>2014-07-02T07:30:23Z</time>
      </trkpt>
      <trkpt lat="44.79774" lon="3.14546">
        <ele>1151.8</ele>
        <time>2014-07-02T07:30:38Z</time>
      </trkpt>
      <trkpt lat="44.79774" lon="3.14548">
        <ele>1152.28</ele>
        <time>2014-07-02T07:30:39Z</time>
      </trkpt>
      <trkpt lat="44.79771" lon="3.14552">
        <ele>1152.76</ele>
        <time>2014-07-02T07:30:43Z</time>
      </trkpt>
      <trkpt lat="44.79769" lon="3.14557">
        <ele>1152.76</ele>
        <time>2014-07-02T07:30:47Z</time>
      </trkpt>
      <trkpt lat="44.79766" lon="3.14562">
        <ele>1153.72</ele>
        <time>2014-07-02T07:31:02Z</time>
      </trkpt>
      <trkpt lat="44.79765" lon="3.14565">
        <ele>1153.72</ele>
        <time>2014-07-02T07:31:25Z</time>
      </trkpt>
      <trkpt lat="44.79765" lon="3.14564">
        <ele>1153.72</ele>
        <time>2014-07-02T07:31:35Z</time>
      </trkpt>
      <trkpt lat="44.79763" lon="3.14565">
        <ele>1153.72</ele>
        <time>2014-07-02T07:32:00Z</time>
      </trkpt>
      <trkpt lat="44.79747" lon="3.14579">
        <ele>1154.68</ele>
        <time>2014-07-02T07:32:16Z</time>
      </trkpt>
      <trkpt lat="44.79735" lon="3.14603">
        <ele>1155.64</ele>
        <time>2014-07-02T07:32:33Z</time>
      </trkpt>
      <trkpt lat="44.79726" lon="3.14633">
        <ele>1156.6</ele>
        <time>2014-07-02T07:32:51Z</time>
      </trkpt>
      <trkpt lat="44.79725" lon="3.14662">
        <ele>1157.56</ele>
        <time>2014-07-02T07:33:08Z</time>
      </trkpt>
      <trkpt lat="44.79722" lon="3.14686">
        <ele>1158.53</ele>
        <time>2014-07-02T07:33:23Z</time>
      </trkpt>
      <trkpt lat="44.7972" lon="3.147">
        <ele>1159.01</ele>
        <time>2014-07-02T07:33:31Z</time>
      </trkpt>
      <trkpt lat="44.79712" lon="3.14735">
        <ele>1159.97</ele>
        <time>2014-07-02T07:33:51Z</time>
      </trkpt>
      <trkpt lat="44.79709" lon="3.14768">
        <ele>1159.97</ele>
        <time>2014-07-02T07:34:09Z</time>
      </trkpt>
      <trkpt lat="44.7971" lon="3.14797">
        <ele>1158.53</ele>
        <time>2014-07-02T07:34:25Z</time>
      </trkpt>
      <trkpt lat="44.7971" lon="3.14807">
        <ele>1158.53</ele>
        <time>2014-07-02T07:34:30Z</time>
      </trkpt>
      <trkpt lat="44.79713" lon="3.14838">
        <ele>1158.05</ele>
        <time>2014-07-02T07:34:47Z</time>
      </trkpt>
      <trkpt lat="44.79716" lon="3.14862">
        <ele>1157.08</ele>
        <time>2014-07-02T07:35:03Z</time>
      </trkpt>
      <trkpt lat="44.7972" lon="3.1489">
        <ele>1157.08</ele>
        <time>2014-07-02T07:35:19Z</time>
      </trkpt>
      <trkpt lat="44.79733" lon="3.14915">
        <ele>1156.6</ele>
        <time>2014-07-02T07:35:36Z</time>
      </trkpt>
      <trkpt lat="44.79744" lon="3.14932">
        <ele>1156.12</ele>
        <time>2014-07-02T07:35:48Z</time>
      </trkpt>
      <trkpt lat="44.79761" lon="3.14957">
        <ele>1156.12</ele>
        <time>2014-07-02T07:36:06Z</time>
      </trkpt>
      <trkpt lat="44.79775" lon="3.14976">
        <ele>1156.12</ele>
        <time>2014-07-02T07:36:22Z</time>
      </trkpt>
      <trkpt lat="44.79786" lon="3.14996">
        <ele>1156.12</ele>
        <time>2014-07-02T07:36:37Z</time>
      </trkpt>
      <trkpt lat="44.79795" lon="3.15021">
        <ele>1156.12</ele>
        <time>2014-07-02T07:36:52Z</time>
      </trkpt>
      <trkpt lat="44.79797" lon="3.15026">
        <ele>1156.12</ele>
        <time>2014-07-02T07:36:55Z</time>
      </trkpt>
      <trkpt lat="44.79803" lon="3.15053">
        <ele>1156.12</ele>
        <time>2014-07-02T07:37:11Z</time>
      </trkpt>
      <trkpt lat="44.79802" lon="3.15073">
        <ele>1157.56</ele>
        <time>2014-07-02T07:37:24Z</time>
      </trkpt>
      <trkpt lat="44.798" lon="3.15092">
        <ele>1158.53</ele>
        <time>2014-07-02T07:37:34Z</time>
      </trkpt>
      <trkpt lat="44.79802" lon="3.151">
        <ele>1158.53</ele>
        <time>2014-07-02T07:37:39Z</time>
      </trkpt>
      <trkpt lat="44.79802" lon="3.15108">
        <ele>1158.53</ele>
        <time>2014-07-02T07:37:44Z</time>
      </trkpt>
      <trkpt lat="44.79802" lon="3.15112">
        <ele>1158.53</ele>
        <time>2014-07-02T07:37:46Z</time>
      </trkpt>
      <trkpt lat="44.79796" lon="3.15141">
        <ele>1159.01</ele>
        <time>2014-07-02T07:38:02Z</time>
      </trkpt>
      <trkpt lat="44.79794" lon="3.15147">
        <ele>1159.49</ele>
        <time>2014-07-02T07:38:06Z</time>
      </trkpt>
      <trkpt lat="44.7979" lon="3.15157">
        <ele>1159.49</ele>
        <time>2014-07-02T07:38:12Z</time>
      </trkpt>
      <trkpt lat="44.79783" lon="3.15179">
        <ele>1160.93</ele>
        <time>2014-07-02T07:38:26Z</time>
      </trkpt>
      <trkpt lat="44.79777" lon="3.15202">
        <ele>1161.89</ele>
        <time>2014-07-02T07:38:40Z</time>
      </trkpt>
      <trkpt lat="44.79776" lon="3.15207">
        <ele>1162.37</ele>
        <time>2014-07-02T07:38:43Z</time>
      </trkpt>
      <trkpt lat="44.79774" lon="3.15214">
        <ele>1162.85</ele>
        <time>2014-07-02T07:38:48Z</time>
      </trkpt>
      <trkpt lat="44.7977" lon="3.15229">
        <ele>1163.81</ele>
        <time>2014-07-02T07:38:57Z</time>
      </trkpt>
      <trkpt lat="44.79768" lon="3.15235">
        <ele>1164.29</ele>
        <time>2014-07-02T07:39:01Z</time>
      </trkpt>
      <trkpt lat="44.79768" lon="3.15238">
        <ele>1164.29</ele>
        <time>2014-07-02T07:39:03Z</time>
      </trkpt>
      <trkpt lat="44.79765" lon="3.15248">
        <ele>1164.77</ele>
        <time>2014-07-02T07:39:10Z</time>
      </trkpt>
      <trkpt lat="44.79759" lon="3.15269">
        <ele>1166.7</ele>
        <time>2014-07-02T07:39:24Z</time>
      </trkpt>
      <trkpt lat="44.79758" lon="3.15272">
        <ele>1166.7</ele>
        <time>2014-07-02T07:39:26Z</time>
      </trkpt>
      <trkpt lat="44.79752" lon="3.15292">
        <ele>1168.14</ele>
        <time>2014-07-02T07:39:40Z</time>
      </trkpt>
      <trkpt lat="44.79751" lon="3.15297">
        <ele>1168.62</ele>
        <time>2014-07-02T07:39:44Z</time>
      </trkpt>
      <trkpt lat="44.79754" lon="3.15315">
        <ele>1170.06</ele>
        <time>2014-07-02T07:39:57Z</time>
      </trkpt>
      <trkpt lat="44.79761" lon="3.15321">
        <ele>1171.5</ele>
        <time>2014-07-02T07:40:06Z</time>
      </trkpt>
      <trkpt lat="44.79769" lon="3.15327">
        <ele>1172.95</ele>
        <time>2014-07-02T07:40:16Z</time>
      </trkpt>
      <trkpt lat="44.79782" lon="3.15332">
        <ele>1173.91</ele>
        <time>2014-07-02T07:40:27Z</time>
      </trkpt>
      <trkpt lat="44.79794" lon="3.15342">
        <ele>1175.83</ele>
        <time>2014-07-02T07:40:41Z</time>
      </trkpt>
      <trkpt lat="44.79799" lon="3.15347">
        <ele>1177.75</ele>
        <time>2014-07-02T07:40:47Z</time>
      </trkpt>
      <trkpt lat="44.79807" lon="3.15362">
        <ele>1179.19</ele>
        <time>2014-07-02T07:41:00Z</time>
      </trkpt>
      <trkpt lat="44.79808" lon="3.15365">
        <ele>1179.19</ele>
        <time>2014-07-02T07:41:02Z</time>
      </trkpt>
      <trkpt lat="44.79809" lon="3.15368">
        <ele>1180.16</ele>
        <time>2014-07-02T07:41:04Z</time>
      </trkpt>
      <trkpt lat="44.79815" lon="3.15389">
        <ele>1181.12</ele>
        <time>2014-07-02T07:41:19Z</time>
      </trkpt>
      <trkpt lat="44.79815" lon="3.15391">
        <ele>1181.12</ele>
        <time>2014-07-02T07:41:20Z</time>
      </trkpt>
      <trkpt lat="44.79821" lon="3.15409">
        <ele>1183.52</ele>
        <time>2014-07-02T07:41:33Z</time>
      </trkpt>
      <trkpt lat="44.79822" lon="3.15417">
        <ele>1184</ele>
        <time>2014-07-02T07:41:38Z</time>
      </trkpt>
      <trkpt lat="44.79832" lon="3.15437">
        <ele>1184.48</ele>
        <time>2014-07-02T07:41:52Z</time>
      </trkpt>
      <trkpt lat="44.79836" lon="3.15444">
        <ele>1185.44</ele>
        <time>2014-07-02T07:41:58Z</time>
      </trkpt>
      <trkpt lat="44.7984" lon="3.15449">
        <ele>1185.44</ele>
        <time>2014-07-02T07:42:02Z</time>
      </trkpt>
      <trkpt lat="44.79852" lon="3.15465">
        <ele>1187.37</ele>
        <time>2014-07-02T07:42:16Z</time>
      </trkpt>
      <trkpt lat="44.79856" lon="3.15471">
        <ele>1188.33</ele>
        <time>2014-07-02T07:42:21Z</time>
      </trkpt>
      <trkpt lat="44.79863" lon="3.1548">
        <ele>1188.33</ele>
        <time>2014-07-02T07:42:29Z</time>
      </trkpt>
      <trkpt lat="44.79874" lon="3.15496">
        <ele>1189.29</ele>
        <time>2014-07-02T07:42:45Z</time>
      </trkpt>
      <trkpt lat="44.79879" lon="3.15503">
        <ele>1189.77</ele>
        <time>2014-07-02T07:42:51Z</time>
      </trkpt>
      <trkpt lat="44.79882" lon="3.15504">
        <ele>1189.77</ele>
        <time>2014-07-02T07:42:53Z</time>
      </trkpt>
      <trkpt lat="44.79886" lon="3.15509">
        <ele>1189.77</ele>
        <time>2014-07-02T07:42:58Z</time>
      </trkpt>
      <trkpt lat="44.79892" lon="3.15514">
        <ele>1189.77</ele>
        <time>2014-07-02T07:43:04Z</time>
      </trkpt>
      <trkpt lat="44.79908" lon="3.15527">
        <ele>1190.73</ele>
        <time>2014-07-02T07:43:19Z</time>
      </trkpt>
      <trkpt lat="44.7993" lon="3.15543">
        <ele>1191.21</ele>
        <time>2014-07-02T07:43:35Z</time>
      </trkpt>
      <trkpt lat="44.79946" lon="3.15557">
        <ele>1191.21</ele>
        <time>2014-07-02T07:43:51Z</time>
      </trkpt>
      <trkpt lat="44.79949" lon="3.15561">
        <ele>1191.21</ele>
        <time>2014-07-02T07:43:55Z</time>
      </trkpt>
      <trkpt lat="44.79964" lon="3.15575">
        <ele>1189.29</ele>
        <time>2014-07-02T07:44:12Z</time>
      </trkpt>
      <trkpt lat="44.7998" lon="3.15583">
        <ele>1188.81</ele>
        <time>2014-07-02T07:44:31Z</time>
      </trkpt>
      <trkpt lat="44.79994" lon="3.15586">
        <ele>1188.33</ele>
        <time>2014-07-02T07:44:46Z</time>
      </trkpt>
      <trkpt lat="44.80013" lon="3.15587">
        <ele>1186.4</ele>
        <time>2014-07-02T07:45:05Z</time>
      </trkpt>
      <trkpt lat="44.80021" lon="3.1559">
        <ele>1185.44</ele>
        <time>2014-07-02T07:45:17Z</time>
      </trkpt>
      <trkpt lat="44.80024" lon="3.15588">
        <ele>1184</ele>
        <time>2014-07-02T07:45:28Z</time>
      </trkpt>
      <trkpt lat="44.80021" lon="3.1559">
        <ele>1184</ele>
        <time>2014-07-02T07:45:58Z</time>
      </trkpt>
      <trkpt lat="44.80021" lon="3.15591">
        <ele>1184.96</ele>
        <time>2014-07-02T07:46:35Z</time>
      </trkpt>
      <trkpt lat="44.80031" lon="3.15589">
        <ele>1185.44</ele>
        <time>2014-07-02T07:46:49Z</time>
      </trkpt>
      <trkpt lat="44.80046" lon="3.15592">
        <ele>1182.08</ele>
        <time>2014-07-02T07:47:01Z</time>
      </trkpt>
      <trkpt lat="44.80067" lon="3.15598">
        <ele>1180.64</ele>
        <time>2014-07-02T07:47:16Z</time>
      </trkpt>
      <trkpt lat="44.80086" lon="3.15614">
        <ele>1178.23</ele>
        <time>2014-07-02T07:47:32Z</time>
      </trkpt>
      <trkpt lat="44.80107" lon="3.15635">
        <ele>1175.35</ele>
        <time>2014-07-02T07:47:50Z</time>
      </trkpt>
      <trkpt lat="44.80124" lon="3.15651">
        <ele>1174.87</ele>
        <time>2014-07-02T07:48:05Z</time>
      </trkpt>
      <trkpt lat="44.80143" lon="3.15667">
        <ele>1173.43</ele>
        <time>2014-07-02T07:48:21Z</time>
      </trkpt>
      <trkpt lat="44.80163" lon="3.15687">
        <ele>1171.98</ele>
        <time>2014-07-02T07:48:39Z</time>
      </trkpt>
      <trkpt lat="44.80189" lon="3.15704">
        <ele>1170.06</ele>
        <time>2014-07-02T07:49:00Z</time>
      </trkpt>
      <trkpt lat="44.8021" lon="3.15719">
        <ele>1168.14</ele>
        <time>2014-07-02T07:49:17Z</time>
      </trkpt>
      <trkpt lat="44.80228" lon="3.15739">
        <ele>1166.7</ele>
        <time>2014-07-02T07:49:35Z</time>
      </trkpt>
      <trkpt lat="44.80245" lon="3.15761">
        <ele>1166.7</ele>
        <time>2014-07-02T07:49:53Z</time>
      </trkpt>
      <trkpt lat="44.80261" lon="3.15785">
        <ele>1166.7</ele>
        <time>2014-07-02T07:50:11Z</time>
      </trkpt>
      <trkpt lat="44.80276" lon="3.15811">
        <ele>1166.7</ele>
        <time>2014-07-02T07:50:31Z</time>
      </trkpt>
      <trkpt lat="44.80289" lon="3.15829">
        <ele>1168.14</ele>
        <time>2014-07-02T07:50:45Z</time>
      </trkpt>
      <trkpt lat="44.80297" lon="3.15843">
        <ele>1166.7</ele>
        <time>2014-07-02T07:50:55Z</time>
      </trkpt>
      <trkpt lat="44.80314" lon="3.15869">
        <ele>1165.26</ele>
        <time>2014-07-02T07:51:15Z</time>
      </trkpt>
      <trkpt lat="44.8033" lon="3.15894">
        <ele>1163.81</ele>
        <time>2014-07-02T07:51:34Z</time>
      </trkpt>
      <trkpt lat="44.80339" lon="3.15904">
        <ele>1163.33</ele>
        <time>2014-07-02T07:51:44Z</time>
      </trkpt>
      <trkpt lat="44.80342" lon="3.15906">
        <ele>1163.33</ele>
        <time>2014-07-02T07:51:47Z</time>
      </trkpt>
      <trkpt lat="44.80361" lon="3.15916">
        <ele>1161.41</ele>
        <time>2014-07-02T07:52:04Z</time>
      </trkpt>
      <trkpt lat="44.80381" lon="3.15925">
        <ele>1160.45</ele>
        <time>2014-07-02T07:52:20Z</time>
      </trkpt>
      <trkpt lat="44.80404" lon="3.15932">
        <ele>1160.45</ele>
        <time>2014-07-02T07:52:38Z</time>
      </trkpt>
      <trkpt lat="44.80405" lon="3.15933">
        <ele>1159.97</ele>
        <time>2014-07-02T07:52:42Z</time>
      </trkpt>
      <trkpt lat="44.80422" lon="3.15932">
        <ele>1159.01</ele>
        <time>2014-07-02T07:52:56Z</time>
      </trkpt>
      <trkpt lat="44.80438" lon="3.15927">
        <ele>1157.56</ele>
        <time>2014-07-02T07:53:10Z</time>
      </trkpt>
      <trkpt lat="44.80457" lon="3.15923">
        <ele>1155.64</ele>
        <time>2014-07-02T07:53:26Z</time>
      </trkpt>
      <trkpt lat="44.80483" lon="3.15922">
        <ele>1152.28</ele>
        <time>2014-07-02T07:53:43Z</time>
      </trkpt>
      <trkpt lat="44.80505" lon="3.15936">
        <ele>1149.39</ele>
        <time>2014-07-02T07:54:00Z</time>
      </trkpt>
      <trkpt lat="44.80511" lon="3.15953">
        <ele>1147.47</ele>
        <time>2014-07-02T07:54:15Z</time>
      </trkpt>
      <trkpt lat="44.80515" lon="3.15955">
        <ele>1147.47</ele>
        <time>2014-07-02T07:54:33Z</time>
      </trkpt>
      <trkpt lat="44.8052" lon="3.15965">
        <ele>1145.55</ele>
        <time>2014-07-02T07:54:42Z</time>
      </trkpt>
      <trkpt lat="44.80524" lon="3.15989">
        <ele>1142.66</ele>
        <time>2014-07-02T07:54:59Z</time>
      </trkpt>
      <trkpt lat="44.80527" lon="3.16024">
        <ele>1140.26</ele>
        <time>2014-07-02T07:55:17Z</time>
      </trkpt>
      <trkpt lat="44.80546" lon="3.16052">
        <ele>1138.82</ele>
        <time>2014-07-02T07:55:36Z</time>
      </trkpt>
      <trkpt lat="44.8057" lon="3.16068">
        <ele>1138.34</ele>
        <time>2014-07-02T07:55:56Z</time>
      </trkpt>
      <trkpt lat="44.80583" lon="3.16098">
        <ele>1138.34</ele>
        <time>2014-07-02T07:56:15Z</time>
      </trkpt>
      <trkpt lat="44.80592" lon="3.16119">
        <ele>1140.26</ele>
        <time>2014-07-02T07:56:28Z</time>
      </trkpt>
      <trkpt lat="44.80604" lon="3.16149">
        <ele>1141.22</ele>
        <time>2014-07-02T07:56:47Z</time>
      </trkpt>
      <trkpt lat="44.80616" lon="3.16178">
        <ele>1142.18</ele>
        <time>2014-07-02T07:57:05Z</time>
      </trkpt>
      <trkpt lat="44.80626" lon="3.16206">
        <ele>1143.63</ele>
        <time>2014-07-02T07:57:23Z</time>
      </trkpt>
      <trkpt lat="44.80635" lon="3.16234">
        <ele>1145.07</ele>
        <time>2014-07-02T07:57:41Z</time>
      </trkpt>
      <trkpt lat="44.80648" lon="3.16262">
        <ele>1146.51</ele>
        <time>2014-07-02T07:58:00Z</time>
      </trkpt>
      <trkpt lat="44.80668" lon="3.16275">
        <ele>1147.47</ele>
        <time>2014-07-02T07:58:17Z</time>
      </trkpt>
      <trkpt lat="44.80688" lon="3.16286">
        <ele>1147.95</ele>
        <time>2014-07-02T07:58:34Z</time>
      </trkpt>
      <trkpt lat="44.8071" lon="3.16298">
        <ele>1148.43</ele>
        <time>2014-07-02T07:58:52Z</time>
      </trkpt>
      <trkpt lat="44.80733" lon="3.16307">
        <ele>1148.43</ele>
        <time>2014-07-02T07:59:10Z</time>
      </trkpt>
      <trkpt lat="44.80757" lon="3.16313">
        <ele>1148.91</ele>
        <time>2014-07-02T07:59:29Z</time>
      </trkpt>
      <trkpt lat="44.80781" lon="3.16319">
        <ele>1149.39</ele>
        <time>2014-07-02T07:59:47Z</time>
      </trkpt>
      <trkpt lat="44.80806" lon="3.16326">
        <ele>1149.39</ele>
        <time>2014-07-02T08:00:06Z</time>
      </trkpt>
      <trkpt lat="44.80826" lon="3.1633">
        <ele>1148.43</ele>
        <time>2014-07-02T08:00:23Z</time>
      </trkpt>
      <trkpt lat="44.80848" lon="3.1634">
        <ele>1147.47</ele>
        <time>2014-07-02T08:00:41Z</time>
      </trkpt>
      <trkpt lat="44.80866" lon="3.16357">
        <ele>1146.03</ele>
        <time>2014-07-02T08:00:59Z</time>
      </trkpt>
      <trkpt lat="44.80877" lon="3.16369">
        <ele>1145.55</ele>
        <time>2014-07-02T08:01:13Z</time>
      </trkpt>
      <trkpt lat="44.80881" lon="3.16374">
        <ele>1145.07</ele>
        <time>2014-07-02T08:01:29Z</time>
      </trkpt>
      <trkpt lat="44.80896" lon="3.16386">
        <ele>1144.11</ele>
        <time>2014-07-02T08:01:43Z</time>
      </trkpt>
      <trkpt lat="44.8092" lon="3.16406">
        <ele>1143.63</ele>
        <time>2014-07-02T08:02:02Z</time>
      </trkpt>
      <trkpt lat="44.80934" lon="3.16419">
        <ele>1142.18</ele>
        <time>2014-07-02T08:02:14Z</time>
      </trkpt>
      <trkpt lat="44.80954" lon="3.16436">
        <ele>1140.74</ele>
        <time>2014-07-02T08:02:31Z</time>
      </trkpt>
      <trkpt lat="44.80967" lon="3.16461">
        <ele>1139.3</ele>
        <time>2014-07-02T08:02:47Z</time>
      </trkpt>
      <trkpt lat="44.80977" lon="3.16487">
        <ele>1137.86</ele>
        <time>2014-07-02T08:03:03Z</time>
      </trkpt>
      <trkpt lat="44.80991" lon="3.16513">
        <ele>1137.86</ele>
        <time>2014-07-02T08:03:19Z</time>
      </trkpt>
      <trkpt lat="44.81007" lon="3.16541">
        <ele>1137.38</ele>
        <time>2014-07-02T08:03:37Z</time>
      </trkpt>
      <trkpt lat="44.81018" lon="3.16563">
        <ele>1137.38</ele>
        <time>2014-07-02T08:03:51Z</time>
      </trkpt>
      <trkpt lat="44.81035" lon="3.16593">
        <ele>1137.38</ele>
        <time>2014-07-02T08:04:12Z</time>
      </trkpt>
      <trkpt lat="44.81051" lon="3.16617">
        <ele>1135.94</ele>
        <time>2014-07-02T08:04:30Z</time>
      </trkpt>
      <trkpt lat="44.81064" lon="3.16637">
        <ele>1134.97</ele>
        <time>2014-07-02T08:04:45Z</time>
      </trkpt>
      <trkpt lat="44.81078" lon="3.16661">
        <ele>1134.97</ele>
        <time>2014-07-02T08:05:01Z</time>
      </trkpt>
      <trkpt lat="44.81096" lon="3.16683">
        <ele>1134.97</ele>
        <time>2014-07-02T08:05:21Z</time>
      </trkpt>
      <trkpt lat="44.81105" lon="3.16692">
        <ele>1134.97</ele>
        <time>2014-07-02T08:05:29Z</time>
      </trkpt>
      <trkpt lat="44.81103" lon="3.16701">
        <ele>1135.94</ele>
        <time>2014-07-02T08:05:37Z</time>
      </trkpt>
      <trkpt lat="44.81099" lon="3.16702">
        <ele>1136.9</ele>
        <time>2014-07-02T08:05:44Z</time>
      </trkpt>
      <trkpt lat="44.81086" lon="3.16705">
        <ele>1136.9</ele>
        <time>2014-07-02T08:05:56Z</time>
      </trkpt>
      <trkpt lat="44.81077" lon="3.16705">
        <ele>1137.38</ele>
        <time>2014-07-02T08:06:04Z</time>
      </trkpt>
      <trkpt lat="44.81056" lon="3.16707">
        <ele>1137.86</ele>
        <time>2014-07-02T08:06:22Z</time>
      </trkpt>
      <trkpt lat="44.81028" lon="3.16711">
        <ele>1138.82</ele>
        <time>2014-07-02T08:06:44Z</time>
      </trkpt>
      <trkpt lat="44.81009" lon="3.16721">
        <ele>1140.26</ele>
        <time>2014-07-02T08:06:59Z</time>
      </trkpt>
      <trkpt lat="44.80993" lon="3.16733">
        <ele>1140.74</ele>
        <time>2014-07-02T08:07:15Z</time>
      </trkpt>
      <trkpt lat="44.80984" lon="3.16739">
        <ele>1141.7</ele>
        <time>2014-07-02T08:07:24Z</time>
      </trkpt>
      <trkpt lat="44.80975" lon="3.16742">
        <ele>1142.66</ele>
        <time>2014-07-02T08:07:31Z</time>
      </trkpt>
      <trkpt lat="44.80953" lon="3.1675">
        <ele>1143.63</ele>
        <time>2014-07-02T08:07:50Z</time>
      </trkpt>
      <trkpt lat="44.80936" lon="3.16748">
        <ele>1145.07</ele>
        <time>2014-07-02T08:08:04Z</time>
      </trkpt>
      <trkpt lat="44.80914" lon="3.16742">
        <ele>1146.03</ele>
        <time>2014-07-02T08:08:21Z</time>
      </trkpt>
      <trkpt lat="44.80891" lon="3.16733">
        <ele>1147.47</ele>
        <time>2014-07-02T08:08:40Z</time>
      </trkpt>
      <trkpt lat="44.80869" lon="3.16722">
        <ele>1148.43</ele>
        <time>2014-07-02T08:08:59Z</time>
      </trkpt>
      <trkpt lat="44.80867" lon="3.16723">
        <ele>1148.43</ele>
        <time>2014-07-02T08:09:01Z</time>
      </trkpt>
      <trkpt lat="44.80849" lon="3.16712">
        <ele>1149.39</ele>
        <time>2014-07-02T08:09:19Z</time>
      </trkpt>
      <trkpt lat="44.80831" lon="3.16698">
        <ele>1150.35</ele>
        <time>2014-07-02T08:09:36Z</time>
      </trkpt>
      <trkpt lat="44.80815" lon="3.16681">
        <ele>1152.28</ele>
        <time>2014-07-02T08:09:53Z</time>
      </trkpt>
      <trkpt lat="44.80812" lon="3.16674">
        <ele>1152.28</ele>
        <time>2014-07-02T08:09:58Z</time>
      </trkpt>
      <trkpt lat="44.80803" lon="3.16668">
        <ele>1153.24</ele>
        <time>2014-07-02T08:10:11Z</time>
      </trkpt>
      <trkpt lat="44.80787" lon="3.16654">
        <ele>1155.16</ele>
        <time>2014-07-02T08:10:27Z</time>
      </trkpt>
      <trkpt lat="44.80768" lon="3.16649">
        <ele>1157.56</ele>
        <time>2014-07-02T08:10:45Z</time>
      </trkpt>
      <trkpt lat="44.80752" lon="3.16651">
        <ele>1159.97</ele>
        <time>2014-07-02T08:11:00Z</time>
      </trkpt>
      <trkpt lat="44.80737" lon="3.16656">
        <ele>1160.45</ele>
        <time>2014-07-02T08:11:13Z</time>
      </trkpt>
      <trkpt lat="44.80715" lon="3.16665">
        <ele>1161.41</ele>
        <time>2014-07-02T08:11:30Z</time>
      </trkpt>
      <trkpt lat="44.80698" lon="3.16672">
        <ele>1162.37</ele>
        <time>2014-07-02T08:11:45Z</time>
      </trkpt>
      <trkpt lat="44.80678" lon="3.1668">
        <ele>1162.85</ele>
        <time>2014-07-02T08:12:00Z</time>
      </trkpt>
      <trkpt lat="44.80657" lon="3.16687">
        <ele>1162.37</ele>
        <time>2014-07-02T08:12:16Z</time>
      </trkpt>
      <trkpt lat="44.80634" lon="3.16694">
        <ele>1161.89</ele>
        <time>2014-07-02T08:12:35Z</time>
      </trkpt>
      <trkpt lat="44.80612" lon="3.16704">
        <ele>1161.89</ele>
        <time>2014-07-02T08:12:54Z</time>
      </trkpt>
      <trkpt lat="44.80606" lon="3.16708">
        <ele>1163.81</ele>
        <time>2014-07-02T08:13:02Z</time>
      </trkpt>
      <trkpt lat="44.80593" lon="3.16719">
        <ele>1163.33</ele>
        <time>2014-07-02T08:13:15Z</time>
      </trkpt>
      <trkpt lat="44.80573" lon="3.16732">
        <ele>1163.33</ele>
        <time>2014-07-02T08:13:31Z</time>
      </trkpt>
      <trkpt lat="44.80547" lon="3.16748">
        <ele>1163.33</ele>
        <time>2014-07-02T08:13:52Z</time>
      </trkpt>
      <trkpt lat="44.80523" lon="3.1676">
        <ele>1163.81</ele>
        <time>2014-07-02T08:14:12Z</time>
      </trkpt>
      <trkpt lat="44.80501" lon="3.16769">
        <ele>1164.29</ele>
        <time>2014-07-02T08:14:29Z</time>
      </trkpt>
      <trkpt lat="44.80476" lon="3.16781">
        <ele>1164.77</ele>
        <time>2014-07-02T08:14:50Z</time>
      </trkpt>
      <trkpt lat="44.80454" lon="3.16793">
        <ele>1165.74</ele>
        <time>2014-07-02T08:15:08Z</time>
      </trkpt>
      <trkpt lat="44.80434" lon="3.16798">
        <ele>1166.22</ele>
        <time>2014-07-02T08:15:24Z</time>
      </trkpt>
      <trkpt lat="44.80414" lon="3.16803">
        <ele>1167.18</ele>
        <time>2014-07-02T08:15:40Z</time>
      </trkpt>
      <trkpt lat="44.80392" lon="3.16807">
        <ele>1167.18</ele>
        <time>2014-07-02T08:15:57Z</time>
      </trkpt>
      <trkpt lat="44.80368" lon="3.16809">
        <ele>1167.66</ele>
        <time>2014-07-02T08:16:15Z</time>
      </trkpt>
      <trkpt lat="44.80348" lon="3.1681">
        <ele>1168.14</ele>
        <time>2014-07-02T08:16:32Z</time>
      </trkpt>
      <trkpt lat="44.80328" lon="3.16809">
        <ele>1168.14</ele>
        <time>2014-07-02T08:16:48Z</time>
      </trkpt>
      <trkpt lat="44.80316" lon="3.16809">
        <ele>1169.58</ele>
        <time>2014-07-02T08:16:58Z</time>
      </trkpt>
      <trkpt lat="44.80293" lon="3.16811">
        <ele>1170.06</ele>
        <time>2014-07-02T08:17:15Z</time>
      </trkpt>
      <trkpt lat="44.80274" lon="3.16814">
        <ele>1171.02</ele>
        <time>2014-07-02T08:17:31Z</time>
      </trkpt>
      <trkpt lat="44.80248" lon="3.16825">
        <ele>1171.02</ele>
        <time>2014-07-02T08:17:52Z</time>
      </trkpt>
      <trkpt lat="44.80227" lon="3.16838">
        <ele>1172.47</ele>
        <time>2014-07-02T08:18:10Z</time>
      </trkpt>
      <trkpt lat="44.80206" lon="3.16849">
        <ele>1172.95</ele>
        <time>2014-07-02T08:18:28Z</time>
      </trkpt>
      <trkpt lat="44.80185" lon="3.1686">
        <ele>1173.91</ele>
        <time>2014-07-02T08:18:46Z</time>
      </trkpt>
      <trkpt lat="44.80177" lon="3.16866">
        <ele>1174.39</ele>
        <time>2014-07-02T08:18:56Z</time>
      </trkpt>
      <trkpt lat="44.80155" lon="3.16882">
        <ele>1175.35</ele>
        <time>2014-07-02T08:19:15Z</time>
      </trkpt>
      <trkpt lat="44.80141" lon="3.16888">
        <ele>1175.83</ele>
        <time>2014-07-02T08:19:28Z</time>
      </trkpt>
      <trkpt lat="44.80141" lon="3.16889">
        <ele>1176.79</ele>
        <time>2014-07-02T08:19:40Z</time>
      </trkpt>
      <trkpt lat="44.80122" lon="3.16904">
        <ele>1177.27</ele>
        <time>2014-07-02T08:19:57Z</time>
      </trkpt>
      <trkpt lat="44.80102" lon="3.16917">
        <ele>1178.71</ele>
        <time>2014-07-02T08:20:15Z</time>
      </trkpt>
      <trkpt lat="44.80084" lon="3.16928">
        <ele>1179.67</ele>
        <time>2014-07-02T08:20:32Z</time>
      </trkpt>
      <trkpt lat="44.80062" lon="3.16944">
        <ele>1181.12</ele>
        <time>2014-07-02T08:20:53Z</time>
      </trkpt>
      <trkpt lat="44.80043" lon="3.1696">
        <ele>1181.6</ele>
        <time>2014-07-02T08:21:11Z</time>
      </trkpt>
      <trkpt lat="44.80025" lon="3.16974">
        <ele>1182.56</ele>
        <time>2014-07-02T08:21:27Z</time>
      </trkpt>
      <trkpt lat="44.80009" lon="3.16991">
        <ele>1183.04</ele>
        <time>2014-07-02T08:21:42Z</time>
      </trkpt>
      <trkpt lat="44.79992" lon="3.17006">
        <ele>1184.48</ele>
        <time>2014-07-02T08:21:58Z</time>
      </trkpt>
      <trkpt lat="44.79973" lon="3.17024">
        <ele>1184.48</ele>
        <time>2014-07-02T08:22:16Z</time>
      </trkpt>
      <trkpt lat="44.79957" lon="3.1704">
        <ele>1185.44</ele>
        <time>2014-07-02T08:22:32Z</time>
      </trkpt>
      <trkpt lat="44.79936" lon="3.17059">
        <ele>1186.4</ele>
        <time>2014-07-02T08:22:49Z</time>
      </trkpt>
      <trkpt lat="44.79915" lon="3.1707">
        <ele>1187.37</ele>
        <time>2014-07-02T08:23:08Z</time>
      </trkpt>
      <trkpt lat="44.79897" lon="3.17078">
        <ele>1188.81</ele>
        <time>2014-07-02T08:23:23Z</time>
      </trkpt>
      <trkpt lat="44.79876" lon="3.17088">
        <ele>1189.77</ele>
        <time>2014-07-02T08:23:40Z</time>
      </trkpt>
      <trkpt lat="44.79854" lon="3.17098">
        <ele>1189.77</ele>
        <time>2014-07-02T08:23:58Z</time>
      </trkpt>
      <trkpt lat="44.79832" lon="3.17111">
        <ele>1189.77</ele>
        <time>2014-07-02T08:24:16Z</time>
      </trkpt>
      <trkpt lat="44.79812" lon="3.17126">
        <ele>1189.77</ele>
        <time>2014-07-02T08:24:33Z</time>
      </trkpt>
      <trkpt lat="44.79796" lon="3.17136">
        <ele>1190.25</ele>
        <time>2014-07-02T08:24:46Z</time>
      </trkpt>
      <trkpt lat="44.79777" lon="3.17147">
        <ele>1190.73</ele>
        <time>2014-07-02T08:25:01Z</time>
      </trkpt>
      <trkpt lat="44.79762" lon="3.17154">
        <ele>1190.73</ele>
        <time>2014-07-02T08:25:12Z</time>
      </trkpt>
      <trkpt lat="44.79758" lon="3.17157">
        <ele>1190.73</ele>
        <time>2014-07-02T08:25:16Z</time>
      </trkpt>
      <trkpt lat="44.79735" lon="3.17174">
        <ele>1191.69</ele>
        <time>2014-07-02T08:25:35Z</time>
      </trkpt>
      <trkpt lat="44.79718" lon="3.17184">
        <ele>1192.17</ele>
        <time>2014-07-02T08:25:50Z</time>
      </trkpt>
      <trkpt lat="44.79696" lon="3.17195">
        <ele>1193.61</ele>
        <time>2014-07-02T08:26:09Z</time>
      </trkpt>
      <trkpt lat="44.79677" lon="3.17203">
        <ele>1193.61</ele>
        <time>2014-07-02T08:26:26Z</time>
      </trkpt>
      <trkpt lat="44.79663" lon="3.17212">
        <ele>1194.58</ele>
        <time>2014-07-02T08:26:38Z</time>
      </trkpt>
      <trkpt lat="44.79643" lon="3.17226">
        <ele>1196.02</ele>
        <time>2014-07-02T08:26:55Z</time>
      </trkpt>
      <trkpt lat="44.79624" lon="3.1724">
        <ele>1197.94</ele>
        <time>2014-07-02T08:27:11Z</time>
      </trkpt>
      <trkpt lat="44.79617" lon="3.17245">
        <ele>1197.94</ele>
        <time>2014-07-02T08:27:17Z</time>
      </trkpt>
      <trkpt lat="44.796" lon="3.1726">
        <ele>1197.94</ele>
        <time>2014-07-02T08:27:34Z</time>
      </trkpt>
      <trkpt lat="44.79582" lon="3.17272">
        <ele>1198.42</ele>
        <time>2014-07-02T08:27:49Z</time>
      </trkpt>
      <trkpt lat="44.7956" lon="3.17282">
        <ele>1199.38</ele>
        <time>2014-07-02T08:28:05Z</time>
      </trkpt>
      <trkpt lat="44.79542" lon="3.1729">
        <ele>1200.34</ele>
        <time>2014-07-02T08:28:22Z</time>
      </trkpt>
      <trkpt lat="44.79524" lon="3.17296">
        <ele>1201.79</ele>
        <time>2014-07-02T08:28:38Z</time>
      </trkpt>
      <trkpt lat="44.79503" lon="3.17299">
        <ele>1202.75</ele>
        <time>2014-07-02T08:28:53Z</time>
      </trkpt>
      <trkpt lat="44.79478" lon="3.17301">
        <ele>1204.19</ele>
        <time>2014-07-02T08:29:10Z</time>
      </trkpt>
      <trkpt lat="44.79452" lon="3.17297">
        <ele>1204.67</ele>
        <time>2014-07-02T08:29:30Z</time>
      </trkpt>
      <trkpt lat="44.79431" lon="3.17295">
        <ele>1205.63</ele>
        <time>2014-07-02T08:29:48Z</time>
      </trkpt>
      <trkpt lat="44.79423" lon="3.17296">
        <ele>1206.11</ele>
        <time>2014-07-02T08:29:55Z</time>
      </trkpt>
      <trkpt lat="44.79408" lon="3.17297">
        <ele>1207.07</ele>
        <time>2014-07-02T08:30:09Z</time>
      </trkpt>
      <trkpt lat="44.79384" lon="3.17296">
        <ele>1207.55</ele>
        <time>2014-07-02T08:30:26Z</time>
      </trkpt>
      <trkpt lat="44.79361" lon="3.17295">
        <ele>1208.03</ele>
        <time>2014-07-02T08:30:44Z</time>
      </trkpt>
      <trkpt lat="44.79336" lon="3.17296">
        <ele>1208.51</ele>
        <time>2014-07-02T08:31:04Z</time>
      </trkpt>
      <trkpt lat="44.79311" lon="3.17298">
        <ele>1209</ele>
        <time>2014-07-02T08:31:21Z</time>
      </trkpt>
      <trkpt lat="44.7929" lon="3.173">
        <ele>1209.96</ele>
        <time>2014-07-02T08:31:38Z</time>
      </trkpt>
      <trkpt lat="44.79273" lon="3.17299">
        <ele>1210.92</ele>
        <time>2014-07-02T08:31:53Z</time>
      </trkpt>
      <trkpt lat="44.79253" lon="3.17295">
        <ele>1210.44</ele>
        <time>2014-07-02T08:32:08Z</time>
      </trkpt>
      <trkpt lat="44.79227" lon="3.17297">
        <ele>1210.44</ele>
        <time>2014-07-02T08:32:26Z</time>
      </trkpt>
      <trkpt lat="44.79203" lon="3.17302">
        <ele>1211.4</ele>
        <time>2014-07-02T08:32:44Z</time>
      </trkpt>
      <trkpt lat="44.79192" lon="3.17304">
        <ele>1211.4</ele>
        <time>2014-07-02T08:32:52Z</time>
      </trkpt>
      <trkpt lat="44.79172" lon="3.17309">
        <ele>1212.36</ele>
        <time>2014-07-02T08:33:08Z</time>
      </trkpt>
      <trkpt lat="44.79149" lon="3.17312">
        <ele>1212.84</ele>
        <time>2014-07-02T08:33:26Z</time>
      </trkpt>
      <trkpt lat="44.7913" lon="3.1731">
        <ele>1214.28</ele>
        <time>2014-07-02T08:33:41Z</time>
      </trkpt>
      <trkpt lat="44.79108" lon="3.17308">
        <ele>1214.28</ele>
        <time>2014-07-02T08:33:59Z</time>
      </trkpt>
      <trkpt lat="44.79099" lon="3.17309">
        <ele>1212.84</ele>
        <time>2014-07-02T08:34:06Z</time>
      </trkpt>
      <trkpt lat="44.79075" lon="3.17313">
        <ele>1212.84</ele>
        <time>2014-07-02T08:34:24Z</time>
      </trkpt>
      <trkpt lat="44.79053" lon="3.1732">
        <ele>1212.36</ele>
        <time>2014-07-02T08:34:42Z</time>
      </trkpt>
      <trkpt lat="44.79029" lon="3.17326">
        <ele>1212.36</ele>
        <time>2014-07-02T08:34:59Z</time>
      </trkpt>
      <trkpt lat="44.79006" lon="3.17334">
        <ele>1212.36</ele>
        <time>2014-07-02T08:35:17Z</time>
      </trkpt>
      <trkpt lat="44.7898" lon="3.17343">
        <ele>1211.88</ele>
        <time>2014-07-02T08:35:38Z</time>
      </trkpt>
      <trkpt lat="44.78955" lon="3.17352">
        <ele>1210.92</ele>
        <time>2014-07-02T08:35:57Z</time>
      </trkpt>
      <trkpt lat="44.78927" lon="3.17362">
        <ele>1210.44</ele>
        <time>2014-07-02T08:36:19Z</time>
      </trkpt>
      <trkpt lat="44.78909" lon="3.1737">
        <ele>1211.88</ele>
        <time>2014-07-02T08:36:37Z</time>
      </trkpt>
      <trkpt lat="44.78909" lon="3.1737">
        <ele>1211.88</ele>
        <time>2014-07-02T08:37:03Z</time>
      </trkpt>
      <trkpt lat="44.78902" lon="3.17373">
        <ele>1211.88</ele>
        <time>2014-07-02T08:37:14Z</time>
      </trkpt>
      <trkpt lat="44.78897" lon="3.17374">
        <ele>1211.88</ele>
        <time>2014-07-02T08:37:19Z</time>
      </trkpt>
      <trkpt lat="44.78891" lon="3.17376">
        <ele>1211.88</ele>
        <time>2014-07-02T08:37:24Z</time>
      </trkpt>
      <trkpt lat="44.78862" lon="3.17384">
        <ele>1212.36</ele>
        <time>2014-07-02T08:37:43Z</time>
      </trkpt>
      <trkpt lat="44.78839" lon="3.17395">
        <ele>1212.36</ele>
        <time>2014-07-02T08:38:01Z</time>
      </trkpt>
      <trkpt lat="44.78815" lon="3.17405">
        <ele>1212.36</ele>
        <time>2014-07-02T08:38:21Z</time>
      </trkpt>
      <trkpt lat="44.78803" lon="3.17409">
        <ele>1212.36</ele>
        <time>2014-07-02T08:38:34Z</time>
      </trkpt>
      <trkpt lat="44.78795" lon="3.17409">
        <ele>1212.36</ele>
        <time>2014-07-02T08:38:45Z</time>
      </trkpt>
      <trkpt lat="44.78792" lon="3.17409">
        <ele>1212.84</ele>
        <time>2014-07-02T08:38:59Z</time>
      </trkpt>
      <trkpt lat="44.78789" lon="3.17411">
        <ele>1212.84</ele>
        <time>2014-07-02T08:39:12Z</time>
      </trkpt>
      <trkpt lat="44.78772" lon="3.17416">
        <ele>1212.84</ele>
        <time>2014-07-02T08:39:28Z</time>
      </trkpt>
      <trkpt lat="44.78757" lon="3.17421">
        <ele>1212.84</ele>
        <time>2014-07-02T08:39:38Z</time>
      </trkpt>
      <trkpt lat="44.78752" lon="3.17422">
        <ele>1212.84</ele>
        <time>2014-07-02T08:39:43Z</time>
      </trkpt>
      <trkpt lat="44.78736" lon="3.17431">
        <ele>1212.84</ele>
        <time>2014-07-02T08:39:58Z</time>
      </trkpt>
      <trkpt lat="44.78718" lon="3.17446">
        <ele>1213.32</ele>
        <time>2014-07-02T08:40:15Z</time>
      </trkpt>
      <trkpt lat="44.78704" lon="3.17463">
        <ele>1213.8</ele>
        <time>2014-07-02T08:40:30Z</time>
      </trkpt>
      <trkpt lat="44.78689" lon="3.17484">
        <ele>1213.8</ele>
        <time>2014-07-02T08:40:47Z</time>
      </trkpt>
      <trkpt lat="44.78675" lon="3.17502">
        <ele>1214.28</ele>
        <time>2014-07-02T08:41:03Z</time>
      </trkpt>
      <trkpt lat="44.78662" lon="3.17521">
        <ele>1214.76</ele>
        <time>2014-07-02T08:41:19Z</time>
      </trkpt>
      <trkpt lat="44.78647" lon="3.17546">
        <ele>1215.72</ele>
        <time>2014-07-02T08:41:37Z</time>
      </trkpt>
      <trkpt lat="44.78632" lon="3.17568">
        <ele>1216.69</ele>
        <time>2014-07-02T08:41:54Z</time>
      </trkpt>
      <trkpt lat="44.78617" lon="3.17588">
        <ele>1216.69</ele>
        <time>2014-07-02T08:42:09Z</time>
      </trkpt>
      <trkpt lat="44.78603" lon="3.17615">
        <ele>1216.69</ele>
        <time>2014-07-02T08:42:28Z</time>
      </trkpt>
      <trkpt lat="44.78592" lon="3.17634">
        <ele>1216.69</ele>
        <time>2014-07-02T08:42:41Z</time>
      </trkpt>
      <trkpt lat="44.78579" lon="3.17654">
        <ele>1216.21</ele>
        <time>2014-07-02T08:42:57Z</time>
      </trkpt>
      <trkpt lat="44.7856" lon="3.17675">
        <ele>1216.21</ele>
        <time>2014-07-02T08:43:16Z</time>
      </trkpt>
      <trkpt lat="44.78545" lon="3.17697">
        <ele>1216.21</ele>
        <time>2014-07-02T08:43:33Z</time>
      </trkpt>
      <trkpt lat="44.78544" lon="3.17704">
        <ele>1216.21</ele>
        <time>2014-07-02T08:43:49Z</time>
      </trkpt>
      <trkpt lat="44.78545" lon="3.17703">
        <ele>1216.21</ele>
        <time>2014-07-02T08:44:13Z</time>
      </trkpt>
      <trkpt lat="44.78545" lon="3.17701">
        <ele>1216.21</ele>
        <time>2014-07-02T08:44:23Z</time>
      </trkpt>
      <trkpt lat="44.78544" lon="3.17703">
        <ele>1216.69</ele>
        <time>2014-07-02T08:44:35Z</time>
      </trkpt>
      <trkpt lat="44.7854" lon="3.17701">
        <ele>1217.17</ele>
        <time>2014-07-02T08:44:59Z</time>
      </trkpt>
      <trkpt lat="44.78541" lon="3.17701">
        <ele>1217.17</ele>
        <time>2014-07-02T08:45:17Z</time>
      </trkpt>
      <trkpt lat="44.7854" lon="3.17699">
        <ele>1217.17</ele>
        <time>2014-07-02T08:45:53Z</time>
      </trkpt>
      <trkpt lat="44.78542" lon="3.177">
        <ele>1217.17</ele>
        <time>2014-07-02T08:46:14Z</time>
      </trkpt>
      <trkpt lat="44.78541" lon="3.17699">
        <ele>1217.65</ele>
        <time>2014-07-02T08:46:27Z</time>
      </trkpt>
      <trkpt lat="44.78543" lon="3.17698">
        <ele>1217.65</ele>
        <time>2014-07-02T08:46:42Z</time>
      </trkpt>
      <trkpt lat="44.78544" lon="3.177">
        <ele>1217.65</ele>
        <time>2014-07-02T08:47:06Z</time>
      </trkpt>
      <trkpt lat="44.78546" lon="3.17699">
        <ele>1217.65</ele>
        <time>2014-07-02T08:47:37Z</time>
      </trkpt>
      <trkpt lat="44.78545" lon="3.17696">
        <ele>1217.65</ele>
        <time>2014-07-02T08:48:08Z</time>
      </trkpt>
      <trkpt lat="44.78541" lon="3.177">
        <ele>1218.13</ele>
        <time>2014-07-02T08:48:30Z</time>
      </trkpt>
      <trkpt lat="44.78544" lon="3.177">
        <ele>1218.13</ele>
        <time>2014-07-02T08:48:50Z</time>
      </trkpt>
      <trkpt lat="44.78543" lon="3.177">
        <ele>1218.13</ele>
        <time>2014-07-02T08:49:15Z</time>
      </trkpt>
      <trkpt lat="44.78546" lon="3.17704">
        <ele>1218.13</ele>
        <time>2014-07-02T08:49:31Z</time>
      </trkpt>
      <trkpt lat="44.78545" lon="3.17707">
        <ele>1218.13</ele>
        <time>2014-07-02T08:50:03Z</time>
      </trkpt>
      <trkpt lat="44.78543" lon="3.17705">
        <ele>1218.13</ele>
        <time>2014-07-02T08:50:17Z</time>
      </trkpt>
      <trkpt lat="44.78542" lon="3.17703">
        <ele>1218.13</ele>
        <time>2014-07-02T08:50:36Z</time>
      </trkpt>
      <trkpt lat="44.78541" lon="3.17704">
        <ele>1218.13</ele>
        <time>2014-07-02T08:51:01Z</time>
      </trkpt>
      <trkpt lat="44.78542" lon="3.17701">
        <ele>1218.13</ele>
        <time>2014-07-02T08:51:24Z</time>
      </trkpt>
      <trkpt lat="44.78541" lon="3.177">
        <ele>1218.61</ele>
        <time>2014-07-02T08:51:41Z</time>
      </trkpt>
      <trkpt lat="44.78542" lon="3.177">
        <ele>1218.61</ele>
        <time>2014-07-02T08:51:58Z</time>
      </trkpt>
      <trkpt lat="44.78543" lon="3.17703">
        <ele>1218.61</ele>
        <time>2014-07-02T08:52:09Z</time>
      </trkpt>
      <trkpt lat="44.78545" lon="3.17701">
        <ele>1217.65</ele>
        <time>2014-07-02T08:52:32Z</time>
      </trkpt>
      <trkpt lat="44.78545" lon="3.17697">
        <ele>1217.65</ele>
        <time>2014-07-02T08:52:43Z</time>
      </trkpt>
      <trkpt lat="44.78544" lon="3.17697">
        <ele>1217.65</ele>
        <time>2014-07-02T08:53:01Z</time>
      </trkpt>
      <trkpt lat="44.78544" lon="3.17695">
        <ele>1217.17</ele>
        <time>2014-07-02T08:53:25Z</time>
      </trkpt>
      <trkpt lat="44.78544" lon="3.17695">
        <ele>1217.17</ele>
        <time>2014-07-02T08:53:47Z</time>
      </trkpt>
      <trkpt lat="44.78541" lon="3.17703">
        <ele>1217.17</ele>
        <time>2014-07-02T08:53:56Z</time>
      </trkpt>
      <trkpt lat="44.78529" lon="3.17727">
        <ele>1216.21</ele>
        <time>2014-07-02T08:54:14Z</time>
      </trkpt>
      <trkpt lat="44.78518" lon="3.17752">
        <ele>1216.21</ele>
        <time>2014-07-02T08:54:31Z</time>
      </trkpt>
      <trkpt lat="44.78509" lon="3.17777">
        <ele>1216.21</ele>
        <time>2014-07-02T08:54:47Z</time>
      </trkpt>
      <trkpt lat="44.78495" lon="3.17807">
        <ele>1216.21</ele>
        <time>2014-07-02T08:55:07Z</time>
      </trkpt>
      <trkpt lat="44.78483" lon="3.17838">
        <ele>1216.21</ele>
        <time>2014-07-02T08:55:26Z</time>
      </trkpt>
      <trkpt lat="44.78474" lon="3.1787">
        <ele>1216.21</ele>
        <time>2014-07-02T08:55:46Z</time>
      </trkpt>
      <trkpt lat="44.78464" lon="3.17898">
        <ele>1215.24</ele>
        <time>2014-07-02T08:56:05Z</time>
      </trkpt>
      <trkpt lat="44.7845" lon="3.17925">
        <ele>1214.28</ele>
        <time>2014-07-02T08:56:24Z</time>
      </trkpt>
      <trkpt lat="44.78432" lon="3.17951">
        <ele>1213.32</ele>
        <time>2014-07-02T08:56:44Z</time>
      </trkpt>
      <trkpt lat="44.78416" lon="3.1798">
        <ele>1213.32</ele>
        <time>2014-07-02T08:57:05Z</time>
      </trkpt>
      <trkpt lat="44.78406" lon="3.18008">
        <ele>1213.32</ele>
        <time>2014-07-02T08:57:23Z</time>
      </trkpt>
      <trkpt lat="44.78398" lon="3.18036">
        <ele>1212.84</ele>
        <time>2014-07-02T08:57:40Z</time>
      </trkpt>
      <trkpt lat="44.78395" lon="3.18045">
        <ele>1212.84</ele>
        <time>2014-07-02T08:57:46Z</time>
      </trkpt>
      <trkpt lat="44.78387" lon="3.18071">
        <ele>1212.36</ele>
        <time>2014-07-02T08:58:02Z</time>
      </trkpt>
      <trkpt lat="44.78377" lon="3.18097">
        <ele>1212.36</ele>
        <time>2014-07-02T08:58:19Z</time>
      </trkpt>
      <trkpt lat="44.78368" lon="3.18119">
        <ele>1212.36</ele>
        <time>2014-07-02T08:58:34Z</time>
      </trkpt>
      <trkpt lat="44.78358" lon="3.18146">
        <ele>1211.88</ele>
        <time>2014-07-02T08:58:52Z</time>
      </trkpt>
      <trkpt lat="44.78348" lon="3.18172">
        <ele>1213.32</ele>
        <time>2014-07-02T08:59:08Z</time>
      </trkpt>
      <trkpt lat="44.78339" lon="3.18196">
        <ele>1212.84</ele>
        <time>2014-07-02T08:59:24Z</time>
      </trkpt>
      <trkpt lat="44.78329" lon="3.1822">
        <ele>1213.8</ele>
        <time>2014-07-02T08:59:39Z</time>
      </trkpt>
      <trkpt lat="44.78316" lon="3.18257">
        <ele>1214.76</ele>
        <time>2014-07-02T09:00:01Z</time>
      </trkpt>
      <trkpt lat="44.78316" lon="3.18258">
        <ele>1214.76</ele>
        <time>2014-07-02T09:00:02Z</time>
      </trkpt>
      <trkpt lat="44.78306" lon="3.18283">
        <ele>1214.76</ele>
        <time>2014-07-02T09:00:18Z</time>
      </trkpt>
      <trkpt lat="44.78297" lon="3.18314">
        <ele>1215.24</ele>
        <time>2014-07-02T09:00:35Z</time>
      </trkpt>
      <trkpt lat="44.78294" lon="3.18326">
        <ele>1215.72</ele>
        <time>2014-07-02T09:00:42Z</time>
      </trkpt>
      <trkpt lat="44.78284" lon="3.18353">
        <ele>1216.21</ele>
        <time>2014-07-02T09:00:58Z</time>
      </trkpt>
      <trkpt lat="44.7827" lon="3.18377">
        <ele>1216.69</ele>
        <time>2014-07-02T09:01:15Z</time>
      </trkpt>
      <trkpt lat="44.78255" lon="3.18395">
        <ele>1216.69</ele>
        <time>2014-07-02T09:01:32Z</time>
      </trkpt>
      <trkpt lat="44.78242" lon="3.1841">
        <ele>1217.17</ele>
        <time>2014-07-02T09:01:44Z</time>
      </trkpt>
      <trkpt lat="44.78227" lon="3.18434">
        <ele>1217.65</ele>
        <time>2014-07-02T09:02:01Z</time>
      </trkpt>
      <trkpt lat="44.78224" lon="3.18444">
        <ele>1217.65</ele>
        <time>2014-07-02T09:02:07Z</time>
      </trkpt>
      <trkpt lat="44.78216" lon="3.18477">
        <ele>1218.13</ele>
        <time>2014-07-02T09:02:26Z</time>
      </trkpt>
      <trkpt lat="44.78199" lon="3.18504">
        <ele>1218.13</ele>
        <time>2014-07-02T09:02:46Z</time>
      </trkpt>
      <trkpt lat="44.78187" lon="3.18527">
        <ele>1215.72</ele>
        <time>2014-07-02T09:03:02Z</time>
      </trkpt>
      <trkpt lat="44.78177" lon="3.18549">
        <ele>1214.76</ele>
        <time>2014-07-02T09:03:19Z</time>
      </trkpt>
      <trkpt lat="44.78173" lon="3.18559">
        <ele>1214.28</ele>
        <time>2014-07-02T09:03:29Z</time>
      </trkpt>
      <trkpt lat="44.78161" lon="3.18585">
        <ele>1214.28</ele>
        <time>2014-07-02T09:03:47Z</time>
      </trkpt>
      <trkpt lat="44.7815" lon="3.18614">
        <ele>1213.32</ele>
        <time>2014-07-02T09:04:06Z</time>
      </trkpt>
      <trkpt lat="44.78146" lon="3.18617">
        <ele>1213.32</ele>
        <time>2014-07-02T09:04:22Z</time>
      </trkpt>
      <trkpt lat="44.78145" lon="3.18619">
        <ele>1213.32</ele>
        <time>2014-07-02T09:04:34Z</time>
      </trkpt>
      <trkpt lat="44.78148" lon="3.18614">
        <ele>1213.32</ele>
        <time>2014-07-02T09:04:50Z</time>
      </trkpt>
      <trkpt lat="44.78146" lon="3.18611">
        <ele>1213.32</ele>
        <time>2014-07-02T09:05:05Z</time>
      </trkpt>
      <trkpt lat="44.78145" lon="3.18606">
        <ele>1213.32</ele>
        <time>2014-07-02T09:05:13Z</time>
      </trkpt>
      <trkpt lat="44.78144" lon="3.18604">
        <ele>1213.32</ele>
        <time>2014-07-02T09:05:16Z</time>
      </trkpt>
      <trkpt lat="44.78143" lon="3.18599">
        <ele>1213.32</ele>
        <time>2014-07-02T09:05:19Z</time>
      </trkpt>
      <trkpt lat="44.78142" lon="3.18574">
        <ele>1213.32</ele>
        <time>2014-07-02T09:05:37Z</time>
      </trkpt>
      <trkpt lat="44.78141" lon="3.18558">
        <ele>1213.8</ele>
        <time>2014-07-02T09:05:52Z</time>
      </trkpt>
      <trkpt lat="44.78141" lon="3.18556">
        <ele>1213.8</ele>
        <time>2014-07-02T09:05:53Z</time>
      </trkpt>
      <trkpt lat="44.7814" lon="3.18527">
        <ele>1214.76</ele>
        <time>2014-07-02T09:06:08Z</time>
      </trkpt>
      <trkpt lat="44.78136" lon="3.18492">
        <ele>1214.76</ele>
        <time>2014-07-02T09:06:26Z</time>
      </trkpt>
      <trkpt lat="44.78128" lon="3.18463">
        <ele>1213.32</ele>
        <time>2014-07-02T09:06:44Z</time>
      </trkpt>
      <trkpt lat="44.78127" lon="3.18464">
        <ele>1213.32</ele>
        <time>2014-07-02T09:06:45Z</time>
      </trkpt>
      <trkpt lat="44.78126" lon="3.18464">
        <ele>1213.32</ele>
        <time>2014-07-02T09:06:46Z</time>
      </trkpt>
      <trkpt lat="44.78118" lon="3.18472">
        <ele>1213.32</ele>
        <time>2014-07-02T09:06:54Z</time>
      </trkpt>
      <trkpt lat="44.78104" lon="3.18497">
        <ele>1213.32</ele>
        <time>2014-07-02T09:07:11Z</time>
      </trkpt>
      <trkpt lat="44.7809" lon="3.18525">
        <ele>1215.24</ele>
        <time>2014-07-02T09:07:31Z</time>
      </trkpt>
      <trkpt lat="44.78088" lon="3.18528">
        <ele>1212.84</ele>
        <time>2014-07-02T09:07:34Z</time>
      </trkpt>
      <trkpt lat="44.78071" lon="3.18554">
        <ele>1212.84</ele>
        <time>2014-07-02T09:07:53Z</time>
      </trkpt>
      <trkpt lat="44.78055" lon="3.18573">
        <ele>1212.84</ele>
        <time>2014-07-02T09:08:11Z</time>
      </trkpt>
      <trkpt lat="44.78039" lon="3.18586">
        <ele>1212.84</ele>
        <time>2014-07-02T09:08:28Z</time>
      </trkpt>
      <trkpt lat="44.78035" lon="3.1859">
        <ele>1212.84</ele>
        <time>2014-07-02T09:08:43Z</time>
      </trkpt>
      <trkpt lat="44.78029" lon="3.18592">
        <ele>1212.84</ele>
        <time>2014-07-02T09:08:56Z</time>
      </trkpt>
      <trkpt lat="44.78024" lon="3.18595">
        <ele>1212.84</ele>
        <time>2014-07-02T09:09:01Z</time>
      </trkpt>
      <trkpt lat="44.78007" lon="3.18602">
        <ele>1212.84</ele>
        <time>2014-07-02T09:09:16Z</time>
      </trkpt>
      <trkpt lat="44.77991" lon="3.18611">
        <ele>1212.84</ele>
        <time>2014-07-02T09:09:31Z</time>
      </trkpt>
      <trkpt lat="44.77973" lon="3.18614">
        <ele>1214.76</ele>
        <time>2014-07-02T09:09:45Z</time>
      </trkpt>
      <trkpt lat="44.77954" lon="3.18619">
        <ele>1215.72</ele>
        <time>2014-07-02T09:10:00Z</time>
      </trkpt>
      <trkpt lat="44.7793" lon="3.18624">
        <ele>1216.21</ele>
        <time>2014-07-02T09:10:18Z</time>
      </trkpt>
      <trkpt lat="44.7791" lon="3.1863">
        <ele>1216.21</ele>
        <time>2014-07-02T09:10:35Z</time>
      </trkpt>
      <trkpt lat="44.77908" lon="3.18631">
        <ele>1216.21</ele>
        <time>2014-07-02T09:10:36Z</time>
      </trkpt>
      <trkpt lat="44.77888" lon="3.18637">
        <ele>1216.69</ele>
        <time>2014-07-02T09:10:53Z</time>
      </trkpt>
      <trkpt lat="44.77869" lon="3.18646">
        <ele>1217.17</ele>
        <time>2014-07-02T09:11:08Z</time>
      </trkpt>
      <trkpt lat="44.77851" lon="3.18653">
        <ele>1217.65</ele>
        <time>2014-07-02T09:11:22Z</time>
      </trkpt>
      <trkpt lat="44.77834" lon="3.18663">
        <ele>1218.13</ele>
        <time>2014-07-02T09:11:36Z</time>
      </trkpt>
      <trkpt lat="44.77814" lon="3.18674">
        <ele>1218.61</ele>
        <time>2014-07-02T09:11:52Z</time>
      </trkpt>
      <trkpt lat="44.77801" lon="3.18682">
        <ele>1218.61</ele>
        <time>2014-07-02T09:12:04Z</time>
      </trkpt>
      <trkpt lat="44.77795" lon="3.18684">
        <ele>1218.61</ele>
        <time>2014-07-02T09:12:08Z</time>
      </trkpt>
      <trkpt lat="44.77778" lon="3.1869">
        <ele>1219.09</ele>
        <time>2014-07-02T09:12:22Z</time>
      </trkpt>
      <trkpt lat="44.77773" lon="3.18692">
        <ele>1219.09</ele>
        <time>2014-07-02T09:12:26Z</time>
      </trkpt>
      <trkpt lat="44.77766" lon="3.18694">
        <ele>1219.57</ele>
        <time>2014-07-02T09:12:31Z</time>
      </trkpt>
      <trkpt lat="44.77756" lon="3.18698">
        <ele>1220.05</ele>
        <time>2014-07-02T09:12:40Z</time>
      </trkpt>
      <trkpt lat="44.7775" lon="3.18699">
        <ele>1220.05</ele>
        <time>2014-07-02T09:12:45Z</time>
      </trkpt>
      <trkpt lat="44.77733" lon="3.18705">
        <ele>1220.53</ele>
        <time>2014-07-02T09:12:59Z</time>
      </trkpt>
      <trkpt lat="44.77728" lon="3.18707">
        <ele>1220.53</ele>
        <time>2014-07-02T09:13:03Z</time>
      </trkpt>
      <trkpt lat="44.77713" lon="3.18716">
        <ele>1220.53</ele>
        <time>2014-07-02T09:13:17Z</time>
      </trkpt>
      <trkpt lat="44.77706" lon="3.18722">
        <ele>1220.53</ele>
        <time>2014-07-02T09:13:24Z</time>
      </trkpt>
      <trkpt lat="44.77701" lon="3.18724">
        <ele>1221.01</ele>
        <time>2014-07-02T09:13:28Z</time>
      </trkpt>
      <trkpt lat="44.77698" lon="3.18727">
        <ele>1221.01</ele>
        <time>2014-07-02T09:13:31Z</time>
      </trkpt>
      <trkpt lat="44.77684" lon="3.18743">
        <ele>1221.49</ele>
        <time>2014-07-02T09:13:46Z</time>
      </trkpt>
      <trkpt lat="44.77667" lon="3.18758">
        <ele>1221.97</ele>
        <time>2014-07-02T09:14:02Z</time>
      </trkpt>
      <trkpt lat="44.77652" lon="3.18775">
        <ele>1222.45</ele>
        <time>2014-07-02T09:14:18Z</time>
      </trkpt>
      <trkpt lat="44.77636" lon="3.18795">
        <ele>1223.42</ele>
        <time>2014-07-02T09:14:34Z</time>
      </trkpt>
      <trkpt lat="44.77632" lon="3.18799">
        <ele>1223.42</ele>
        <time>2014-07-02T09:14:38Z</time>
      </trkpt>
      <trkpt lat="44.77627" lon="3.18804">
        <ele>1224.38</ele>
        <time>2014-07-02T09:14:43Z</time>
      </trkpt>
      <trkpt lat="44.77605" lon="3.1881">
        <ele>1224.38</ele>
        <time>2014-07-02T09:15:02Z</time>
      </trkpt>
      <trkpt lat="44.77582" lon="3.18815">
        <ele>1224.86</ele>
        <time>2014-07-02T09:15:19Z</time>
      </trkpt>
      <trkpt lat="44.77565" lon="3.18819">
        <ele>1224.86</ele>
        <time>2014-07-02T09:15:35Z</time>
      </trkpt>
      <trkpt lat="44.77558" lon="3.18821">
        <ele>1225.34</ele>
        <time>2014-07-02T09:15:41Z</time>
      </trkpt>
      <trkpt lat="44.77552" lon="3.18823">
        <ele>1225.34</ele>
        <time>2014-07-02T09:15:47Z</time>
      </trkpt>
      <trkpt lat="44.77535" lon="3.18829">
        <ele>1225.82</ele>
        <time>2014-07-02T09:16:02Z</time>
      </trkpt>
      <trkpt lat="44.77515" lon="3.18834">
        <ele>1225.82</ele>
        <time>2014-07-02T09:16:18Z</time>
      </trkpt>
      <trkpt lat="44.77496" lon="3.18837">
        <ele>1226.3</ele>
        <time>2014-07-02T09:16:34Z</time>
      </trkpt>
      <trkpt lat="44.77472" lon="3.18837">
        <ele>1226.78</ele>
        <time>2014-07-02T09:16:53Z</time>
      </trkpt>
      <trkpt lat="44.77452" lon="3.18837">
        <ele>1226.78</ele>
        <time>2014-07-02T09:17:09Z</time>
      </trkpt>
      <trkpt lat="44.7743" lon="3.18839">
        <ele>1226.78</ele>
        <time>2014-07-02T09:17:26Z</time>
      </trkpt>
      <trkpt lat="44.77406" lon="3.18846">
        <ele>1226.78</ele>
        <time>2014-07-02T09:17:47Z</time>
      </trkpt>
      <trkpt lat="44.77381" lon="3.18855">
        <ele>1227.26</ele>
        <time>2014-07-02T09:18:07Z</time>
      </trkpt>
      <trkpt lat="44.77361" lon="3.18861">
        <ele>1228.22</ele>
        <time>2014-07-02T09:18:24Z</time>
      </trkpt>
      <trkpt lat="44.7734" lon="3.18868">
        <ele>1228.7</ele>
        <time>2014-07-02T09:18:41Z</time>
      </trkpt>
      <trkpt lat="44.7732" lon="3.18878">
        <ele>1230.14</ele>
        <time>2014-07-02T09:18:58Z</time>
      </trkpt>
      <trkpt lat="44.77309" lon="3.18886">
        <ele>1231.11</ele>
        <time>2014-07-02T09:19:09Z</time>
      </trkpt>
      <trkpt lat="44.77291" lon="3.189">
        <ele>1233.03</ele>
        <time>2014-07-02T09:19:28Z</time>
      </trkpt>
      <trkpt lat="44.77274" lon="3.1891">
        <ele>1233.51</ele>
        <time>2014-07-02T09:19:45Z</time>
      </trkpt>
      <trkpt lat="44.77254" lon="3.18922">
        <ele>1234.95</ele>
        <time>2014-07-02T09:20:04Z</time>
      </trkpt>
      <trkpt lat="44.77251" lon="3.18925">
        <ele>1235.43</ele>
        <time>2014-07-02T09:20:07Z</time>
      </trkpt>
      <trkpt lat="44.77232" lon="3.18937">
        <ele>1236.87</ele>
        <time>2014-07-02T09:20:24Z</time>
      </trkpt>
      <trkpt lat="44.77219" lon="3.18948">
        <ele>1237.83</ele>
        <time>2014-07-02T09:20:40Z</time>
      </trkpt>
      <trkpt lat="44.7721" lon="3.18954">
        <ele>1238.32</ele>
        <time>2014-07-02T09:20:50Z</time>
      </trkpt>
      <trkpt lat="44.77208" lon="3.18957">
        <ele>1238.8</ele>
        <time>2014-07-02T09:20:53Z</time>
      </trkpt>
      <trkpt lat="44.77188" lon="3.18971">
        <ele>1241.68</ele>
        <time>2014-07-02T09:21:13Z</time>
      </trkpt>
      <trkpt lat="44.7717" lon="3.18982">
        <ele>1243.12</ele>
        <time>2014-07-02T09:21:30Z</time>
      </trkpt>
      <trkpt lat="44.77157" lon="3.18992">
        <ele>1244.56</ele>
        <time>2014-07-02T09:21:43Z</time>
      </trkpt>
      <trkpt lat="44.77144" lon="3.19005">
        <ele>1246.49</ele>
        <time>2014-07-02T09:21:57Z</time>
      </trkpt>
      <trkpt lat="44.77142" lon="3.1901">
        <ele>1246.97</ele>
        <time>2014-07-02T09:22:01Z</time>
      </trkpt>
      <trkpt lat="44.77139" lon="3.19014">
        <ele>1246.97</ele>
        <time>2014-07-02T09:22:05Z</time>
      </trkpt>
      <trkpt lat="44.77134" lon="3.1902">
        <ele>1247.45</ele>
        <time>2014-07-02T09:22:10Z</time>
      </trkpt>
      <trkpt lat="44.77121" lon="3.19038">
        <ele>1247.93</ele>
        <time>2014-07-02T09:22:26Z</time>
      </trkpt>
      <trkpt lat="44.7712" lon="3.19044">
        <ele>1248.89</ele>
        <time>2014-07-02T09:22:38Z</time>
      </trkpt>
      <trkpt lat="44.77109" lon="3.19057">
        <ele>1249.37</ele>
        <time>2014-07-02T09:22:56Z</time>
      </trkpt>
      <trkpt lat="44.77099" lon="3.19076">
        <ele>1250.33</ele>
        <time>2014-07-02T09:23:11Z</time>
      </trkpt>
      <trkpt lat="44.7709" lon="3.19101">
        <ele>1250.81</ele>
        <time>2014-07-02T09:23:28Z</time>
      </trkpt>
      <trkpt lat="44.7708" lon="3.19127">
        <ele>1251.77</ele>
        <time>2014-07-02T09:23:46Z</time>
      </trkpt>
      <trkpt lat="44.77079" lon="3.19129">
        <ele>1251.77</ele>
        <time>2014-07-02T09:23:47Z</time>
      </trkpt>
      <trkpt lat="44.77069" lon="3.19158">
        <ele>1252.74</ele>
        <time>2014-07-02T09:24:05Z</time>
      </trkpt>
      <trkpt lat="44.77056" lon="3.19182">
        <ele>1253.22</ele>
        <time>2014-07-02T09:24:23Z</time>
      </trkpt>
      <trkpt lat="44.77041" lon="3.19206">
        <ele>1253.7</ele>
        <time>2014-07-02T09:24:42Z</time>
      </trkpt>
      <trkpt lat="44.77026" lon="3.19232">
        <ele>1253.7</ele>
        <time>2014-07-02T09:25:02Z</time>
      </trkpt>
      <trkpt lat="44.77017" lon="3.19248">
        <ele>1252.74</ele>
        <time>2014-07-02T09:25:15Z</time>
      </trkpt>
      <trkpt lat="44.77012" lon="3.19251">
        <ele>1252.74</ele>
        <time>2014-07-02T09:25:23Z</time>
      </trkpt>
      <trkpt lat="44.77001" lon="3.19271">
        <ele>1252.25</ele>
        <time>2014-07-02T09:25:38Z</time>
      </trkpt>
      <trkpt lat="44.76989" lon="3.19293">
        <ele>1251.29</ele>
        <time>2014-07-02T09:25:53Z</time>
      </trkpt>
      <trkpt lat="44.76974" lon="3.19311">
        <ele>1250.81</ele>
        <time>2014-07-02T09:26:09Z</time>
      </trkpt>
      <trkpt lat="44.76956" lon="3.19327">
        <ele>1248.41</ele>
        <time>2014-07-02T09:26:26Z</time>
      </trkpt>
      <trkpt lat="44.7694" lon="3.19342">
        <ele>1247.45</ele>
        <time>2014-07-02T09:26:42Z</time>
      </trkpt>
      <trkpt lat="44.76923" lon="3.19361">
        <ele>1245.53</ele>
        <time>2014-07-02T09:27:00Z</time>
      </trkpt>
      <trkpt lat="44.76918" lon="3.1937">
        <ele>1244.56</ele>
        <time>2014-07-02T09:27:07Z</time>
      </trkpt>
      <trkpt lat="44.76907" lon="3.1939">
        <ele>1243.6</ele>
        <time>2014-07-02T09:27:22Z</time>
      </trkpt>
      <trkpt lat="44.76901" lon="3.194">
        <ele>1243.6</ele>
        <time>2014-07-02T09:27:29Z</time>
      </trkpt>
      <trkpt lat="44.7689" lon="3.19421">
        <ele>1242.64</ele>
        <time>2014-07-02T09:27:45Z</time>
      </trkpt>
      <trkpt lat="44.76882" lon="3.19441">
        <ele>1242.64</ele>
        <time>2014-07-02T09:27:58Z</time>
      </trkpt>
      <trkpt lat="44.76871" lon="3.19463">
        <ele>1242.16</ele>
        <time>2014-07-02T09:28:14Z</time>
      </trkpt>
      <trkpt lat="44.76863" lon="3.19478">
        <ele>1242.16</ele>
        <time>2014-07-02T09:28:24Z</time>
      </trkpt>
      <trkpt lat="44.76846" lon="3.19503">
        <ele>1241.2</ele>
        <time>2014-07-02T09:28:43Z</time>
      </trkpt>
      <trkpt lat="44.76835" lon="3.19525">
        <ele>1240.24</ele>
        <time>2014-07-02T09:28:58Z</time>
      </trkpt>
      <trkpt lat="44.76821" lon="3.19551">
        <ele>1238.32</ele>
        <time>2014-07-02T09:29:17Z</time>
      </trkpt>
      <trkpt lat="44.76807" lon="3.19579">
        <ele>1236.87</ele>
        <time>2014-07-02T09:29:36Z</time>
      </trkpt>
      <trkpt lat="44.76794" lon="3.19609">
        <ele>1235.43</ele>
        <time>2014-07-02T09:29:56Z</time>
      </trkpt>
      <trkpt lat="44.7678" lon="3.19632">
        <ele>1234.95</ele>
        <time>2014-07-02T09:30:13Z</time>
      </trkpt>
      <trkpt lat="44.76763" lon="3.19657">
        <ele>1233.51</ele>
        <time>2014-07-02T09:30:32Z</time>
      </trkpt>
      <trkpt lat="44.7675" lon="3.19677">
        <ele>1232.07</ele>
        <time>2014-07-02T09:30:48Z</time>
      </trkpt>
      <trkpt lat="44.76741" lon="3.19697">
        <ele>1231.59</ele>
        <time>2014-07-02T09:31:03Z</time>
      </trkpt>
      <trkpt lat="44.76728" lon="3.19723">
        <ele>1231.11</ele>
        <time>2014-07-02T09:31:21Z</time>
      </trkpt>
      <trkpt lat="44.76717" lon="3.19751">
        <ele>1231.11</ele>
        <time>2014-07-02T09:31:39Z</time>
      </trkpt>
      <trkpt lat="44.76707" lon="3.19773">
        <ele>1230.62</ele>
        <time>2014-07-02T09:31:54Z</time>
      </trkpt>
      <trkpt lat="44.76706" lon="3.19776">
        <ele>1230.62</ele>
        <time>2014-07-02T09:31:56Z</time>
      </trkpt>
      <trkpt lat="44.76688" lon="3.19802">
        <ele>1230.62</ele>
        <time>2014-07-02T09:32:15Z</time>
      </trkpt>
      <trkpt lat="44.76673" lon="3.19823">
        <ele>1232.07</ele>
        <time>2014-07-02T09:32:32Z</time>
      </trkpt>
      <trkpt lat="44.76661" lon="3.19841">
        <ele>1233.03</ele>
        <time>2014-07-02T09:32:45Z</time>
      </trkpt>
      <trkpt lat="44.7665" lon="3.19855">
        <ele>1233.51</ele>
        <time>2014-07-02T09:32:58Z</time>
      </trkpt>
      <trkpt lat="44.76635" lon="3.19871">
        <ele>1234.47</ele>
        <time>2014-07-02T09:33:13Z</time>
      </trkpt>
      <trkpt lat="44.76622" lon="3.19882">
        <ele>1234.95</ele>
        <time>2014-07-02T09:33:26Z</time>
      </trkpt>
      <trkpt lat="44.7661" lon="3.19897">
        <ele>1234.95</ele>
        <time>2014-07-02T09:33:39Z</time>
      </trkpt>
      <trkpt lat="44.76597" lon="3.19918">
        <ele>1235.43</ele>
        <time>2014-07-02T09:33:54Z</time>
      </trkpt>
      <trkpt lat="44.76584" lon="3.19942">
        <ele>1235.91</ele>
        <time>2014-07-02T09:34:12Z</time>
      </trkpt>
      <trkpt lat="44.76569" lon="3.19967">
        <ele>1234.47</ele>
        <time>2014-07-02T09:34:30Z</time>
      </trkpt>
      <trkpt lat="44.76568" lon="3.19969">
        <ele>1234.47</ele>
        <time>2014-07-02T09:34:31Z</time>
      </trkpt>
      <trkpt lat="44.76556" lon="3.19996">
        <ele>1234.47</ele>
        <time>2014-07-02T09:34:50Z</time>
      </trkpt>
      <trkpt lat="44.76544" lon="3.20018">
        <ele>1234.47</ele>
        <time>2014-07-02T09:35:06Z</time>
      </trkpt>
      <trkpt lat="44.76528" lon="3.20041">
        <ele>1234.47</ele>
        <time>2014-07-02T09:35:24Z</time>
      </trkpt>
      <trkpt lat="44.76511" lon="3.20055">
        <ele>1234.47</ele>
        <time>2014-07-02T09:35:40Z</time>
      </trkpt>
      <trkpt lat="44.76501" lon="3.2006">
        <ele>1234.47</ele>
        <time>2014-07-02T09:35:48Z</time>
      </trkpt>
      <trkpt lat="44.76482" lon="3.20071">
        <ele>1234.47</ele>
        <time>2014-07-02T09:36:04Z</time>
      </trkpt>
      <trkpt lat="44.7646" lon="3.20075">
        <ele>1234.47</ele>
        <time>2014-07-02T09:36:22Z</time>
      </trkpt>
      <trkpt lat="44.76438" lon="3.20074">
        <ele>1234.47</ele>
        <time>2014-07-02T09:36:39Z</time>
      </trkpt>
      <trkpt lat="44.76416" lon="3.20071">
        <ele>1233.99</ele>
        <time>2014-07-02T09:36:55Z</time>
      </trkpt>
      <trkpt lat="44.76395" lon="3.20072">
        <ele>1233.51</ele>
        <time>2014-07-02T09:37:10Z</time>
      </trkpt>
      <trkpt lat="44.76375" lon="3.20076">
        <ele>1233.03</ele>
        <time>2014-07-02T09:37:26Z</time>
      </trkpt>
      <trkpt lat="44.7635" lon="3.20084">
        <ele>1232.07</ele>
        <time>2014-07-02T09:37:47Z</time>
      </trkpt>
      <trkpt lat="44.76341" lon="3.20087">
        <ele>1232.07</ele>
        <time>2014-07-02T09:37:54Z</time>
      </trkpt>
      <trkpt lat="44.76327" lon="3.20092">
        <ele>1231.59</ele>
        <time>2014-07-02T09:38:06Z</time>
      </trkpt>
      <trkpt lat="44.76301" lon="3.20104">
        <ele>1231.11</ele>
        <time>2014-07-02T09:38:26Z</time>
      </trkpt>
      <trkpt lat="44.76285" lon="3.20113">
        <ele>1230.14</ele>
        <time>2014-07-02T09:38:40Z</time>
      </trkpt>
      <trkpt lat="44.76279" lon="3.20118">
        <ele>1230.14</ele>
        <time>2014-07-02T09:38:45Z</time>
      </trkpt>
      <trkpt lat="44.7626" lon="3.2013">
        <ele>1230.14</ele>
        <time>2014-07-02T09:39:02Z</time>
      </trkpt>
      <trkpt lat="44.76255" lon="3.20136">
        <ele>1229.18</ele>
        <time>2014-07-02T09:39:06Z</time>
      </trkpt>
      <trkpt lat="44.76233" lon="3.20153">
        <ele>1228.7</ele>
        <time>2014-07-02T09:39:26Z</time>
      </trkpt>
      <trkpt lat="44.76217" lon="3.20164">
        <ele>1227.74</ele>
        <time>2014-07-02T09:39:40Z</time>
      </trkpt>
      <trkpt lat="44.76197" lon="3.20175">
        <ele>1226.78</ele>
        <time>2014-07-02T09:39:57Z</time>
      </trkpt>
      <trkpt lat="44.76179" lon="3.20184">
        <ele>1225.82</ele>
        <time>2014-07-02T09:40:12Z</time>
      </trkpt>
      <trkpt lat="44.76157" lon="3.20201">
        <ele>1224.86</ele>
        <time>2014-07-02T09:40:31Z</time>
      </trkpt>
      <trkpt lat="44.76137" lon="3.20215">
        <ele>1224.86</ele>
        <time>2014-07-02T09:40:48Z</time>
      </trkpt>
      <trkpt lat="44.76115" lon="3.2023">
        <ele>1224.38</ele>
        <time>2014-07-02T09:41:07Z</time>
      </trkpt>
      <trkpt lat="44.76096" lon="3.20244">
        <ele>1224.38</ele>
        <time>2014-07-02T09:41:23Z</time>
      </trkpt>
      <trkpt lat="44.76075" lon="3.20259">
        <ele>1224.38</ele>
        <time>2014-07-02T09:41:41Z</time>
      </trkpt>
      <trkpt lat="44.76055" lon="3.20271">
        <ele>1223.9</ele>
        <time>2014-07-02T09:41:59Z</time>
      </trkpt>
      <trkpt lat="44.76036" lon="3.20283">
        <ele>1223.9</ele>
        <time>2014-07-02T09:42:17Z</time>
      </trkpt>
      <trkpt lat="44.76019" lon="3.20292">
        <ele>1224.38</ele>
        <time>2014-07-02T09:42:31Z</time>
      </trkpt>
      <trkpt lat="44.76003" lon="3.20304">
        <ele>1224.38</ele>
        <time>2014-07-02T09:42:45Z</time>
      </trkpt>
      <trkpt lat="44.75986" lon="3.20322">
        <ele>1224.38</ele>
        <time>2014-07-02T09:43:02Z</time>
      </trkpt>
      <trkpt lat="44.75966" lon="3.20343">
        <ele>1223.9</ele>
        <time>2014-07-02T09:43:21Z</time>
      </trkpt>
      <trkpt lat="44.75948" lon="3.20363">
        <ele>1223.42</ele>
        <time>2014-07-02T09:43:39Z</time>
      </trkpt>
      <trkpt lat="44.75931" lon="3.20374">
        <ele>1223.42</ele>
        <time>2014-07-02T09:43:54Z</time>
      </trkpt>
      <trkpt lat="44.75911" lon="3.20393">
        <ele>1222.45</ele>
        <time>2014-07-02T09:44:11Z</time>
      </trkpt>
      <trkpt lat="44.75891" lon="3.20408">
        <ele>1221.49</ele>
        <time>2014-07-02T09:44:29Z</time>
      </trkpt>
      <trkpt lat="44.7587" lon="3.20414">
        <ele>1220.53</ele>
        <time>2014-07-02T09:44:47Z</time>
      </trkpt>
      <trkpt lat="44.75849" lon="3.20417">
        <ele>1219.09</ele>
        <time>2014-07-02T09:45:04Z</time>
      </trkpt>
      <trkpt lat="44.75851" lon="3.20415">
        <ele>1218.61</ele>
        <time>2014-07-02T09:45:20Z</time>
      </trkpt>
      <trkpt lat="44.7585" lon="3.20415">
        <ele>1218.13</ele>
        <time>2014-07-02T09:45:29Z</time>
      </trkpt>
      <trkpt lat="44.75852" lon="3.20418">
        <ele>1218.13</ele>
        <time>2014-07-02T09:45:56Z</time>
      </trkpt>
      <trkpt lat="44.75851" lon="3.20416">
        <ele>1218.13</ele>
        <time>2014-07-02T09:46:35Z</time>
      </trkpt>
      <trkpt lat="44.75851" lon="3.20415">
        <ele>1217.17</ele>
        <time>2014-07-02T09:47:10Z</time>
      </trkpt>
      <trkpt lat="44.7585" lon="3.20416">
        <ele>1218.61</ele>
        <time>2014-07-02T09:47:41Z</time>
      </trkpt>
      <trkpt lat="44.7585" lon="3.20415">
        <ele>1218.61</ele>
        <time>2014-07-02T09:48:11Z</time>
      </trkpt>
      <trkpt lat="44.75851" lon="3.20416">
        <ele>1218.13</ele>
        <time>2014-07-02T09:48:42Z</time>
      </trkpt>
      <trkpt lat="44.7585" lon="3.20411">
        <ele>1218.13</ele>
        <time>2014-07-02T09:49:22Z</time>
      </trkpt>
      <trkpt lat="44.75849" lon="3.20412">
        <ele>1218.13</ele>
        <time>2014-07-02T09:50:06Z</time>
      </trkpt>
      <trkpt lat="44.7585" lon="3.20414">
        <ele>1219.09</ele>
        <time>2014-07-02T09:50:24Z</time>
      </trkpt>
      <trkpt lat="44.75851" lon="3.20414">
        <ele>1219.57</ele>
        <time>2014-07-02T09:50:40Z</time>
      </trkpt>
      <trkpt lat="44.75849" lon="3.20413">
        <ele>1219.57</ele>
        <time>2014-07-02T09:50:52Z</time>
      </trkpt>
      <trkpt lat="44.75844" lon="3.20413">
        <ele>1219.57</ele>
        <time>2014-07-02T09:50:57Z</time>
      </trkpt>
      <trkpt lat="44.75841" lon="3.20412">
        <ele>1219.57</ele>
        <time>2014-07-02T09:51:00Z</time>
      </trkpt>
      <trkpt lat="44.75836" lon="3.20413">
        <ele>1219.57</ele>
        <time>2014-07-02T09:51:04Z</time>
      </trkpt>
      <trkpt lat="44.75832" lon="3.20413">
        <ele>1218.13</ele>
        <time>2014-07-02T09:51:08Z</time>
      </trkpt>
      <trkpt lat="44.75812" lon="3.20424">
        <ele>1217.65</ele>
        <time>2014-07-02T09:51:25Z</time>
      </trkpt>
      <trkpt lat="44.75802" lon="3.20428">
        <ele>1217.65</ele>
        <time>2014-07-02T09:51:33Z</time>
      </trkpt>
      <trkpt lat="44.758" lon="3.20431">
        <ele>1217.65</ele>
        <time>2014-07-02T09:51:36Z</time>
      </trkpt>
      <trkpt lat="44.75774" lon="3.2044">
        <ele>1217.17</ele>
        <time>2014-07-02T09:51:56Z</time>
      </trkpt>
      <trkpt lat="44.75765" lon="3.20443">
        <ele>1217.17</ele>
        <time>2014-07-02T09:52:03Z</time>
      </trkpt>
      <trkpt lat="44.75742" lon="3.20451">
        <ele>1216.69</ele>
        <time>2014-07-02T09:52:22Z</time>
      </trkpt>
      <trkpt lat="44.7572" lon="3.20458">
        <ele>1216.21</ele>
        <time>2014-07-02T09:52:40Z</time>
      </trkpt>
      <trkpt lat="44.75699" lon="3.20462">
        <ele>1215.72</ele>
        <time>2014-07-02T09:52:57Z</time>
      </trkpt>
      <trkpt lat="44.75677" lon="3.20467">
        <ele>1215.24</ele>
        <time>2014-07-02T09:53:15Z</time>
      </trkpt>
      <trkpt lat="44.75656" lon="3.20474">
        <ele>1214.28</ele>
        <time>2014-07-02T09:53:33Z</time>
      </trkpt>
      <trkpt lat="44.75634" lon="3.20481">
        <ele>1213.8</ele>
        <time>2014-07-02T09:53:51Z</time>
      </trkpt>
      <trkpt lat="44.75614" lon="3.20488">
        <ele>1212.36</ele>
        <time>2014-07-02T09:54:07Z</time>
      </trkpt>
      <trkpt lat="44.75602" lon="3.20493">
        <ele>1211.4</ele>
        <time>2014-07-02T09:54:18Z</time>
      </trkpt>
      <trkpt lat="44.75595" lon="3.20495">
        <ele>1210.44</ele>
        <time>2014-07-02T09:54:33Z</time>
      </trkpt>
      <trkpt lat="44.75594" lon="3.20496">
        <ele>1209.96</ele>
        <time>2014-07-02T09:54:47Z</time>
      </trkpt>
      <trkpt lat="44.75589" lon="3.20498">
        <ele>1209.48</ele>
        <time>2014-07-02T09:55:00Z</time>
      </trkpt>
      <trkpt lat="44.75577" lon="3.20503">
        <ele>1208.51</ele>
        <time>2014-07-02T09:55:14Z</time>
      </trkpt>
      <trkpt lat="44.75559" lon="3.20515">
        <ele>1207.07</ele>
        <time>2014-07-02T09:55:31Z</time>
      </trkpt>
      <trkpt lat="44.75539" lon="3.20524">
        <ele>1205.63</ele>
        <time>2014-07-02T09:55:48Z</time>
      </trkpt>
      <trkpt lat="44.75521" lon="3.20531">
        <ele>1204.19</ele>
        <time>2014-07-02T09:56:02Z</time>
      </trkpt>
      <trkpt lat="44.75501" lon="3.20537">
        <ele>1202.27</ele>
        <time>2014-07-02T09:56:17Z</time>
      </trkpt>
      <trkpt lat="44.75483" lon="3.20547">
        <ele>1201.3</ele>
        <time>2014-07-02T09:56:32Z</time>
      </trkpt>
      <trkpt lat="44.75464" lon="3.20559">
        <ele>1200.82</ele>
        <time>2014-07-02T09:56:48Z</time>
      </trkpt>
      <trkpt lat="44.75447" lon="3.20571">
        <ele>1200.82</ele>
        <time>2014-07-02T09:57:03Z</time>
      </trkpt>
      <trkpt lat="44.75431" lon="3.20579">
        <ele>1199.86</ele>
        <time>2014-07-02T09:57:17Z</time>
      </trkpt>
      <trkpt lat="44.75411" lon="3.20585">
        <ele>1198.9</ele>
        <time>2014-07-02T09:57:34Z</time>
      </trkpt>
      <trkpt lat="44.75389" lon="3.20585">
        <ele>1196.5</ele>
        <time>2014-07-02T09:57:53Z</time>
      </trkpt>
      <trkpt lat="44.75367" lon="3.20581">
        <ele>1195.54</ele>
        <time>2014-07-02T09:58:09Z</time>
      </trkpt>
      <trkpt lat="44.75346" lon="3.20577">
        <ele>1194.58</ele>
        <time>2014-07-02T09:58:26Z</time>
      </trkpt>
      <trkpt lat="44.75332" lon="3.20578">
        <ele>1193.61</ele>
        <time>2014-07-02T09:58:38Z</time>
      </trkpt>
      <trkpt lat="44.75329" lon="3.20577">
        <ele>1193.13</ele>
        <time>2014-07-02T09:58:41Z</time>
      </trkpt>
      <trkpt lat="44.75326" lon="3.20578">
        <ele>1192.65</ele>
        <time>2014-07-02T09:58:44Z</time>
      </trkpt>
      <trkpt lat="44.75325" lon="3.2058">
        <ele>1192.65</ele>
        <time>2014-07-02T09:58:51Z</time>
      </trkpt>
      <trkpt lat="44.75307" lon="3.20582">
        <ele>1192.17</ele>
        <time>2014-07-02T09:59:07Z</time>
      </trkpt>
      <trkpt lat="44.75297" lon="3.20583">
        <ele>1191.21</ele>
        <time>2014-07-02T09:59:16Z</time>
      </trkpt>
      <trkpt lat="44.75284" lon="3.20583">
        <ele>1190.73</ele>
        <time>2014-07-02T09:59:30Z</time>
      </trkpt>
      <trkpt lat="44.75276" lon="3.20581">
        <ele>1189.77</ele>
        <time>2014-07-02T09:59:37Z</time>
      </trkpt>
      <trkpt lat="44.7527" lon="3.20581">
        <ele>1189.77</ele>
        <time>2014-07-02T09:59:42Z</time>
      </trkpt>
      <trkpt lat="44.75249" lon="3.20583">
        <ele>1187.85</ele>
        <time>2014-07-02T10:00:00Z</time>
      </trkpt>
      <trkpt lat="44.7523" lon="3.20586">
        <ele>1185.44</ele>
        <time>2014-07-02T10:00:17Z</time>
      </trkpt>
      <trkpt lat="44.75224" lon="3.20585">
        <ele>1184.96</ele>
        <time>2014-07-02T10:00:22Z</time>
      </trkpt>
      <trkpt lat="44.75204" lon="3.20587">
        <ele>1183.04</ele>
        <time>2014-07-02T10:00:39Z</time>
      </trkpt>
      <trkpt lat="44.75187" lon="3.20589">
        <ele>1182.08</ele>
        <time>2014-07-02T10:00:53Z</time>
      </trkpt>
      <trkpt lat="44.75166" lon="3.20597">
        <ele>1181.6</ele>
        <time>2014-07-02T10:01:10Z</time>
      </trkpt>
      <trkpt lat="44.75152" lon="3.2062">
        <ele>1180.64</ele>
        <time>2014-07-02T10:01:28Z</time>
      </trkpt>
      <trkpt lat="44.75153" lon="3.20646">
        <ele>1180.64</ele>
        <time>2014-07-02T10:01:43Z</time>
      </trkpt>
      <trkpt lat="44.75158" lon="3.20671">
        <ele>1180.16</ele>
        <time>2014-07-02T10:01:57Z</time>
      </trkpt>
      <trkpt lat="44.7516" lon="3.207">
        <ele>1180.16</ele>
        <time>2014-07-02T10:02:13Z</time>
      </trkpt>
      <trkpt lat="44.7516" lon="3.20712">
        <ele>1180.16</ele>
        <time>2014-07-02T10:02:20Z</time>
      </trkpt>
      <trkpt lat="44.75161" lon="3.20731">
        <ele>1180.16</ele>
        <time>2014-07-02T10:02:35Z</time>
      </trkpt>
      <trkpt lat="44.75165" lon="3.20755">
        <ele>1180.16</ele>
        <time>2014-07-02T10:02:50Z</time>
      </trkpt>
      <trkpt lat="44.75175" lon="3.20779">
        <ele>1180.16</ele>
        <time>2014-07-02T10:03:07Z</time>
      </trkpt>
      <trkpt lat="44.7518" lon="3.20789">
        <ele>1180.16</ele>
        <time>2014-07-02T10:03:14Z</time>
      </trkpt>
      <trkpt lat="44.75183" lon="3.208">
        <ele>1180.16</ele>
        <time>2014-07-02T10:03:21Z</time>
      </trkpt>
      <trkpt lat="44.75186" lon="3.20807">
        <ele>1180.16</ele>
        <time>2014-07-02T10:03:25Z</time>
      </trkpt>
      <trkpt lat="44.75196" lon="3.20836">
        <ele>1180.16</ele>
        <time>2014-07-02T10:03:43Z</time>
      </trkpt>
      <trkpt lat="44.75205" lon="3.20864">
        <ele>1180.16</ele>
        <time>2014-07-02T10:04:01Z</time>
      </trkpt>
      <trkpt lat="44.75215" lon="3.2089">
        <ele>1179.19</ele>
        <time>2014-07-02T10:04:18Z</time>
      </trkpt>
      <trkpt lat="44.75233" lon="3.20904">
        <ele>1176.79</ele>
        <time>2014-07-02T10:04:34Z</time>
      </trkpt>
      <trkpt lat="44.75252" lon="3.20912">
        <ele>1173.91</ele>
        <time>2014-07-02T10:04:49Z</time>
      </trkpt>
      <trkpt lat="44.75272" lon="3.20917">
        <ele>1171.5</ele>
        <time>2014-07-02T10:05:05Z</time>
      </trkpt>
      <trkpt lat="44.75293" lon="3.20924">
        <ele>1170.06</ele>
        <time>2014-07-02T10:05:22Z</time>
      </trkpt>
      <trkpt lat="44.75312" lon="3.20933">
        <ele>1169.1</ele>
        <time>2014-07-02T10:05:38Z</time>
      </trkpt>
      <trkpt lat="44.7533" lon="3.20945">
        <ele>1168.62</ele>
        <time>2014-07-02T10:05:54Z</time>
      </trkpt>
      <trkpt lat="44.75346" lon="3.20962">
        <ele>1167.66</ele>
        <time>2014-07-02T10:06:10Z</time>
      </trkpt>
      <trkpt lat="44.75359" lon="3.20981">
        <ele>1167.18</ele>
        <time>2014-07-02T10:06:25Z</time>
      </trkpt>
      <trkpt lat="44.75368" lon="3.21001">
        <ele>1166.22</ele>
        <time>2014-07-02T10:06:39Z</time>
      </trkpt>
      <trkpt lat="44.75378" lon="3.21024">
        <ele>1165.26</ele>
        <time>2014-07-02T10:06:55Z</time>
      </trkpt>
      <trkpt lat="44.75387" lon="3.21048">
        <ele>1163.33</ele>
        <time>2014-07-02T10:07:12Z</time>
      </trkpt>
      <trkpt lat="44.75397" lon="3.21067">
        <ele>1161.41</ele>
        <time>2014-07-02T10:07:27Z</time>
      </trkpt>
      <trkpt lat="44.75406" lon="3.2109">
        <ele>1159.01</ele>
        <time>2014-07-02T10:07:44Z</time>
      </trkpt>
      <trkpt lat="44.75408" lon="3.21092">
        <ele>1159.01</ele>
        <time>2014-07-02T10:07:46Z</time>
      </trkpt>
      <trkpt lat="44.75419" lon="3.2111">
        <ele>1157.56</ele>
        <time>2014-07-02T10:08:02Z</time>
      </trkpt>
      <trkpt lat="44.7542" lon="3.21134">
        <ele>1154.68</ele>
        <time>2014-07-02T10:08:17Z</time>
      </trkpt>
      <trkpt lat="44.75417" lon="3.21157">
        <ele>1153.72</ele>
        <time>2014-07-02T10:08:32Z</time>
      </trkpt>
      <trkpt lat="44.75418" lon="3.21168">
        <ele>1152.28</ele>
        <time>2014-07-02T10:08:40Z</time>
      </trkpt>
      <trkpt lat="44.75414" lon="3.21175">
        <ele>1151.8</ele>
        <time>2014-07-02T10:08:45Z</time>
      </trkpt>
      <trkpt lat="44.75405" lon="3.21175">
        <ele>1151.32</ele>
        <time>2014-07-02T10:08:57Z</time>
      </trkpt>
      <trkpt lat="44.75392" lon="3.21173">
        <ele>1149.87</ele>
        <time>2014-07-02T10:09:10Z</time>
      </trkpt>
      <trkpt lat="44.75369" lon="3.2117">
        <ele>1148.43</ele>
        <time>2014-07-02T10:09:31Z</time>
      </trkpt>
      <trkpt lat="44.75361" lon="3.21166">
        <ele>1148.43</ele>
        <time>2014-07-02T10:09:39Z</time>
      </trkpt>
      <trkpt lat="44.75342" lon="3.21166">
        <ele>1147.95</ele>
        <time>2014-07-02T10:09:56Z</time>
      </trkpt>
      <trkpt lat="44.75341" lon="3.21166">
        <ele>1147.95</ele>
        <time>2014-07-02T10:09:57Z</time>
      </trkpt>
      <trkpt lat="44.75327" lon="3.21169">
        <ele>1147.95</ele>
        <time>2014-07-02T10:10:11Z</time>
      </trkpt>
      <trkpt lat="44.75321" lon="3.2117">
        <ele>1147.47</ele>
        <time>2014-07-02T10:10:17Z</time>
      </trkpt>
      <trkpt lat="44.75303" lon="3.21183">
        <ele>1146.99</ele>
        <time>2014-07-02T10:10:35Z</time>
      </trkpt>
      <trkpt lat="44.75286" lon="3.21198">
        <ele>1145.07</ele>
        <time>2014-07-02T10:10:53Z</time>
      </trkpt>
      <trkpt lat="44.75273" lon="3.21208">
        <ele>1144.11</ele>
        <time>2014-07-02T10:11:07Z</time>
      </trkpt>
      <trkpt lat="44.75253" lon="3.21218">
        <ele>1142.66</ele>
        <time>2014-07-02T10:11:26Z</time>
      </trkpt>
      <trkpt lat="44.7524" lon="3.21241">
        <ele>1141.7</ele>
        <time>2014-07-02T10:11:45Z</time>
      </trkpt>
      <trkpt lat="44.75236" lon="3.21271">
        <ele>1140.74</ele>
        <time>2014-07-02T10:12:03Z</time>
      </trkpt>
      <trkpt lat="44.75234" lon="3.21292">
        <ele>1139.78</ele>
        <time>2014-07-02T10:12:16Z</time>
      </trkpt>
      <trkpt lat="44.75235" lon="3.21315">
        <ele>1138.82</ele>
        <time>2014-07-02T10:12:30Z</time>
      </trkpt>
      <trkpt lat="44.75236" lon="3.21318">
        <ele>1138.82</ele>
        <time>2014-07-02T10:12:32Z</time>
      </trkpt>
      <trkpt lat="44.75238" lon="3.21323">
        <ele>1138.82</ele>
        <time>2014-07-02T10:12:35Z</time>
      </trkpt>
      <trkpt lat="44.75245" lon="3.21343">
        <ele>1138.34</ele>
        <time>2014-07-02T10:12:48Z</time>
      </trkpt>
      <trkpt lat="44.75245" lon="3.21348">
        <ele>1137.86</ele>
        <time>2014-07-02T10:12:51Z</time>
      </trkpt>
      <trkpt lat="44.75249" lon="3.21368">
        <ele>1137.38</ele>
        <time>2014-07-02T10:13:04Z</time>
      </trkpt>
      <trkpt lat="44.75252" lon="3.2138">
        <ele>1136.9</ele>
        <time>2014-07-02T10:13:12Z</time>
      </trkpt>
      <trkpt lat="44.75259" lon="3.21406">
        <ele>1135.94</ele>
        <time>2014-07-02T10:13:28Z</time>
      </trkpt>
      <trkpt lat="44.7526" lon="3.2141">
        <ele>1135.94</ele>
        <time>2014-07-02T10:13:31Z</time>
      </trkpt>
      <trkpt lat="44.75266" lon="3.21427">
        <ele>1134.97</ele>
        <time>2014-07-02T10:13:42Z</time>
      </trkpt>
      <trkpt lat="44.7527" lon="3.21448">
        <ele>1134.01</ele>
        <time>2014-07-02T10:13:55Z</time>
      </trkpt>
      <trkpt lat="44.75273" lon="3.21457">
        <ele>1133.53</ele>
        <time>2014-07-02T10:14:01Z</time>
      </trkpt>
      <trkpt lat="44.7528" lon="3.21483">
        <ele>1132.57</ele>
        <time>2014-07-02T10:14:17Z</time>
      </trkpt>
      <trkpt lat="44.75282" lon="3.21506">
        <ele>1131.13</ele>
        <time>2014-07-02T10:14:31Z</time>
      </trkpt>
      <trkpt lat="44.75284" lon="3.2153">
        <ele>1130.65</ele>
        <time>2014-07-02T10:14:46Z</time>
      </trkpt>
      <trkpt lat="44.75283" lon="3.21552">
        <ele>1129.69</ele>
        <time>2014-07-02T10:15:00Z</time>
      </trkpt>
      <trkpt lat="44.75281" lon="3.21578">
        <ele>1128.24</ele>
        <time>2014-07-02T10:15:15Z</time>
      </trkpt>
      <trkpt lat="44.7528" lon="3.21596">
        <ele>1127.28</ele>
        <time>2014-07-02T10:15:30Z</time>
      </trkpt>
      <trkpt lat="44.7528" lon="3.21598">
        <ele>1127.28</ele>
        <time>2014-07-02T10:15:31Z</time>
      </trkpt>
      <trkpt lat="44.75271" lon="3.21624">
        <ele>1126.32</ele>
        <time>2014-07-02T10:15:48Z</time>
      </trkpt>
      <trkpt lat="44.75269" lon="3.21628">
        <ele>1126.32</ele>
        <time>2014-07-02T10:15:51Z</time>
      </trkpt>
      <trkpt lat="44.75259" lon="3.21646">
        <ele>1124.4</ele>
        <time>2014-07-02T10:16:05Z</time>
      </trkpt>
      <trkpt lat="44.75255" lon="3.21651">
        <ele>1124.4</ele>
        <time>2014-07-02T10:16:10Z</time>
      </trkpt>
      <trkpt lat="44.75241" lon="3.21668">
        <ele>1122.96</ele>
        <time>2014-07-02T10:16:26Z</time>
      </trkpt>
      <trkpt lat="44.75225" lon="3.21689">
        <ele>1121.03</ele>
        <time>2014-07-02T10:16:43Z</time>
      </trkpt>
      <trkpt lat="44.7521" lon="3.21705">
        <ele>1119.59</ele>
        <time>2014-07-02T10:17:01Z</time>
      </trkpt>
      <trkpt lat="44.75197" lon="3.21721">
        <ele>1118.63</ele>
        <time>2014-07-02T10:17:15Z</time>
      </trkpt>
      <trkpt lat="44.75193" lon="3.21727">
        <ele>1118.15</ele>
        <time>2014-07-02T10:17:20Z</time>
      </trkpt>
      <trkpt lat="44.75175" lon="3.2175">
        <ele>1117.19</ele>
        <time>2014-07-02T10:17:42Z</time>
      </trkpt>
      <trkpt lat="44.75172" lon="3.21754">
        <ele>1117.19</ele>
        <time>2014-07-02T10:17:45Z</time>
      </trkpt>
      <trkpt lat="44.75154" lon="3.2178">
        <ele>1115.75</ele>
        <time>2014-07-02T10:18:06Z</time>
      </trkpt>
      <trkpt lat="44.75141" lon="3.21795">
        <ele>1115.75</ele>
        <time>2014-07-02T10:18:22Z</time>
      </trkpt>
      <trkpt lat="44.75125" lon="3.21812">
        <ele>1115.27</ele>
        <time>2014-07-02T10:18:39Z</time>
      </trkpt>
      <trkpt lat="44.75109" lon="3.21831">
        <ele>1114.79</ele>
        <time>2014-07-02T10:18:56Z</time>
      </trkpt>
      <trkpt lat="44.75107" lon="3.21833">
        <ele>1114.79</ele>
        <time>2014-07-02T10:18:59Z</time>
      </trkpt>
      <trkpt lat="44.75093" lon="3.21846">
        <ele>1113.34</ele>
        <time>2014-07-02T10:19:14Z</time>
      </trkpt>
      <trkpt lat="44.75077" lon="3.21862">
        <ele>1111.9</ele>
        <time>2014-07-02T10:19:31Z</time>
      </trkpt>
      <trkpt lat="44.7506" lon="3.21877">
        <ele>1110.46</ele>
        <time>2014-07-02T10:19:47Z</time>
      </trkpt>
      <trkpt lat="44.7504" lon="3.21891">
        <ele>1108.54</ele>
        <time>2014-07-02T10:20:05Z</time>
      </trkpt>
      <trkpt lat="44.75034" lon="3.21896">
        <ele>1108.06</ele>
        <time>2014-07-02T10:20:10Z</time>
      </trkpt>
      <trkpt lat="44.75018" lon="3.21906">
        <ele>1107.1</ele>
        <time>2014-07-02T10:20:26Z</time>
      </trkpt>
      <trkpt lat="44.75004" lon="3.21922">
        <ele>1106.61</ele>
        <time>2014-07-02T10:20:42Z</time>
      </trkpt>
      <trkpt lat="44.74988" lon="3.2194">
        <ele>1105.17</ele>
        <time>2014-07-02T10:20:59Z</time>
      </trkpt>
      <trkpt lat="44.74971" lon="3.21956">
        <ele>1104.21</ele>
        <time>2014-07-02T10:21:16Z</time>
      </trkpt>
      <trkpt lat="44.74961" lon="3.21967">
        <ele>1103.73</ele>
        <time>2014-07-02T10:21:26Z</time>
      </trkpt>
      <trkpt lat="44.74948" lon="3.21988">
        <ele>1102.77</ele>
        <time>2014-07-02T10:21:42Z</time>
      </trkpt>
      <trkpt lat="44.74933" lon="3.22011">
        <ele>1102.29</ele>
        <time>2014-07-02T10:21:59Z</time>
      </trkpt>
      <trkpt lat="44.74919" lon="3.22031">
        <ele>1101.81</ele>
        <time>2014-07-02T10:22:15Z</time>
      </trkpt>
      <trkpt lat="44.74903" lon="3.22052">
        <ele>1101.33</ele>
        <time>2014-07-02T10:22:32Z</time>
      </trkpt>
      <trkpt lat="44.74888" lon="3.22071">
        <ele>1100.85</ele>
        <time>2014-07-02T10:22:49Z</time>
      </trkpt>
      <trkpt lat="44.74886" lon="3.22073">
        <ele>1100.85</ele>
        <time>2014-07-02T10:22:51Z</time>
      </trkpt>
      <trkpt lat="44.74877" lon="3.22085">
        <ele>1100.85</ele>
        <time>2014-07-02T10:23:01Z</time>
      </trkpt>
      <trkpt lat="44.74871" lon="3.22093">
        <ele>1100.85</ele>
        <time>2014-07-02T10:23:08Z</time>
      </trkpt>
      <trkpt lat="44.74863" lon="3.22104">
        <ele>1100.85</ele>
        <time>2014-07-02T10:23:18Z</time>
      </trkpt>
      <trkpt lat="44.74858" lon="3.22111">
        <ele>1100.85</ele>
        <time>2014-07-02T10:23:24Z</time>
      </trkpt>
      <trkpt lat="44.74847" lon="3.22128">
        <ele>1100.85</ele>
        <time>2014-07-02T10:23:38Z</time>
      </trkpt>
      <trkpt lat="44.74841" lon="3.22143">
        <ele>1100.85</ele>
        <time>2014-07-02T10:23:48Z</time>
      </trkpt>
      <trkpt lat="44.74837" lon="3.22151">
        <ele>1100.85</ele>
        <time>2014-07-02T10:23:53Z</time>
      </trkpt>
      <trkpt lat="44.74837" lon="3.22155">
        <ele>1100.85</ele>
        <time>2014-07-02T10:23:55Z</time>
      </trkpt>
      <trkpt lat="44.74834" lon="3.22161">
        <ele>1100.85</ele>
        <time>2014-07-02T10:23:59Z</time>
      </trkpt>
      <trkpt lat="44.7483" lon="3.22183">
        <ele>1100.85</ele>
        <time>2014-07-02T10:24:13Z</time>
      </trkpt>
      <trkpt lat="44.74825" lon="3.22204">
        <ele>1101.81</ele>
        <time>2014-07-02T10:24:27Z</time>
      </trkpt>
      <trkpt lat="44.74822" lon="3.22229">
        <ele>1102.29</ele>
        <time>2014-07-02T10:24:44Z</time>
      </trkpt>
      <trkpt lat="44.74821" lon="3.22254">
        <ele>1102.29</ele>
        <time>2014-07-02T10:24:59Z</time>
      </trkpt>
      <trkpt lat="44.74821" lon="3.22257">
        <ele>1103.73</ele>
        <time>2014-07-02T10:25:01Z</time>
      </trkpt>
      <trkpt lat="44.7482" lon="3.22267">
        <ele>1103.73</ele>
        <time>2014-07-02T10:25:14Z</time>
      </trkpt>
      <trkpt lat="44.7482" lon="3.22273">
        <ele>1103.73</ele>
        <time>2014-07-02T10:25:28Z</time>
      </trkpt>
      <trkpt lat="44.7482" lon="3.22274">
        <ele>1103.73</ele>
        <time>2014-07-02T10:25:29Z</time>
      </trkpt>
      <trkpt lat="44.74815" lon="3.22293">
        <ele>1101.81</ele>
        <time>2014-07-02T10:25:45Z</time>
      </trkpt>
      <trkpt lat="44.74816" lon="3.22291">
        <ele>1101.81</ele>
        <time>2014-07-02T10:25:59Z</time>
      </trkpt>
      <trkpt lat="44.74817" lon="3.22289">
        <ele>1101.81</ele>
        <time>2014-07-02T10:26:14Z</time>
      </trkpt>
      <trkpt lat="44.7482" lon="3.22291">
        <ele>1101.81</ele>
        <time>2014-07-02T10:26:21Z</time>
      </trkpt>
      <trkpt lat="44.74829" lon="3.22309">
        <ele>1100.37</ele>
        <time>2014-07-02T10:26:38Z</time>
      </trkpt>
      <trkpt lat="44.74834" lon="3.22318">
        <ele>1099.89</ele>
        <time>2014-07-02T10:26:53Z</time>
      </trkpt>
      <trkpt lat="44.74833" lon="3.22314">
        <ele>1099.89</ele>
        <time>2014-07-02T10:26:59Z</time>
      </trkpt>
      <trkpt lat="44.74835" lon="3.22308">
        <ele>1099.89</ele>
        <time>2014-07-02T10:27:11Z</time>
      </trkpt>
      <trkpt lat="44.74834" lon="3.22308">
        <ele>1099.89</ele>
        <time>2014-07-02T10:27:31Z</time>
      </trkpt>
      <trkpt lat="44.74834" lon="3.22308">
        <ele>1098.92</ele>
        <time>2014-07-02T10:27:59Z</time>
      </trkpt>
      <trkpt lat="44.74834" lon="3.22306">
        <ele>1099.4</ele>
        <time>2014-07-02T10:28:32Z</time>
      </trkpt>
      <trkpt lat="44.74834" lon="3.22304">
        <ele>1099.4</ele>
        <time>2014-07-02T10:28:56Z</time>
      </trkpt>
      <trkpt lat="44.74832" lon="3.22305">
        <ele>1099.4</ele>
        <time>2014-07-02T10:29:15Z</time>
      </trkpt>
      <trkpt lat="44.7483" lon="3.22314">
        <ele>1100.37</ele>
        <time>2014-07-02T10:29:23Z</time>
      </trkpt>
      <trkpt lat="44.74827" lon="3.22322">
        <ele>1100.37</ele>
        <time>2014-07-02T10:29:38Z</time>
      </trkpt>
      <trkpt lat="44.74823" lon="3.22326">
        <ele>1100.37</ele>
        <time>2014-07-02T10:29:49Z</time>
      </trkpt>
      <trkpt lat="44.74822" lon="3.2233">
        <ele>1100.37</ele>
        <time>2014-07-02T10:30:01Z</time>
      </trkpt>
      <trkpt lat="44.74822" lon="3.2233">
        <ele>1099.4</ele>
        <time>2014-07-02T10:30:16Z</time>
      </trkpt>
      <trkpt lat="44.74822" lon="3.22332">
        <ele>1099.4</ele>
        <time>2014-07-02T10:30:31Z</time>
      </trkpt>
      <trkpt lat="44.7482" lon="3.22328">
        <ele>1099.4</ele>
        <time>2014-07-02T10:30:50Z</time>
      </trkpt>
      <trkpt lat="44.74818" lon="3.22332">
        <ele>1099.4</ele>
        <time>2014-07-02T10:31:02Z</time>
      </trkpt>
      <trkpt lat="44.74819" lon="3.22332">
        <ele>1099.4</ele>
        <time>2014-07-02T10:31:16Z</time>
      </trkpt>
      <trkpt lat="44.74819" lon="3.22329">
        <ele>1099.4</ele>
        <time>2014-07-02T10:31:30Z</time>
      </trkpt>
      <trkpt lat="44.74818" lon="3.22331">
        <ele>1098.92</ele>
        <time>2014-07-02T10:31:46Z</time>
      </trkpt>
      <trkpt lat="44.7482" lon="3.22331">
        <ele>1098.92</ele>
        <time>2014-07-02T10:31:59Z</time>
      </trkpt>
      <trkpt lat="44.74817" lon="3.22328">
        <ele>1098.44</ele>
        <time>2014-07-02T10:32:17Z</time>
      </trkpt>
      <trkpt lat="44.74817" lon="3.2233">
        <ele>1098.92</ele>
        <time>2014-07-02T10:32:59Z</time>
      </trkpt>
      <trkpt lat="44.74819" lon="3.2233">
        <ele>1098.92</ele>
        <time>2014-07-02T10:33:45Z</time>
      </trkpt>
      <trkpt lat="44.74819" lon="3.22329">
        <ele>1098.92</ele>
        <time>2014-07-02T10:34:27Z</time>
      </trkpt>
      <trkpt lat="44.74819" lon="3.2233">
        <ele>1099.4</ele>
        <time>2014-07-02T10:35:19Z</time>
      </trkpt>
      <trkpt lat="44.7482" lon="3.22328">
        <ele>1099.4</ele>
        <time>2014-07-02T10:36:11Z</time>
      </trkpt>
      <trkpt lat="44.74819" lon="3.22329">
        <ele>1099.4</ele>
        <time>2014-07-02T10:36:55Z</time>
      </trkpt>
      <trkpt lat="44.7482" lon="3.22328">
        <ele>1099.4</ele>
        <time>2014-07-02T10:37:38Z</time>
      </trkpt>
      <trkpt lat="44.74819" lon="3.22327">
        <ele>1099.89</ele>
        <time>2014-07-02T10:38:28Z</time>
      </trkpt>
      <trkpt lat="44.7482" lon="3.22329">
        <ele>1099.89</ele>
        <time>2014-07-02T10:39:09Z</time>
      </trkpt>
      <trkpt lat="44.74819" lon="3.22328">
        <ele>1099.89</ele>
        <time>2014-07-02T10:39:45Z</time>
      </trkpt>
      <trkpt lat="44.7482" lon="3.22329">
        <ele>1099.89</ele>
        <time>2014-07-02T10:40:35Z</time>
      </trkpt>
      <trkpt lat="44.74821" lon="3.22329">
        <ele>1099.89</ele>
        <time>2014-07-02T10:41:14Z</time>
      </trkpt>
      <trkpt lat="44.74819" lon="3.22329">
        <ele>1099.89</ele>
        <time>2014-07-02T10:41:54Z</time>
      </trkpt>
      <trkpt lat="44.74819" lon="3.2233">
        <ele>1100.37</ele>
        <time>2014-07-02T10:42:32Z</time>
      </trkpt>
      <trkpt lat="44.74818" lon="3.22326">
        <ele>1100.37</ele>
        <time>2014-07-02T10:43:10Z</time>
      </trkpt>
      <trkpt lat="44.74819" lon="3.22328">
        <ele>1100.37</ele>
        <time>2014-07-02T10:43:48Z</time>
      </trkpt>
      <trkpt lat="44.74819" lon="3.22328">
        <ele>1100.37</ele>
        <time>2014-07-02T10:44:23Z</time>
      </trkpt>
      <trkpt lat="44.7482" lon="3.22328">
        <ele>1100.37</ele>
        <time>2014-07-02T10:44:55Z</time>
      </trkpt>
      <trkpt lat="44.7482" lon="3.22329">
        <ele>1100.85</ele>
        <time>2014-07-02T10:45:24Z</time>
      </trkpt>
      <trkpt lat="44.74821" lon="3.2233">
        <ele>1100.37</ele>
        <time>2014-07-02T10:45:53Z</time>
      </trkpt>
      <trkpt lat="44.74821" lon="3.2233">
        <ele>1100.37</ele>
        <time>2014-07-02T10:46:17Z</time>
      </trkpt>
      <trkpt lat="44.74819" lon="3.22329">
        <ele>1100.37</ele>
        <time>2014-07-02T10:46:48Z</time>
      </trkpt>
      <trkpt lat="44.74818" lon="3.22325">
        <ele>1100.37</ele>
        <time>2014-07-02T10:47:10Z</time>
      </trkpt>
      <trkpt lat="44.7482" lon="3.2233">
        <ele>1100.37</ele>
        <time>2014-07-02T10:47:46Z</time>
      </trkpt>
      <trkpt lat="44.7482" lon="3.22332">
        <ele>1099.89</ele>
        <time>2014-07-02T10:48:11Z</time>
      </trkpt>
      <trkpt lat="44.74821" lon="3.22331">
        <ele>1099.89</ele>
        <time>2014-07-02T10:48:41Z</time>
      </trkpt>
      <trkpt lat="44.7482" lon="3.2233">
        <ele>1099.89</ele>
        <time>2014-07-02T10:49:07Z</time>
      </trkpt>
      <trkpt lat="44.7482" lon="3.22329">
        <ele>1099.89</ele>
        <time>2014-07-02T10:49:39Z</time>
      </trkpt>
      <trkpt lat="44.74823" lon="3.22329">
        <ele>1099.89</ele>
        <time>2014-07-02T10:50:11Z</time>
      </trkpt>
      <trkpt lat="44.7482" lon="3.22327">
        <ele>1099.89</ele>
        <time>2014-07-02T10:50:50Z</time>
      </trkpt>
      <trkpt lat="44.7482" lon="3.22329">
        <ele>1100.37</ele>
        <time>2014-07-02T10:51:33Z</time>
      </trkpt>
      <trkpt lat="44.7482" lon="3.22329">
        <ele>1100.37</ele>
        <time>2014-07-02T10:52:10Z</time>
      </trkpt>
      <trkpt lat="44.74821" lon="3.2233">
        <ele>1099.89</ele>
        <time>2014-07-02T10:52:45Z</time>
      </trkpt>
      <trkpt lat="44.74821" lon="3.22331">
        <ele>1099.89</ele>
        <time>2014-07-02T10:53:19Z</time>
      </trkpt>
      <trkpt lat="44.74822" lon="3.22331">
        <ele>1099.89</ele>
        <time>2014-07-02T10:53:47Z</time>
      </trkpt>
      <trkpt lat="44.74821" lon="3.2233">
        <ele>1099.89</ele>
        <time>2014-07-02T10:54:13Z</time>
      </trkpt>
      <trkpt lat="44.7482" lon="3.22329">
        <ele>1099.89</ele>
        <time>2014-07-02T10:54:43Z</time>
      </trkpt>
      <trkpt lat="44.7482" lon="3.2233">
        <ele>1099.89</ele>
        <time>2014-07-02T10:55:14Z</time>
      </trkpt>
      <trkpt lat="44.74822" lon="3.22331">
        <ele>1099.89</ele>
        <time>2014-07-02T10:55:38Z</time>
      </trkpt>
      <trkpt lat="44.74823" lon="3.22332">
        <ele>1099.89</ele>
        <time>2014-07-02T10:56:07Z</time>
      </trkpt>
      <trkpt lat="44.74823" lon="3.22332">
        <ele>1099.4</ele>
        <time>2014-07-02T10:56:36Z</time>
      </trkpt>
      <trkpt lat="44.7482" lon="3.2233">
        <ele>1099.4</ele>
        <time>2014-07-02T10:57:00Z</time>
      </trkpt>
      <trkpt lat="44.74819" lon="3.22329">
        <ele>1099.4</ele>
        <time>2014-07-02T10:57:38Z</time>
      </trkpt>
      <trkpt lat="44.74819" lon="3.22328">
        <ele>1099.4</ele>
        <time>2014-07-02T10:58:05Z</time>
      </trkpt>
      <trkpt lat="44.74817" lon="3.22327">
        <ele>1099.4</ele>
        <time>2014-07-02T10:58:32Z</time>
      </trkpt>
      <trkpt lat="44.74815" lon="3.22328">
        <ele>1099.4</ele>
        <time>2014-07-02T10:59:06Z</time>
      </trkpt>
      <trkpt lat="44.74815" lon="3.22327">
        <ele>1099.4</ele>
        <time>2014-07-02T10:59:37Z</time>
      </trkpt>
      <trkpt lat="44.74816" lon="3.22326">
        <ele>1099.89</ele>
        <time>2014-07-02T11:00:06Z</time>
      </trkpt>
      <trkpt lat="44.74816" lon="3.22326">
        <ele>1099.89</ele>
        <time>2014-07-02T11:00:32Z</time>
      </trkpt>
      <trkpt lat="44.74816" lon="3.22325">
        <ele>1099.89</ele>
        <time>2014-07-02T11:01:03Z</time>
      </trkpt>
      <trkpt lat="44.74815" lon="3.22326">
        <ele>1098.92</ele>
        <time>2014-07-02T11:01:29Z</time>
      </trkpt>
      <trkpt lat="44.74815" lon="3.22326">
        <ele>1098.92</ele>
        <time>2014-07-02T11:01:54Z</time>
      </trkpt>
      <trkpt lat="44.74816" lon="3.22327">
        <ele>1098.92</ele>
        <time>2014-07-02T11:02:27Z</time>
      </trkpt>
      <trkpt lat="44.74816" lon="3.22327">
        <ele>1098.92</ele>
        <time>2014-07-02T11:02:50Z</time>
      </trkpt>
      <trkpt lat="44.74816" lon="3.22327">
        <ele>1098.92</ele>
        <time>2014-07-02T11:03:20Z</time>
      </trkpt>
      <trkpt lat="44.74818" lon="3.22328">
        <ele>1098.92</ele>
        <time>2014-07-02T11:03:55Z</time>
      </trkpt>
      <trkpt lat="44.74818" lon="3.22328">
        <ele>1098.92</ele>
        <time>2014-07-02T11:04:29Z</time>
      </trkpt>
      <trkpt lat="44.74816" lon="3.22326">
        <ele>1098.92</ele>
        <time>2014-07-02T11:05:04Z</time>
      </trkpt>
      <trkpt lat="44.74817" lon="3.22327">
        <ele>1098.92</ele>
        <time>2014-07-02T11:05:35Z</time>
      </trkpt>
      <trkpt lat="44.74817" lon="3.22327">
        <ele>1098.92</ele>
        <time>2014-07-02T11:06:05Z</time>
      </trkpt>
      <trkpt lat="44.74817" lon="3.22328">
        <ele>1099.4</ele>
        <time>2014-07-02T11:06:36Z</time>
      </trkpt>
      <trkpt lat="44.74816" lon="3.22327">
        <ele>1099.4</ele>
        <time>2014-07-02T11:07:14Z</time>
      </trkpt>
      <trkpt lat="44.74817" lon="3.22327">
        <ele>1099.4</ele>
        <time>2014-07-02T11:07:39Z</time>
      </trkpt>
      <trkpt lat="44.74818" lon="3.22327">
        <ele>1099.4</ele>
        <time>2014-07-02T11:08:13Z</time>
      </trkpt>
      <trkpt lat="44.74816" lon="3.22327">
        <ele>1099.4</ele>
        <time>2014-07-02T11:08:43Z</time>
      </trkpt>
      <trkpt lat="44.74817" lon="3.22328">
        <ele>1099.4</ele>
        <time>2014-07-02T11:09:12Z</time>
      </trkpt>
      <trkpt lat="44.74817" lon="3.22327">
        <ele>1100.85</ele>
        <time>2014-07-02T11:09:36Z</time>
      </trkpt>
      <trkpt lat="44.74816" lon="3.22327">
        <ele>1100.85</ele>
        <time>2014-07-02T11:10:06Z</time>
      </trkpt>
      <trkpt lat="44.74816" lon="3.22326">
        <ele>1100.85</ele>
        <time>2014-07-02T11:10:40Z</time>
      </trkpt>
      <trkpt lat="44.74816" lon="3.22326">
        <ele>1100.85</ele>
        <time>2014-07-02T11:11:17Z</time>
      </trkpt>
      <trkpt lat="44.74814" lon="3.22326">
        <ele>1101.33</ele>
        <time>2014-07-02T11:11:51Z</time>
      </trkpt>
      <trkpt lat="44.74815" lon="3.22326">
        <ele>1101.33</ele>
        <time>2014-07-02T11:12:19Z</time>
      </trkpt>
      <trkpt lat="44.74816" lon="3.22328">
        <ele>1101.33</ele>
        <time>2014-07-02T11:12:49Z</time>
      </trkpt>
      <trkpt lat="44.74816" lon="3.22328">
        <ele>1101.33</ele>
        <time>2014-07-02T11:13:18Z</time>
      </trkpt>
      <trkpt lat="44.74815" lon="3.22327">
        <ele>1101.81</ele>
        <time>2014-07-02T11:13:53Z</time>
      </trkpt>
      <trkpt lat="44.74814" lon="3.22326">
        <ele>1100.37</ele>
        <time>2014-07-02T11:14:20Z</time>
      </trkpt>
      <trkpt lat="44.74815" lon="3.22326">
        <ele>1100.37</ele>
        <time>2014-07-02T11:14:40Z</time>
      </trkpt>
      <trkpt lat="44.74814" lon="3.22325">
        <ele>1100.85</ele>
        <time>2014-07-02T11:15:04Z</time>
      </trkpt>
      <trkpt lat="44.74815" lon="3.22325">
        <ele>1100.85</ele>
        <time>2014-07-02T11:15:32Z</time>
      </trkpt>
      <trkpt lat="44.74815" lon="3.22324">
        <ele>1100.85</ele>
        <time>2014-07-02T11:16:03Z</time>
      </trkpt>
      <trkpt lat="44.74814" lon="3.22324">
        <ele>1100.85</ele>
        <time>2014-07-02T11:16:29Z</time>
      </trkpt>
      <trkpt lat="44.74816" lon="3.22327">
        <ele>1101.33</ele>
        <time>2014-07-02T11:16:59Z</time>
      </trkpt>
      <trkpt lat="44.74815" lon="3.22326">
        <ele>1101.33</ele>
        <time>2014-07-02T11:17:30Z</time>
      </trkpt>
      <trkpt lat="44.74816" lon="3.22327">
        <ele>1101.33</ele>
        <time>2014-07-02T11:18:02Z</time>
      </trkpt>
      <trkpt lat="44.74815" lon="3.22326">
        <ele>1101.33</ele>
        <time>2014-07-02T11:18:40Z</time>
      </trkpt>
      <trkpt lat="44.74815" lon="3.22324">
        <ele>1101.81</ele>
        <time>2014-07-02T11:19:21Z</time>
      </trkpt>
      <trkpt lat="44.74815" lon="3.22326">
        <ele>1101.81</ele>
        <time>2014-07-02T11:19:55Z</time>
      </trkpt>
      <trkpt lat="44.74813" lon="3.22325">
        <ele>1101.81</ele>
        <time>2014-07-02T11:20:27Z</time>
      </trkpt>
      <trkpt lat="44.74815" lon="3.22325">
        <ele>1102.29</ele>
        <time>2014-07-02T11:21:04Z</time>
      </trkpt>
      <trkpt lat="44.74813" lon="3.22325">
        <ele>1102.29</ele>
        <time>2014-07-02T11:21:39Z</time>
      </trkpt>
      <trkpt lat="44.74813" lon="3.22325">
        <ele>1102.77</ele>
        <time>2014-07-02T11:22:08Z</time>
      </trkpt>
      <trkpt lat="44.74814" lon="3.22325">
        <ele>1102.77</ele>
        <time>2014-07-02T11:22:47Z</time>
      </trkpt>
      <trkpt lat="44.74816" lon="3.22326">
        <ele>1102.77</ele>
        <time>2014-07-02T11:23:21Z</time>
      </trkpt>
      <trkpt lat="44.74817" lon="3.22326">
        <ele>1102.77</ele>
        <time>2014-07-02T11:23:51Z</time>
      </trkpt>
      <trkpt lat="44.74818" lon="3.22328">
        <ele>1103.25</ele>
        <time>2014-07-02T11:24:27Z</time>
      </trkpt>
      <trkpt lat="44.74819" lon="3.2233">
        <ele>1103.25</ele>
        <time>2014-07-02T11:24:57Z</time>
      </trkpt>
      <trkpt lat="44.74818" lon="3.22328">
        <ele>1103.25</ele>
        <time>2014-07-02T11:25:27Z</time>
      </trkpt>
      <trkpt lat="44.74819" lon="3.22329">
        <ele>1103.25</ele>
        <time>2014-07-02T11:25:52Z</time>
      </trkpt>
      <trkpt lat="44.74817" lon="3.22328">
        <ele>1104.69</ele>
        <time>2014-07-02T11:26:21Z</time>
      </trkpt>
      <trkpt lat="44.74817" lon="3.22328">
        <ele>1104.69</ele>
        <time>2014-07-02T11:26:22Z</time>
      </trkpt>
      <trkpt lat="44.74818" lon="3.22326">
        <ele>1104.69</ele>
        <time>2014-07-02T11:26:34Z</time>
      </trkpt>
      <trkpt lat="44.74821" lon="3.22325">
        <ele>1104.69</ele>
        <time>2014-07-02T11:26:49Z</time>
      </trkpt>
      <trkpt lat="44.74822" lon="3.22327">
        <ele>1104.69</ele>
        <time>2014-07-02T11:27:11Z</time>
      </trkpt>
      <trkpt lat="44.74824" lon="3.22327">
        <ele>1104.69</ele>
        <time>2014-07-02T11:27:30Z</time>
      </trkpt>
      <trkpt lat="44.74823" lon="3.22323">
        <ele>1104.69</ele>
        <time>2014-07-02T11:27:53Z</time>
      </trkpt>
      <trkpt lat="44.74829" lon="3.2232">
        <ele>1104.69</ele>
        <time>2014-07-02T11:28:07Z</time>
      </trkpt>
      <trkpt lat="44.74831" lon="3.22312">
        <ele>1104.69</ele>
        <time>2014-07-02T11:28:17Z</time>
      </trkpt>
      <trkpt lat="44.74832" lon="3.22311">
        <ele>1104.69</ele>
        <time>2014-07-02T11:28:18Z</time>
      </trkpt>
      <trkpt lat="44.74833" lon="3.22308">
        <ele>1103.25</ele>
        <time>2014-07-02T11:28:20Z</time>
      </trkpt>
      <trkpt lat="44.74834" lon="3.22304">
        <ele>1104.69</ele>
        <time>2014-07-02T11:28:25Z</time>
      </trkpt>
      <trkpt lat="44.74834" lon="3.22312">
        <ele>1104.69</ele>
        <time>2014-07-02T11:28:41Z</time>
      </trkpt>
      <trkpt lat="44.74831" lon="3.22323">
        <ele>1104.69</ele>
        <time>2014-07-02T11:28:53Z</time>
      </trkpt>
      <trkpt lat="44.74828" lon="3.22325">
        <ele>1104.69</ele>
        <time>2014-07-02T11:29:08Z</time>
      </trkpt>
      <trkpt lat="44.74829" lon="3.22323">
        <ele>1104.69</ele>
        <time>2014-07-02T11:29:26Z</time>
      </trkpt>
      <trkpt lat="44.74832" lon="3.22323">
        <ele>1104.21</ele>
        <time>2014-07-02T11:29:48Z</time>
      </trkpt>
      <trkpt lat="44.74836" lon="3.22327">
        <ele>1104.21</ele>
        <time>2014-07-02T11:30:00Z</time>
      </trkpt>
      <trkpt lat="44.74837" lon="3.22334">
        <ele>1103.25</ele>
        <time>2014-07-02T11:30:10Z</time>
      </trkpt>
      <trkpt lat="44.74841" lon="3.2235">
        <ele>1101.81</ele>
        <time>2014-07-02T11:30:28Z</time>
      </trkpt>
      <trkpt lat="44.74842" lon="3.22353">
        <ele>1101.33</ele>
        <time>2014-07-02T11:30:44Z</time>
      </trkpt>
      <trkpt lat="44.7484" lon="3.22349">
        <ele>1101.33</ele>
        <time>2014-07-02T11:30:57Z</time>
      </trkpt>
      <trkpt lat="44.74841" lon="3.22357">
        <ele>1100.85</ele>
        <time>2014-07-02T11:31:11Z</time>
      </trkpt>
      <trkpt lat="44.74841" lon="3.22369">
        <ele>1099.89</ele>
        <time>2014-07-02T11:31:24Z</time>
      </trkpt>
      <trkpt lat="44.7484" lon="3.2237">
        <ele>1099.89</ele>
        <time>2014-07-02T11:31:25Z</time>
      </trkpt>
      <trkpt lat="44.74838" lon="3.22378">
        <ele>1099.4</ele>
        <time>2014-07-02T11:31:40Z</time>
      </trkpt>
      <trkpt lat="44.74837" lon="3.22374">
        <ele>1099.4</ele>
        <time>2014-07-02T11:31:52Z</time>
      </trkpt>
      <trkpt lat="44.74837" lon="3.22386">
        <ele>1098.92</ele>
        <time>2014-07-02T11:32:07Z</time>
      </trkpt>
      <trkpt lat="44.74835" lon="3.2239">
        <ele>1097.96</ele>
        <time>2014-07-02T11:32:21Z</time>
      </trkpt>
      <trkpt lat="44.74832" lon="3.22399">
        <ele>1097.96</ele>
        <time>2014-07-02T11:32:33Z</time>
      </trkpt>
      <trkpt lat="44.74829" lon="3.22407">
        <ele>1097.96</ele>
        <time>2014-07-02T11:32:40Z</time>
      </trkpt>
      <trkpt lat="44.74823" lon="3.22416">
        <ele>1097.48</ele>
        <time>2014-07-02T11:32:53Z</time>
      </trkpt>
      <trkpt lat="44.74819" lon="3.22423">
        <ele>1097.48</ele>
        <time>2014-07-02T11:33:10Z</time>
      </trkpt>
      <trkpt lat="44.74821" lon="3.22426">
        <ele>1097.48</ele>
        <time>2014-07-02T11:33:12Z</time>
      </trkpt>
      <trkpt lat="44.74819" lon="3.22442">
        <ele>1097</ele>
        <time>2014-07-02T11:33:24Z</time>
      </trkpt>
      <trkpt lat="44.74816" lon="3.22449">
        <ele>1097</ele>
        <time>2014-07-02T11:33:30Z</time>
      </trkpt>
      <trkpt lat="44.74815" lon="3.22451">
        <ele>1097</ele>
        <time>2014-07-02T11:33:32Z</time>
      </trkpt>
      <trkpt lat="44.74805" lon="3.22464">
        <ele>1097</ele>
        <time>2014-07-02T11:33:46Z</time>
      </trkpt>
      <trkpt lat="44.74798" lon="3.22475">
        <ele>1096.52</ele>
        <time>2014-07-02T11:33:58Z</time>
      </trkpt>
      <trkpt lat="44.74791" lon="3.22487">
        <ele>1096.52</ele>
        <time>2014-07-02T11:34:09Z</time>
      </trkpt>
      <trkpt lat="44.74787" lon="3.22495">
        <ele>1096.04</ele>
        <time>2014-07-02T11:34:17Z</time>
      </trkpt>
      <trkpt lat="44.74783" lon="3.22511">
        <ele>1095.08</ele>
        <time>2014-07-02T11:34:32Z</time>
      </trkpt>
      <trkpt lat="44.74781" lon="3.22524">
        <ele>1094.12</ele>
        <time>2014-07-02T11:34:46Z</time>
      </trkpt>
      <trkpt lat="44.74781" lon="3.22535">
        <ele>1093.64</ele>
        <time>2014-07-02T11:35:04Z</time>
      </trkpt>
      <trkpt lat="44.74781" lon="3.22544">
        <ele>1093.16</ele>
        <time>2014-07-02T11:35:11Z</time>
      </trkpt>
      <trkpt lat="44.7478" lon="3.22555">
        <ele>1091.71</ele>
        <time>2014-07-02T11:35:19Z</time>
      </trkpt>
      <trkpt lat="44.74779" lon="3.22576">
        <ele>1089.31</ele>
        <time>2014-07-02T11:35:35Z</time>
      </trkpt>
      <trkpt lat="44.74774" lon="3.22595">
        <ele>1087.87</ele>
        <time>2014-07-02T11:35:50Z</time>
      </trkpt>
      <trkpt lat="44.74774" lon="3.22598">
        <ele>1087.39</ele>
        <time>2014-07-02T11:35:52Z</time>
      </trkpt>
      <trkpt lat="44.74768" lon="3.22617">
        <ele>1085.47</ele>
        <time>2014-07-02T11:36:08Z</time>
      </trkpt>
      <trkpt lat="44.7476" lon="3.22635">
        <ele>1084.5</ele>
        <time>2014-07-02T11:36:24Z</time>
      </trkpt>
      <trkpt lat="44.74757" lon="3.22643">
        <ele>1084.5</ele>
        <time>2014-07-02T11:36:31Z</time>
      </trkpt>
      <trkpt lat="44.74753" lon="3.22664">
        <ele>1084.02</ele>
        <time>2014-07-02T11:36:47Z</time>
      </trkpt>
      <trkpt lat="44.74757" lon="3.2267">
        <ele>1083.06</ele>
        <time>2014-07-02T11:37:00Z</time>
      </trkpt>
      <trkpt lat="44.74756" lon="3.22669">
        <ele>1082.58</ele>
        <time>2014-07-02T11:37:11Z</time>
      </trkpt>
      <trkpt lat="44.74753" lon="3.22667">
        <ele>1082.58</ele>
        <time>2014-07-02T11:37:39Z</time>
      </trkpt>
      <trkpt lat="44.74752" lon="3.22668">
        <ele>1082.58</ele>
        <time>2014-07-02T11:37:58Z</time>
      </trkpt>
      <trkpt lat="44.74758" lon="3.22675">
        <ele>1082.58</ele>
        <time>2014-07-02T11:38:18Z</time>
      </trkpt>
      <trkpt lat="44.7477" lon="3.22685">
        <ele>1081.62</ele>
        <time>2014-07-02T11:38:34Z</time>
      </trkpt>
      <trkpt lat="44.74783" lon="3.22699">
        <ele>1080.66</ele>
        <time>2014-07-02T11:38:53Z</time>
      </trkpt>
      <trkpt lat="44.74791" lon="3.22708">
        <ele>1080.66</ele>
        <time>2014-07-02T11:39:08Z</time>
      </trkpt>
      <trkpt lat="44.74805" lon="3.22717">
        <ele>1079.7</ele>
        <time>2014-07-02T11:39:27Z</time>
      </trkpt>
      <trkpt lat="44.74818" lon="3.22726">
        <ele>1079.22</ele>
        <time>2014-07-02T11:39:43Z</time>
      </trkpt>
      <trkpt lat="44.74831" lon="3.22742">
        <ele>1078.26</ele>
        <time>2014-07-02T11:40:00Z</time>
      </trkpt>
      <trkpt lat="44.74841" lon="3.22759">
        <ele>1077.78</ele>
        <time>2014-07-02T11:40:15Z</time>
      </trkpt>
      <trkpt lat="44.74847" lon="3.2278">
        <ele>1077.29</ele>
        <time>2014-07-02T11:40:32Z</time>
      </trkpt>
      <trkpt lat="44.74848" lon="3.22791">
        <ele>1076.81</ele>
        <time>2014-07-02T11:40:42Z</time>
      </trkpt>
      <trkpt lat="44.74848" lon="3.22812">
        <ele>1076.33</ele>
        <time>2014-07-02T11:40:58Z</time>
      </trkpt>
      <trkpt lat="44.74849" lon="3.22827">
        <ele>1075.85</ele>
        <time>2014-07-02T11:41:12Z</time>
      </trkpt>
      <trkpt lat="44.74851" lon="3.2284">
        <ele>1074.41</ele>
        <time>2014-07-02T11:41:27Z</time>
      </trkpt>
      <trkpt lat="44.74853" lon="3.22849">
        <ele>1072.49</ele>
        <time>2014-07-02T11:41:40Z</time>
      </trkpt>
      <trkpt lat="44.74856" lon="3.22858">
        <ele>1071.05</ele>
        <time>2014-07-02T11:41:56Z</time>
      </trkpt>
      <trkpt lat="44.74857" lon="3.22863">
        <ele>1070.08</ele>
        <time>2014-07-02T11:42:08Z</time>
      </trkpt>
      <trkpt lat="44.74858" lon="3.22869">
        <ele>1069.12</ele>
        <time>2014-07-02T11:42:19Z</time>
      </trkpt>
      <trkpt lat="44.74858" lon="3.22883">
        <ele>1066.24</ele>
        <time>2014-07-02T11:42:34Z</time>
      </trkpt>
      <trkpt lat="44.74855" lon="3.22895">
        <ele>1064.32</ele>
        <time>2014-07-02T11:42:48Z</time>
      </trkpt>
      <trkpt lat="44.74851" lon="3.22911">
        <ele>1061.43</ele>
        <time>2014-07-02T11:43:03Z</time>
      </trkpt>
      <trkpt lat="44.7485" lon="3.22931">
        <ele>1059.51</ele>
        <time>2014-07-02T11:43:18Z</time>
      </trkpt>
      <trkpt lat="44.74854" lon="3.22953">
        <ele>1057.11</ele>
        <time>2014-07-02T11:43:35Z</time>
      </trkpt>
      <trkpt lat="44.74861" lon="3.22974">
        <ele>1055.67</ele>
        <time>2014-07-02T11:43:53Z</time>
      </trkpt>
      <trkpt lat="44.74864" lon="3.22978">
        <ele>1055.18</ele>
        <time>2014-07-02T11:43:58Z</time>
      </trkpt>
      <trkpt lat="44.74869" lon="3.22986">
        <ele>1056.63</ele>
        <time>2014-07-02T11:44:07Z</time>
      </trkpt>
      <trkpt lat="44.74866" lon="3.22997">
        <ele>1058.07</ele>
        <time>2014-07-02T11:44:17Z</time>
      </trkpt>
      <trkpt lat="44.74861" lon="3.23005">
        <ele>1058.55</ele>
        <time>2014-07-02T11:44:24Z</time>
      </trkpt>
      <trkpt lat="44.74861" lon="3.23008">
        <ele>1058.55</ele>
        <time>2014-07-02T11:44:26Z</time>
      </trkpt>
      <trkpt lat="44.74854" lon="3.23026">
        <ele>1059.03</ele>
        <time>2014-07-02T11:44:40Z</time>
      </trkpt>
      <trkpt lat="44.74845" lon="3.23048">
        <ele>1059.03</ele>
        <time>2014-07-02T11:44:58Z</time>
      </trkpt>
      <trkpt lat="44.74836" lon="3.23066">
        <ele>1059.51</ele>
        <time>2014-07-02T11:45:14Z</time>
      </trkpt>
      <trkpt lat="44.7483" lon="3.23084">
        <ele>1060.47</ele>
        <time>2014-07-02T11:45:28Z</time>
      </trkpt>
      <trkpt lat="44.7483" lon="3.23085">
        <ele>1060.47</ele>
        <time>2014-07-02T11:45:29Z</time>
      </trkpt>
      <trkpt lat="44.74826" lon="3.23105">
        <ele>1060.95</ele>
        <time>2014-07-02T11:45:43Z</time>
      </trkpt>
      <trkpt lat="44.74826" lon="3.23114">
        <ele>1061.43</ele>
        <time>2014-07-02T11:45:50Z</time>
      </trkpt>
      <trkpt lat="44.74824" lon="3.23135">
        <ele>1062.87</ele>
        <time>2014-07-02T11:46:04Z</time>
      </trkpt>
      <trkpt lat="44.74822" lon="3.2315">
        <ele>1063.84</ele>
        <time>2014-07-02T11:46:15Z</time>
      </trkpt>
      <trkpt lat="44.74822" lon="3.23162">
        <ele>1064.32</ele>
        <time>2014-07-02T11:46:23Z</time>
      </trkpt>
      <trkpt lat="44.74822" lon="3.23184">
        <ele>1064.32</ele>
        <time>2014-07-02T11:46:38Z</time>
      </trkpt>
      <trkpt lat="44.74824" lon="3.232">
        <ele>1065.28</ele>
        <time>2014-07-02T11:46:51Z</time>
      </trkpt>
      <trkpt lat="44.74826" lon="3.23213">
        <ele>1066.24</ele>
        <time>2014-07-02T11:47:02Z</time>
      </trkpt>
      <trkpt lat="44.74826" lon="3.23215">
        <ele>1066.72</ele>
        <time>2014-07-02T11:47:04Z</time>
      </trkpt>
      <trkpt lat="44.74828" lon="3.23219">
        <ele>1067.2</ele>
        <time>2014-07-02T11:47:07Z</time>
      </trkpt>
      <trkpt lat="44.74829" lon="3.23224">
        <ele>1067.2</ele>
        <time>2014-07-02T11:47:10Z</time>
      </trkpt>
      <trkpt lat="44.74834" lon="3.23244">
        <ele>1068.16</ele>
        <time>2014-07-02T11:47:25Z</time>
      </trkpt>
      <trkpt lat="44.74839" lon="3.23262">
        <ele>1068.64</ele>
        <time>2014-07-02T11:47:40Z</time>
      </trkpt>
      <trkpt lat="44.74846" lon="3.23284">
        <ele>1068.64</ele>
        <time>2014-07-02T11:47:56Z</time>
      </trkpt>
      <trkpt lat="44.74849" lon="3.23288">
        <ele>1067.2</ele>
        <time>2014-07-02T11:48:00Z</time>
      </trkpt>
      <trkpt lat="44.74857" lon="3.23297">
        <ele>1065.76</ele>
        <time>2014-07-02T11:48:15Z</time>
      </trkpt>
      <trkpt lat="44.74865" lon="3.23303">
        <ele>1063.84</ele>
        <time>2014-07-02T11:48:30Z</time>
      </trkpt>
      <trkpt lat="44.74878" lon="3.23307">
        <ele>1062.39</ele>
        <time>2014-07-02T11:48:46Z</time>
      </trkpt>
      <trkpt lat="44.74891" lon="3.23308">
        <ele>1060.95</ele>
        <time>2014-07-02T11:49:01Z</time>
      </trkpt>
      <trkpt lat="44.74891" lon="3.23308">
        <ele>1060.95</ele>
        <time>2014-07-02T11:49:02Z</time>
      </trkpt>
      <trkpt lat="44.74906" lon="3.23311">
        <ele>1059.51</ele>
        <time>2014-07-02T11:49:18Z</time>
      </trkpt>
      <trkpt lat="44.74917" lon="3.23317">
        <ele>1058.55</ele>
        <time>2014-07-02T11:49:30Z</time>
      </trkpt>
      <trkpt lat="44.74932" lon="3.23325">
        <ele>1057.59</ele>
        <time>2014-07-02T11:49:46Z</time>
      </trkpt>
      <trkpt lat="44.74946" lon="3.23334">
        <ele>1057.59</ele>
        <time>2014-07-02T11:50:02Z</time>
      </trkpt>
      <trkpt lat="44.7496" lon="3.23341">
        <ele>1057.59</ele>
        <time>2014-07-02T11:50:18Z</time>
      </trkpt>
      <trkpt lat="44.74963" lon="3.23343">
        <ele>1056.63</ele>
        <time>2014-07-02T11:50:22Z</time>
      </trkpt>
      <trkpt lat="44.74965" lon="3.23347">
        <ele>1055.67</ele>
        <time>2014-07-02T11:50:26Z</time>
      </trkpt>
      <trkpt lat="44.74978" lon="3.23362">
        <ele>1053.74</ele>
        <time>2014-07-02T11:50:43Z</time>
      </trkpt>
      <trkpt lat="44.74991" lon="3.23373">
        <ele>1051.34</ele>
        <time>2014-07-02T11:51:01Z</time>
      </trkpt>
      <trkpt lat="44.75003" lon="3.23378">
        <ele>1049.42</ele>
        <time>2014-07-02T11:51:16Z</time>
      </trkpt>
      <trkpt lat="44.75004" lon="3.2338">
        <ele>1049.42</ele>
        <time>2014-07-02T11:51:18Z</time>
      </trkpt>
      <trkpt lat="44.7501" lon="3.23391">
        <ele>1047.97</ele>
        <time>2014-07-02T11:51:28Z</time>
      </trkpt>
      <trkpt lat="44.75021" lon="3.23408">
        <ele>1046.05</ele>
        <time>2014-07-02T11:51:47Z</time>
      </trkpt>
      <trkpt lat="44.75029" lon="3.23426">
        <ele>1044.61</ele>
        <time>2014-07-02T11:52:03Z</time>
      </trkpt>
      <trkpt lat="44.75023" lon="3.23448">
        <ele>1043.65</ele>
        <time>2014-07-02T11:52:19Z</time>
      </trkpt>
      <trkpt lat="44.7501" lon="3.2346">
        <ele>1042.21</ele>
        <time>2014-07-02T11:52:34Z</time>
      </trkpt>
      <trkpt lat="44.75006" lon="3.23466">
        <ele>1041.25</ele>
        <time>2014-07-02T11:52:48Z</time>
      </trkpt>
      <trkpt lat="44.74998" lon="3.23479">
        <ele>1040.28</ele>
        <time>2014-07-02T11:53:02Z</time>
      </trkpt>
      <trkpt lat="44.74994" lon="3.23503">
        <ele>1038.84</ele>
        <time>2014-07-02T11:53:19Z</time>
      </trkpt>
      <trkpt lat="44.74987" lon="3.23525">
        <ele>1037.88</ele>
        <time>2014-07-02T11:53:36Z</time>
      </trkpt>
      <trkpt lat="44.74977" lon="3.23543">
        <ele>1036.44</ele>
        <time>2014-07-02T11:53:52Z</time>
      </trkpt>
      <trkpt lat="44.74973" lon="3.23563">
        <ele>1035.96</ele>
        <time>2014-07-02T11:54:12Z</time>
      </trkpt>
      <trkpt lat="44.7497" lon="3.23577">
        <ele>1035.48</ele>
        <time>2014-07-02T11:54:31Z</time>
      </trkpt>
      <trkpt lat="44.74968" lon="3.23601">
        <ele>1035.48</ele>
        <time>2014-07-02T11:54:47Z</time>
      </trkpt>
      <trkpt lat="44.74966" lon="3.23629">
        <ele>1034.52</ele>
        <time>2014-07-02T11:55:05Z</time>
      </trkpt>
      <trkpt lat="44.74967" lon="3.23654">
        <ele>1034.04</ele>
        <time>2014-07-02T11:55:21Z</time>
      </trkpt>
      <trkpt lat="44.7497" lon="3.23682">
        <ele>1034.04</ele>
        <time>2014-07-02T11:55:39Z</time>
      </trkpt>
      <trkpt lat="44.74972" lon="3.23704">
        <ele>1034.04</ele>
        <time>2014-07-02T11:55:54Z</time>
      </trkpt>
      <trkpt lat="44.74973" lon="3.23715">
        <ele>1034.04</ele>
        <time>2014-07-02T11:56:02Z</time>
      </trkpt>
      <trkpt lat="44.74972" lon="3.23744">
        <ele>1034.04</ele>
        <time>2014-07-02T11:56:20Z</time>
      </trkpt>
      <trkpt lat="44.74972" lon="3.23765">
        <ele>1034.04</ele>
        <time>2014-07-02T11:56:34Z</time>
      </trkpt>
      <trkpt lat="44.74972" lon="3.2377">
        <ele>1034.04</ele>
        <time>2014-07-02T11:56:37Z</time>
      </trkpt>
      <trkpt lat="44.74971" lon="3.23774">
        <ele>1034.04</ele>
        <time>2014-07-02T11:56:40Z</time>
      </trkpt>
      <trkpt lat="44.74967" lon="3.23794">
        <ele>1035.96</ele>
        <time>2014-07-02T11:56:56Z</time>
      </trkpt>
      <trkpt lat="44.74966" lon="3.23796">
        <ele>1035.96</ele>
        <time>2014-07-02T11:56:57Z</time>
      </trkpt>
      <trkpt lat="44.74957" lon="3.2382">
        <ele>1035.96</ele>
        <time>2014-07-02T11:57:14Z</time>
      </trkpt>
      <trkpt lat="44.74947" lon="3.23836">
        <ele>1035.96</ele>
        <time>2014-07-02T11:57:27Z</time>
      </trkpt>
      <trkpt lat="44.74933" lon="3.23858">
        <ele>1035.96</ele>
        <time>2014-07-02T11:57:45Z</time>
      </trkpt>
      <trkpt lat="44.74929" lon="3.23864">
        <ele>1034.52</ele>
        <time>2014-07-02T11:57:50Z</time>
      </trkpt>
      <trkpt lat="44.74926" lon="3.23884">
        <ele>1034.52</ele>
        <time>2014-07-02T11:58:05Z</time>
      </trkpt>
      <trkpt lat="44.74927" lon="3.23888">
        <ele>1034.52</ele>
        <time>2014-07-02T11:58:08Z</time>
      </trkpt>
      <trkpt lat="44.74928" lon="3.23892">
        <ele>1034.52</ele>
        <time>2014-07-02T11:58:11Z</time>
      </trkpt>
      <trkpt lat="44.74938" lon="3.23911">
        <ele>1035.96</ele>
        <time>2014-07-02T11:58:27Z</time>
      </trkpt>
      <trkpt lat="44.74949" lon="3.23928">
        <ele>1036.44</ele>
        <time>2014-07-02T11:58:41Z</time>
      </trkpt>
      <trkpt lat="44.74951" lon="3.23931">
        <ele>1036.44</ele>
        <time>2014-07-02T11:58:44Z</time>
      </trkpt>
      <trkpt lat="44.7496" lon="3.23951">
        <ele>1036.44</ele>
        <time>2014-07-02T11:59:00Z</time>
      </trkpt>
      <trkpt lat="44.74965" lon="3.23966">
        <ele>1035.96</ele>
        <time>2014-07-02T11:59:11Z</time>
      </trkpt>
      <trkpt lat="44.74975" lon="3.23991">
        <ele>1035.96</ele>
        <time>2014-07-02T11:59:26Z</time>
      </trkpt>
      <trkpt lat="44.74983" lon="3.24016">
        <ele>1035</ele>
        <time>2014-07-02T11:59:43Z</time>
      </trkpt>
      <trkpt lat="44.74986" lon="3.2404">
        <ele>1032.59</ele>
        <time>2014-07-02T12:00:00Z</time>
      </trkpt>
      <trkpt lat="44.74989" lon="3.24063">
        <ele>1031.15</ele>
        <time>2014-07-02T12:00:16Z</time>
      </trkpt>
      <trkpt lat="44.7499" lon="3.24065">
        <ele>1031.15</ele>
        <time>2014-07-02T12:00:18Z</time>
      </trkpt>
      <trkpt lat="44.74991" lon="3.24068">
        <ele>1031.15</ele>
        <time>2014-07-02T12:00:20Z</time>
      </trkpt>
      <trkpt lat="44.74997" lon="3.2409">
        <ele>1031.15</ele>
        <time>2014-07-02T12:00:37Z</time>
      </trkpt>
      <trkpt lat="44.75" lon="3.24103">
        <ele>1030.67</ele>
        <time>2014-07-02T12:00:49Z</time>
      </trkpt>
      <trkpt lat="44.74998" lon="3.24135">
        <ele>1027.79</ele>
        <time>2014-07-02T12:01:09Z</time>
      </trkpt>
      <trkpt lat="44.74995" lon="3.24161">
        <ele>1026.83</ele>
        <time>2014-07-02T12:01:26Z</time>
      </trkpt>
      <trkpt lat="44.74995" lon="3.24163">
        <ele>1026.83</ele>
        <time>2014-07-02T12:01:27Z</time>
      </trkpt>
      <trkpt lat="44.74993" lon="3.24188">
        <ele>1026.34</ele>
        <time>2014-07-02T12:01:42Z</time>
      </trkpt>
      <trkpt lat="44.7499" lon="3.24213">
        <ele>1025.86</ele>
        <time>2014-07-02T12:01:59Z</time>
      </trkpt>
      <trkpt lat="44.7499" lon="3.24224">
        <ele>1025.86</ele>
        <time>2014-07-02T12:02:05Z</time>
      </trkpt>
      <trkpt lat="44.74998" lon="3.24248">
        <ele>1025.86</ele>
        <time>2014-07-02T12:02:21Z</time>
      </trkpt>
      <trkpt lat="44.75006" lon="3.24266">
        <ele>1025.86</ele>
        <time>2014-07-02T12:02:33Z</time>
      </trkpt>
      <trkpt lat="44.75014" lon="3.24286">
        <ele>1025.38</ele>
        <time>2014-07-02T12:02:47Z</time>
      </trkpt>
      <trkpt lat="44.7502" lon="3.24303">
        <ele>1024.9</ele>
        <time>2014-07-02T12:03:00Z</time>
      </trkpt>
      <trkpt lat="44.75022" lon="3.24314">
        <ele>1024.9</ele>
        <time>2014-07-02T12:03:07Z</time>
      </trkpt>
      <trkpt lat="44.75025" lon="3.24338">
        <ele>1024.42</ele>
        <time>2014-07-02T12:03:24Z</time>
      </trkpt>
      <trkpt lat="44.75029" lon="3.24352">
        <ele>1024.42</ele>
        <time>2014-07-02T12:03:35Z</time>
      </trkpt>
      <trkpt lat="44.75031" lon="3.24378">
        <ele>1024.42</ele>
        <time>2014-07-02T12:03:52Z</time>
      </trkpt>
      <trkpt lat="44.75031" lon="3.24383">
        <ele>1024.42</ele>
        <time>2014-07-02T12:03:55Z</time>
      </trkpt>
      <trkpt lat="44.75023" lon="3.24409">
        <ele>1023.94</ele>
        <time>2014-07-02T12:04:13Z</time>
      </trkpt>
      <trkpt lat="44.75018" lon="3.24428">
        <ele>1022.98</ele>
        <time>2014-07-02T12:04:28Z</time>
      </trkpt>
      <trkpt lat="44.75015" lon="3.24432">
        <ele>1022.98</ele>
        <time>2014-07-02T12:04:32Z</time>
      </trkpt>
      <trkpt lat="44.75011" lon="3.24448">
        <ele>1022.98</ele>
        <time>2014-07-02T12:04:47Z</time>
      </trkpt>
      <trkpt lat="44.74999" lon="3.24468">
        <ele>1022.98</ele>
        <time>2014-07-02T12:05:04Z</time>
      </trkpt>
      <trkpt lat="44.74998" lon="3.24472">
        <ele>1022.98</ele>
        <time>2014-07-02T12:05:07Z</time>
      </trkpt>
      <trkpt lat="44.74996" lon="3.24476">
        <ele>1022.98</ele>
        <time>2014-07-02T12:05:11Z</time>
      </trkpt>
      <trkpt lat="44.74992" lon="3.24488">
        <ele>1022.5</ele>
        <time>2014-07-02T12:05:20Z</time>
      </trkpt>
      <trkpt lat="44.74987" lon="3.24513">
        <ele>1022.5</ele>
        <time>2014-07-02T12:05:36Z</time>
      </trkpt>
      <trkpt lat="44.74986" lon="3.24515">
        <ele>1022.5</ele>
        <time>2014-07-02T12:05:37Z</time>
      </trkpt>
      <trkpt lat="44.74979" lon="3.24535">
        <ele>1022.5</ele>
        <time>2014-07-02T12:05:53Z</time>
      </trkpt>
      <trkpt lat="44.74971" lon="3.24551">
        <ele>1022.5</ele>
        <time>2014-07-02T12:06:05Z</time>
      </trkpt>
      <trkpt lat="44.74961" lon="3.24567">
        <ele>1022.5</ele>
        <time>2014-07-02T12:06:19Z</time>
      </trkpt>
      <trkpt lat="44.74949" lon="3.24588">
        <ele>1022.02</ele>
        <time>2014-07-02T12:06:37Z</time>
      </trkpt>
      <trkpt lat="44.74937" lon="3.24608">
        <ele>1021.06</ele>
        <time>2014-07-02T12:06:55Z</time>
      </trkpt>
      <trkpt lat="44.74928" lon="3.24631">
        <ele>1020.58</ele>
        <time>2014-07-02T12:07:11Z</time>
      </trkpt>
      <trkpt lat="44.74928" lon="3.24633">
        <ele>1020.58</ele>
        <time>2014-07-02T12:07:13Z</time>
      </trkpt>
      <trkpt lat="44.74926" lon="3.24657">
        <ele>1020.1</ele>
        <time>2014-07-02T12:07:30Z</time>
      </trkpt>
      <trkpt lat="44.74923" lon="3.24681">
        <ele>1020.1</ele>
        <time>2014-07-02T12:07:47Z</time>
      </trkpt>
      <trkpt lat="44.74921" lon="3.24696">
        <ele>1019.62</ele>
        <time>2014-07-02T12:08:01Z</time>
      </trkpt>
      <trkpt lat="44.7492" lon="3.24701">
        <ele>1021.06</ele>
        <time>2014-07-02T12:08:05Z</time>
      </trkpt>
      <trkpt lat="44.74919" lon="3.24709">
        <ele>1021.06</ele>
        <time>2014-07-02T12:08:11Z</time>
      </trkpt>
      <trkpt lat="44.74918" lon="3.24715">
        <ele>1019.62</ele>
        <time>2014-07-02T12:08:15Z</time>
      </trkpt>
      <trkpt lat="44.74909" lon="3.24729">
        <ele>1018.17</ele>
        <time>2014-07-02T12:08:28Z</time>
      </trkpt>
      <trkpt lat="44.74902" lon="3.24728">
        <ele>1017.69</ele>
        <time>2014-07-02T12:08:41Z</time>
      </trkpt>
      <trkpt lat="44.74908" lon="3.24732">
        <ele>1017.21</ele>
        <time>2014-07-02T12:08:57Z</time>
      </trkpt>
      <trkpt lat="44.74909" lon="3.24733">
        <ele>1017.21</ele>
        <time>2014-07-02T12:08:58Z</time>
      </trkpt>
      <trkpt lat="44.7491" lon="3.24736">
        <ele>1018.65</ele>
        <time>2014-07-02T12:09:00Z</time>
      </trkpt>
      <trkpt lat="44.7491" lon="3.2474">
        <ele>1019.13</ele>
        <time>2014-07-02T12:09:03Z</time>
      </trkpt>
      <trkpt lat="44.7491" lon="3.24748">
        <ele>1019.13</ele>
        <time>2014-07-02T12:09:08Z</time>
      </trkpt>
      <trkpt lat="44.74907" lon="3.2475">
        <ele>1018.65</ele>
        <time>2014-07-02T12:09:11Z</time>
      </trkpt>
      <trkpt lat="44.74903" lon="3.24748">
        <ele>1019.13</ele>
        <time>2014-07-02T12:09:26Z</time>
      </trkpt>
      <trkpt lat="44.74901" lon="3.24747">
        <ele>1019.13</ele>
        <time>2014-07-02T12:09:47Z</time>
      </trkpt>
      <trkpt lat="44.74908" lon="3.24756">
        <ele>1019.13</ele>
        <time>2014-07-02T12:09:56Z</time>
      </trkpt>
      <trkpt lat="44.74907" lon="3.24779">
        <ele>1017.69</ele>
        <time>2014-07-02T12:10:11Z</time>
      </trkpt>
      <trkpt lat="44.74905" lon="3.24807">
        <ele>1017.69</ele>
        <time>2014-07-02T12:10:29Z</time>
      </trkpt>
      <trkpt lat="44.74903" lon="3.24815">
        <ele>1017.69</ele>
        <time>2014-07-02T12:10:42Z</time>
      </trkpt>
      <trkpt lat="44.74902" lon="3.24829">
        <ele>1017.69</ele>
        <time>2014-07-02T12:10:52Z</time>
      </trkpt>
      <trkpt lat="44.74901" lon="3.24837">
        <ele>1017.69</ele>
        <time>2014-07-02T12:10:57Z</time>
      </trkpt>
      <trkpt lat="44.74898" lon="3.24864">
        <ele>1017.21</ele>
        <time>2014-07-02T12:11:14Z</time>
      </trkpt>
      <trkpt lat="44.74894" lon="3.24887">
        <ele>1016.73</ele>
        <time>2014-07-02T12:11:28Z</time>
      </trkpt>
      <trkpt lat="44.7489" lon="3.24914">
        <ele>1016.25</ele>
        <time>2014-07-02T12:11:45Z</time>
      </trkpt>
      <trkpt lat="44.74889" lon="3.24939">
        <ele>1016.25</ele>
        <time>2014-07-02T12:12:01Z</time>
      </trkpt>
      <trkpt lat="44.74887" lon="3.24959">
        <ele>1017.21</ele>
        <time>2014-07-02T12:12:16Z</time>
      </trkpt>
      <trkpt lat="44.74884" lon="3.24979">
        <ele>1018.65</ele>
        <time>2014-07-02T12:12:32Z</time>
      </trkpt>
      <trkpt lat="44.74886" lon="3.24996">
        <ele>1018.65</ele>
        <time>2014-07-02T12:12:48Z</time>
      </trkpt>
      <trkpt lat="44.74888" lon="3.25014">
        <ele>1020.58</ele>
        <time>2014-07-02T12:13:02Z</time>
      </trkpt>
      <trkpt lat="44.74892" lon="3.25035">
        <ele>1022.98</ele>
        <time>2014-07-02T12:13:17Z</time>
      </trkpt>
      <trkpt lat="44.74894" lon="3.25041">
        <ele>1023.46</ele>
        <time>2014-07-02T12:13:22Z</time>
      </trkpt>
      <trkpt lat="44.74902" lon="3.2505">
        <ele>1023.46</ele>
        <time>2014-07-02T12:13:31Z</time>
      </trkpt>
      <trkpt lat="44.74921" lon="3.25054">
        <ele>1022.02</ele>
        <time>2014-07-02T12:13:50Z</time>
      </trkpt>
      <trkpt lat="44.74942" lon="3.2505">
        <ele>1022.02</ele>
        <time>2014-07-02T12:14:12Z</time>
      </trkpt>
      <trkpt lat="44.74958" lon="3.25047">
        <ele>1022.02</ele>
        <time>2014-07-02T12:14:28Z</time>
      </trkpt>
      <trkpt lat="44.74968" lon="3.25047">
        <ele>1020.58</ele>
        <time>2014-07-02T12:14:38Z</time>
      </trkpt>
      <trkpt lat="44.7497" lon="3.25047">
        <ele>1020.1</ele>
        <time>2014-07-02T12:14:40Z</time>
      </trkpt>
      <trkpt lat="44.74973" lon="3.25051">
        <ele>1020.1</ele>
        <time>2014-07-02T12:14:44Z</time>
      </trkpt>
      <trkpt lat="44.74958" lon="3.25056">
        <ele>1018.17</ele>
        <time>2014-07-02T12:14:59Z</time>
      </trkpt>
      <trkpt lat="44.74938" lon="3.25067">
        <ele>1015.29</ele>
        <time>2014-07-02T12:15:20Z</time>
      </trkpt>
      <trkpt lat="44.74933" lon="3.25069">
        <ele>1014.81</ele>
        <time>2014-07-02T12:15:37Z</time>
      </trkpt>
      <trkpt lat="44.74913" lon="3.25076">
        <ele>1011.93</ele>
        <time>2014-07-02T12:15:55Z</time>
      </trkpt>
      <trkpt lat="44.74895" lon="3.25082">
        <ele>1010</ele>
        <time>2014-07-02T12:16:11Z</time>
      </trkpt>
      <trkpt lat="44.74884" lon="3.25085">
        <ele>1009.52</ele>
        <time>2014-07-02T12:16:21Z</time>
      </trkpt>
      <trkpt lat="44.74881" lon="3.25086">
        <ele>1009.52</ele>
        <time>2014-07-02T12:16:23Z</time>
      </trkpt>
      <trkpt lat="44.74874" lon="3.25086">
        <ele>1009.52</ele>
        <time>2014-07-02T12:16:29Z</time>
      </trkpt>
      <trkpt lat="44.74865" lon="3.25088">
        <ele>1009.52</ele>
        <time>2014-07-02T12:16:37Z</time>
      </trkpt>
      <trkpt lat="44.74853" lon="3.25088">
        <ele>1010.48</ele>
        <time>2014-07-02T12:16:49Z</time>
      </trkpt>
      <trkpt lat="44.7485" lon="3.25088">
        <ele>1010.96</ele>
        <time>2014-07-02T12:17:02Z</time>
      </trkpt>
      <trkpt lat="44.7485" lon="3.25088">
        <ele>1010.96</ele>
        <time>2014-07-02T12:17:24Z</time>
      </trkpt>
      <trkpt lat="44.74832" lon="3.25091">
        <ele>1010.96</ele>
        <time>2014-07-02T12:17:40Z</time>
      </trkpt>
      <trkpt lat="44.74828" lon="3.25092">
        <ele>1010.96</ele>
        <time>2014-07-02T12:17:44Z</time>
      </trkpt>
      <trkpt lat="44.74819" lon="3.2509">
        <ele>1010.96</ele>
        <time>2014-07-02T12:17:53Z</time>
      </trkpt>
      <trkpt lat="44.74805" lon="3.25089">
        <ele>1011.44</ele>
        <time>2014-07-02T12:18:07Z</time>
      </trkpt>
      <trkpt lat="44.74796" lon="3.25091">
        <ele>1012.89</ele>
        <time>2014-07-02T12:18:17Z</time>
      </trkpt>
      <trkpt lat="44.74791" lon="3.25091">
        <ele>1013.85</ele>
        <time>2014-07-02T12:18:23Z</time>
      </trkpt>
      <trkpt lat="44.74787" lon="3.25091">
        <ele>1014.33</ele>
        <time>2014-07-02T12:18:26Z</time>
      </trkpt>
      <trkpt lat="44.74775" lon="3.25096">
        <ele>1015.29</ele>
        <time>2014-07-02T12:18:39Z</time>
      </trkpt>
      <trkpt lat="44.74774" lon="3.25096">
        <ele>1015.77</ele>
        <time>2014-07-02T12:18:40Z</time>
      </trkpt>
      <trkpt lat="44.74769" lon="3.25098">
        <ele>1016.25</ele>
        <time>2014-07-02T12:18:45Z</time>
      </trkpt>
      <trkpt lat="44.74764" lon="3.251">
        <ele>1016.73</ele>
        <time>2014-07-02T12:18:50Z</time>
      </trkpt>
      <trkpt lat="44.74752" lon="3.25105">
        <ele>1017.69</ele>
        <time>2014-07-02T12:19:02Z</time>
      </trkpt>
      <trkpt lat="44.74748" lon="3.25106">
        <ele>1018.17</ele>
        <time>2014-07-02T12:19:06Z</time>
      </trkpt>
      <trkpt lat="44.74739" lon="3.25111">
        <ele>1019.13</ele>
        <time>2014-07-02T12:19:15Z</time>
      </trkpt>
      <trkpt lat="44.74733" lon="3.25115">
        <ele>1019.13</ele>
        <time>2014-07-02T12:19:21Z</time>
      </trkpt>
      <trkpt lat="44.74731" lon="3.25116">
        <ele>1019.13</ele>
        <time>2014-07-02T12:19:23Z</time>
      </trkpt>
      <trkpt lat="44.74725" lon="3.25119">
        <ele>1019.13</ele>
        <time>2014-07-02T12:19:29Z</time>
      </trkpt>
      <trkpt lat="44.74719" lon="3.25123">
        <ele>1019.62</ele>
        <time>2014-07-02T12:19:34Z</time>
      </trkpt>
      <trkpt lat="44.74711" lon="3.25128">
        <ele>1020.1</ele>
        <time>2014-07-02T12:19:42Z</time>
      </trkpt>
      <trkpt lat="44.74706" lon="3.25131">
        <ele>1020.58</ele>
        <time>2014-07-02T12:19:47Z</time>
      </trkpt>
      <trkpt lat="44.74688" lon="3.25141">
        <ele>1020.58</ele>
        <time>2014-07-02T12:20:03Z</time>
      </trkpt>
      <trkpt lat="44.74671" lon="3.25149">
        <ele>1022.02</ele>
        <time>2014-07-02T12:20:18Z</time>
      </trkpt>
      <trkpt lat="44.74665" lon="3.25153">
        <ele>1022.02</ele>
        <time>2014-07-02T12:20:24Z</time>
      </trkpt>
      <trkpt lat="44.74656" lon="3.25156">
        <ele>1022.5</ele>
        <time>2014-07-02T12:20:32Z</time>
      </trkpt>
      <trkpt lat="44.74654" lon="3.25158">
        <ele>1022.5</ele>
        <time>2014-07-02T12:20:34Z</time>
      </trkpt>
      <trkpt lat="44.74648" lon="3.25161">
        <ele>1022.98</ele>
        <time>2014-07-02T12:20:40Z</time>
      </trkpt>
      <trkpt lat="44.74639" lon="3.25162">
        <ele>1023.46</ele>
        <time>2014-07-02T12:20:49Z</time>
      </trkpt>
      <trkpt lat="44.74637" lon="3.25163">
        <ele>1023.46</ele>
        <time>2014-07-02T12:20:51Z</time>
      </trkpt>
      <trkpt lat="44.74634" lon="3.25163">
        <ele>1023.94</ele>
        <time>2014-07-02T12:20:54Z</time>
      </trkpt>
      <trkpt lat="44.74627" lon="3.25164">
        <ele>1024.42</ele>
        <time>2014-07-02T12:21:01Z</time>
      </trkpt>
      <trkpt lat="44.74611" lon="3.25174">
        <ele>1024.42</ele>
        <time>2014-07-02T12:21:15Z</time>
      </trkpt>
      <trkpt lat="44.74596" lon="3.25185">
        <ele>1024.42</ele>
        <time>2014-07-02T12:21:30Z</time>
      </trkpt>
      <trkpt lat="44.74594" lon="3.25189">
        <ele>1024.42</ele>
        <time>2014-07-02T12:21:33Z</time>
      </trkpt>
      <trkpt lat="44.74588" lon="3.25215">
        <ele>1024.42</ele>
        <time>2014-07-02T12:21:49Z</time>
      </trkpt>
      <trkpt lat="44.74583" lon="3.25239">
        <ele>1024.42</ele>
        <time>2014-07-02T12:22:04Z</time>
      </trkpt>
      <trkpt lat="44.74574" lon="3.25264">
        <ele>1024.42</ele>
        <time>2014-07-02T12:22:21Z</time>
      </trkpt>
      <trkpt lat="44.74562" lon="3.25283">
        <ele>1024.9</ele>
        <time>2014-07-02T12:22:36Z</time>
      </trkpt>
      <trkpt lat="44.74555" lon="3.25291">
        <ele>1024.9</ele>
        <time>2014-07-02T12:22:43Z</time>
      </trkpt>
      <trkpt lat="44.74547" lon="3.25301">
        <ele>1024.9</ele>
        <time>2014-07-02T12:22:52Z</time>
      </trkpt>
      <trkpt lat="44.74532" lon="3.25314">
        <ele>1025.86</ele>
        <time>2014-07-02T12:23:08Z</time>
      </trkpt>
      <trkpt lat="44.74529" lon="3.25316">
        <ele>1025.86</ele>
        <time>2014-07-02T12:23:11Z</time>
      </trkpt>
      <trkpt lat="44.74514" lon="3.25324">
        <ele>1026.34</ele>
        <time>2014-07-02T12:23:25Z</time>
      </trkpt>
      <trkpt lat="44.74507" lon="3.25327">
        <ele>1026.34</ele>
        <time>2014-07-02T12:23:32Z</time>
      </trkpt>
      <trkpt lat="44.74496" lon="3.25334">
        <ele>1027.31</ele>
        <time>2014-07-02T12:23:44Z</time>
      </trkpt>
      <trkpt lat="44.74485" lon="3.25347">
        <ele>1027.31</ele>
        <time>2014-07-02T12:23:56Z</time>
      </trkpt>
      <trkpt lat="44.74472" lon="3.25359">
        <ele>1028.27</ele>
        <time>2014-07-02T12:24:10Z</time>
      </trkpt>
      <trkpt lat="44.74463" lon="3.25368">
        <ele>1029.71</ele>
        <time>2014-07-02T12:24:19Z</time>
      </trkpt>
      <trkpt lat="44.74448" lon="3.2537">
        <ele>1030.19</ele>
        <time>2014-07-02T12:24:34Z</time>
      </trkpt>
      <trkpt lat="44.74432" lon="3.25363">
        <ele>1031.63</ele>
        <time>2014-07-02T12:24:48Z</time>
      </trkpt>
      <trkpt lat="44.74424" lon="3.25367">
        <ele>1033.07</ele>
        <time>2014-07-02T12:24:59Z</time>
      </trkpt>
      <trkpt lat="44.74432" lon="3.25383">
        <ele>1035</ele>
        <time>2014-07-02T12:25:14Z</time>
      </trkpt>
      <trkpt lat="44.74435" lon="3.25387">
        <ele>1035.48</ele>
        <time>2014-07-02T12:25:18Z</time>
      </trkpt>
      <trkpt lat="44.74441" lon="3.25401">
        <ele>1036.44</ele>
        <time>2014-07-02T12:25:32Z</time>
      </trkpt>
      <trkpt lat="44.74445" lon="3.25426">
        <ele>1038.36</ele>
        <time>2014-07-02T12:25:47Z</time>
      </trkpt>
      <trkpt lat="44.74445" lon="3.25429">
        <ele>1038.84</ele>
        <time>2014-07-02T12:25:49Z</time>
      </trkpt>
      <trkpt lat="44.74441" lon="3.25446">
        <ele>1040.28</ele>
        <time>2014-07-02T12:26:03Z</time>
      </trkpt>
      <trkpt lat="44.7443" lon="3.25461">
        <ele>1041.25</ele>
        <time>2014-07-02T12:26:19Z</time>
      </trkpt>
      <trkpt lat="44.74419" lon="3.25473">
        <ele>1043.17</ele>
        <time>2014-07-02T12:26:35Z</time>
      </trkpt>
      <trkpt lat="44.74413" lon="3.25485">
        <ele>1044.61</ele>
        <time>2014-07-02T12:26:49Z</time>
      </trkpt>
      <trkpt lat="44.74406" lon="3.25493">
        <ele>1045.57</ele>
        <time>2014-07-02T12:26:59Z</time>
      </trkpt>
      <trkpt lat="44.74395" lon="3.255">
        <ele>1047.49</ele>
        <time>2014-07-02T12:27:15Z</time>
      </trkpt>
      <trkpt lat="44.7438" lon="3.25517">
        <ele>1049.42</ele>
        <time>2014-07-02T12:27:31Z</time>
      </trkpt>
      <trkpt lat="44.74369" lon="3.25534">
        <ele>1052.3</ele>
        <time>2014-07-02T12:27:48Z</time>
      </trkpt>
      <trkpt lat="44.74362" lon="3.25555">
        <ele>1054.22</ele>
        <time>2014-07-02T12:28:04Z</time>
      </trkpt>
      <trkpt lat="44.74359" lon="3.25564">
        <ele>1055.18</ele>
        <time>2014-07-02T12:28:12Z</time>
      </trkpt>
      <trkpt lat="44.7435" lon="3.25581">
        <ele>1057.59</ele>
        <time>2014-07-02T12:28:29Z</time>
      </trkpt>
      <trkpt lat="44.74341" lon="3.25597">
        <ele>1059.99</ele>
        <time>2014-07-02T12:28:43Z</time>
      </trkpt>
      <trkpt lat="44.74335" lon="3.25607">
        <ele>1060.47</ele>
        <time>2014-07-02T12:28:52Z</time>
      </trkpt>
      <trkpt lat="44.74318" lon="3.25618">
        <ele>1061.43</ele>
        <time>2014-07-02T12:29:10Z</time>
      </trkpt>
      <trkpt lat="44.74303" lon="3.25625">
        <ele>1062.39</ele>
        <time>2014-07-02T12:29:25Z</time>
      </trkpt>
      <trkpt lat="44.74296" lon="3.25627">
        <ele>1062.87</ele>
        <time>2014-07-02T12:29:31Z</time>
      </trkpt>
      <trkpt lat="44.74291" lon="3.25628">
        <ele>1063.36</ele>
        <time>2014-07-02T12:29:36Z</time>
      </trkpt>
      <trkpt lat="44.74273" lon="3.25633">
        <ele>1063.36</ele>
        <time>2014-07-02T12:29:52Z</time>
      </trkpt>
      <trkpt lat="44.74258" lon="3.25644">
        <ele>1063.36</ele>
        <time>2014-07-02T12:30:08Z</time>
      </trkpt>
      <trkpt lat="44.74252" lon="3.25649">
        <ele>1061.91</ele>
        <time>2014-07-02T12:30:14Z</time>
      </trkpt>
      <trkpt lat="44.74237" lon="3.25661">
        <ele>1061.43</ele>
        <time>2014-07-02T12:30:29Z</time>
      </trkpt>
      <trkpt lat="44.74221" lon="3.25676">
        <ele>1059.99</ele>
        <time>2014-07-02T12:30:45Z</time>
      </trkpt>
      <trkpt lat="44.74205" lon="3.25692">
        <ele>1058.07</ele>
        <time>2014-07-02T12:31:01Z</time>
      </trkpt>
      <trkpt lat="44.7419" lon="3.25713">
        <ele>1056.15</ele>
        <time>2014-07-02T12:31:19Z</time>
      </trkpt>
      <trkpt lat="44.74175" lon="3.25732">
        <ele>1054.7</ele>
        <time>2014-07-02T12:31:36Z</time>
      </trkpt>
      <trkpt lat="44.74161" lon="3.25751">
        <ele>1053.74</ele>
        <time>2014-07-02T12:31:54Z</time>
      </trkpt>
      <trkpt lat="44.74148" lon="3.2577">
        <ele>1052.3</ele>
        <time>2014-07-02T12:32:11Z</time>
      </trkpt>
      <trkpt lat="44.74136" lon="3.25797">
        <ele>1050.86</ele>
        <time>2014-07-02T12:32:30Z</time>
      </trkpt>
      <trkpt lat="44.7413" lon="3.25825">
        <ele>1048.94</ele>
        <time>2014-07-02T12:32:48Z</time>
      </trkpt>
      <trkpt lat="44.74127" lon="3.25838">
        <ele>1047.97</ele>
        <time>2014-07-02T12:32:57Z</time>
      </trkpt>
      <trkpt lat="44.74125" lon="3.25849">
        <ele>1047.97</ele>
        <time>2014-07-02T12:33:05Z</time>
      </trkpt>
      <trkpt lat="44.74126" lon="3.25879">
        <ele>1047.01</ele>
        <time>2014-07-02T12:33:23Z</time>
      </trkpt>
      <trkpt lat="44.74133" lon="3.25904">
        <ele>1047.01</ele>
        <time>2014-07-02T12:33:40Z</time>
      </trkpt>
      <trkpt lat="44.74141" lon="3.25926">
        <ele>1046.05</ele>
        <time>2014-07-02T12:33:57Z</time>
      </trkpt>
      <trkpt lat="44.74141" lon="3.25931">
        <ele>1046.05</ele>
        <time>2014-07-02T12:34:12Z</time>
      </trkpt>
      <trkpt lat="44.74146" lon="3.25942">
        <ele>1046.05</ele>
        <time>2014-07-02T12:34:29Z</time>
      </trkpt>
      <trkpt lat="44.74143" lon="3.25944">
        <ele>1046.05</ele>
        <time>2014-07-02T12:34:44Z</time>
      </trkpt>
      <trkpt lat="44.74143" lon="3.2594">
        <ele>1046.05</ele>
        <time>2014-07-02T12:34:49Z</time>
      </trkpt>
      <trkpt lat="44.74139" lon="3.2593">
        <ele>1046.05</ele>
        <time>2014-07-02T12:34:59Z</time>
      </trkpt>
      <trkpt lat="44.74136" lon="3.25924">
        <ele>1046.05</ele>
        <time>2014-07-02T12:35:02Z</time>
      </trkpt>
      <trkpt lat="44.74132" lon="3.25922">
        <ele>1046.05</ele>
        <time>2014-07-02T12:35:08Z</time>
      </trkpt>
      <trkpt lat="44.74134" lon="3.2593">
        <ele>1045.57</ele>
        <time>2014-07-02T12:35:13Z</time>
      </trkpt>
      <trkpt lat="44.74131" lon="3.2596">
        <ele>1043.65</ele>
        <time>2014-07-02T12:35:31Z</time>
      </trkpt>
      <trkpt lat="44.74127" lon="3.2599">
        <ele>1042.69</ele>
        <time>2014-07-02T12:35:50Z</time>
      </trkpt>
      <trkpt lat="44.74126" lon="3.26019">
        <ele>1041.25</ele>
        <time>2014-07-02T12:36:08Z</time>
      </trkpt>
      <trkpt lat="44.74124" lon="3.26055">
        <ele>1039.32</ele>
        <time>2014-07-02T12:36:29Z</time>
      </trkpt>
      <trkpt lat="44.74123" lon="3.26084">
        <ele>1037.88</ele>
        <time>2014-07-02T12:36:47Z</time>
      </trkpt>
      <trkpt lat="44.74132" lon="3.26115">
        <ele>1038.84</ele>
        <time>2014-07-02T12:37:06Z</time>
      </trkpt>
      <trkpt lat="44.74136" lon="3.26145">
        <ele>1039.32</ele>
        <time>2014-07-02T12:37:23Z</time>
      </trkpt>
      <trkpt lat="44.74138" lon="3.26175">
        <ele>1039.32</ele>
        <time>2014-07-02T12:37:41Z</time>
      </trkpt>
      <trkpt lat="44.74132" lon="3.26208">
        <ele>1037.4</ele>
        <time>2014-07-02T12:38:00Z</time>
      </trkpt>
      <trkpt lat="44.74124" lon="3.26242">
        <ele>1036.92</ele>
        <time>2014-07-02T12:38:20Z</time>
      </trkpt>
      <trkpt lat="44.74127" lon="3.26275">
        <ele>1035</ele>
        <time>2014-07-02T12:38:40Z</time>
      </trkpt>
      <trkpt lat="44.74132" lon="3.26303">
        <ele>1034.52</ele>
        <time>2014-07-02T12:38:56Z</time>
      </trkpt>
      <trkpt lat="44.74137" lon="3.26334">
        <ele>1034.04</ele>
        <time>2014-07-02T12:39:13Z</time>
      </trkpt>
      <trkpt lat="44.74142" lon="3.26358">
        <ele>1034.04</ele>
        <time>2014-07-02T12:39:27Z</time>
      </trkpt>
      <trkpt lat="44.7415" lon="3.2639">
        <ele>1034.04</ele>
        <time>2014-07-02T12:39:46Z</time>
      </trkpt>
      <trkpt lat="44.74155" lon="3.26416">
        <ele>1034.04</ele>
        <time>2014-07-02T12:40:01Z</time>
      </trkpt>
      <trkpt lat="44.74158" lon="3.26426">
        <ele>1034.04</ele>
        <time>2014-07-02T12:40:07Z</time>
      </trkpt>
      <trkpt lat="44.74164" lon="3.26459">
        <ele>1035</ele>
        <time>2014-07-02T12:40:25Z</time>
      </trkpt>
      <trkpt lat="44.74169" lon="3.26483">
        <ele>1035</ele>
        <time>2014-07-02T12:40:39Z</time>
      </trkpt>
      <trkpt lat="44.74176" lon="3.26512">
        <ele>1034.04</ele>
        <time>2014-07-02T12:40:56Z</time>
      </trkpt>
      <trkpt lat="44.74188" lon="3.26547">
        <ele>1034.04</ele>
        <time>2014-07-02T12:41:16Z</time>
      </trkpt>
      <trkpt lat="44.74195" lon="3.26579">
        <ele>1034.04</ele>
        <time>2014-07-02T12:41:34Z</time>
      </trkpt>
      <trkpt lat="44.74197" lon="3.26586">
        <ele>1034.04</ele>
        <time>2014-07-02T12:41:44Z</time>
      </trkpt>
      <trkpt lat="44.74209" lon="3.26617">
        <ele>1034.04</ele>
        <time>2014-07-02T12:42:03Z</time>
      </trkpt>
      <trkpt lat="44.74226" lon="3.26643">
        <ele>1033.55</ele>
        <time>2014-07-02T12:42:21Z</time>
      </trkpt>
      <trkpt lat="44.74235" lon="3.26655">
        <ele>1033.07</ele>
        <time>2014-07-02T12:42:35Z</time>
      </trkpt>
      <trkpt lat="44.74252" lon="3.26674">
        <ele>1032.11</ele>
        <time>2014-07-02T12:42:52Z</time>
      </trkpt>
      <trkpt lat="44.74256" lon="3.2668">
        <ele>1032.11</ele>
        <time>2014-07-02T12:42:57Z</time>
      </trkpt>
      <trkpt lat="44.74255" lon="3.26693">
        <ele>1030.67</ele>
        <time>2014-07-02T12:43:05Z</time>
      </trkpt>
      <trkpt lat="44.74238" lon="3.2672">
        <ele>1028.27</ele>
        <time>2014-07-02T12:43:24Z</time>
      </trkpt>
      <trkpt lat="44.74228" lon="3.26747">
        <ele>1028.27</ele>
        <time>2014-07-02T12:43:40Z</time>
      </trkpt>
      <trkpt lat="44.7421" lon="3.26762">
        <ele>1028.27</ele>
        <time>2014-07-02T12:43:57Z</time>
      </trkpt>
      <trkpt lat="44.74192" lon="3.26774">
        <ele>1028.27</ele>
        <time>2014-07-02T12:44:13Z</time>
      </trkpt>
      <trkpt lat="44.74169" lon="3.26784">
        <ele>1026.34</ele>
        <time>2014-07-02T12:44:31Z</time>
      </trkpt>
      <trkpt lat="44.74154" lon="3.26807">
        <ele>1026.34</ele>
        <time>2014-07-02T12:44:49Z</time>
      </trkpt>
      <trkpt lat="44.74143" lon="3.26836">
        <ele>1025.86</ele>
        <time>2014-07-02T12:45:07Z</time>
      </trkpt>
      <trkpt lat="44.74127" lon="3.2686">
        <ele>1024.9</ele>
        <time>2014-07-02T12:45:25Z</time>
      </trkpt>
      <trkpt lat="44.74111" lon="3.26885">
        <ele>1023.94</ele>
        <time>2014-07-02T12:45:44Z</time>
      </trkpt>
      <trkpt lat="44.74096" lon="3.26908">
        <ele>1022.98</ele>
        <time>2014-07-02T12:46:02Z</time>
      </trkpt>
      <trkpt lat="44.74078" lon="3.26931">
        <ele>1022.5</ele>
        <time>2014-07-02T12:46:22Z</time>
      </trkpt>
      <trkpt lat="44.74066" lon="3.26958">
        <ele>1020.58</ele>
        <time>2014-07-02T12:46:41Z</time>
      </trkpt>
      <trkpt lat="44.74065" lon="3.26993">
        <ele>1018.65</ele>
        <time>2014-07-02T12:47:00Z</time>
      </trkpt>
      <trkpt lat="44.74063" lon="3.2703">
        <ele>1016.73</ele>
        <time>2014-07-02T12:47:21Z</time>
      </trkpt>
      <trkpt lat="44.74056" lon="3.27065">
        <ele>1015.29</ele>
        <time>2014-07-02T12:47:41Z</time>
      </trkpt>
      <trkpt lat="44.74047" lon="3.2709">
        <ele>1013.37</ele>
        <time>2014-07-02T12:47:57Z</time>
      </trkpt>
      <trkpt lat="44.74037" lon="3.27121">
        <ele>1011.93</ele>
        <time>2014-07-02T12:48:16Z</time>
      </trkpt>
      <trkpt lat="44.74027" lon="3.27151">
        <ele>1010.48</ele>
        <time>2014-07-02T12:48:35Z</time>
      </trkpt>
      <trkpt lat="44.7402" lon="3.27186">
        <ele>1007.6</ele>
        <time>2014-07-02T12:48:55Z</time>
      </trkpt>
      <trkpt lat="44.7401" lon="3.27214">
        <ele>1005.2</ele>
        <time>2014-07-02T12:49:12Z</time>
      </trkpt>
      <trkpt lat="44.74003" lon="3.27235">
        <ele>1004.23</ele>
        <time>2014-07-02T12:49:25Z</time>
      </trkpt>
      <trkpt lat="44.73994" lon="3.27262">
        <ele>1002.79</ele>
        <time>2014-07-02T12:49:43Z</time>
      </trkpt>
      <trkpt lat="44.73981" lon="3.27284">
        <ele>999.91</ele>
        <time>2014-07-02T12:49:58Z</time>
      </trkpt>
      <trkpt lat="44.73977" lon="3.27287">
        <ele>1000.39</ele>
        <time>2014-07-02T12:50:02Z</time>
      </trkpt>
      <trkpt lat="44.73956" lon="3.273">
        <ele>997.99</ele>
        <time>2014-07-02T12:50:20Z</time>
      </trkpt>
      <trkpt lat="44.7395" lon="3.27303">
        <ele>997.51</ele>
        <time>2014-07-02T12:50:25Z</time>
      </trkpt>
      <trkpt lat="44.73939" lon="3.27307">
        <ele>996.54</ele>
        <time>2014-07-02T12:50:34Z</time>
      </trkpt>
      <trkpt lat="44.73915" lon="3.27312">
        <ele>995.1</ele>
        <time>2014-07-02T12:50:52Z</time>
      </trkpt>
      <trkpt lat="44.73894" lon="3.27318">
        <ele>995.1</ele>
        <time>2014-07-02T12:51:09Z</time>
      </trkpt>
      <trkpt lat="44.73893" lon="3.27319">
        <ele>995.1</ele>
        <time>2014-07-02T12:51:10Z</time>
      </trkpt>
      <trkpt lat="44.73878" lon="3.27323">
        <ele>996.54</ele>
        <time>2014-07-02T12:51:22Z</time>
      </trkpt>
      <trkpt lat="44.73863" lon="3.27336">
        <ele>999.43</ele>
        <time>2014-07-02T12:51:37Z</time>
      </trkpt>
      <trkpt lat="44.73853" lon="3.27348">
        <ele>1001.35</ele>
        <time>2014-07-02T12:51:51Z</time>
      </trkpt>
      <trkpt lat="44.73845" lon="3.27355">
        <ele>1001.83</ele>
        <time>2014-07-02T12:51:59Z</time>
      </trkpt>
      <trkpt lat="44.73838" lon="3.27359">
        <ele>1002.79</ele>
        <time>2014-07-02T12:52:06Z</time>
      </trkpt>
      <trkpt lat="44.73832" lon="3.27362">
        <ele>1003.27</ele>
        <time>2014-07-02T12:52:13Z</time>
      </trkpt>
      <trkpt lat="44.73818" lon="3.27369">
        <ele>1004.72</ele>
        <time>2014-07-02T12:52:27Z</time>
      </trkpt>
      <trkpt lat="44.73805" lon="3.27376">
        <ele>1007.12</ele>
        <time>2014-07-02T12:52:41Z</time>
      </trkpt>
      <trkpt lat="44.73789" lon="3.2738">
        <ele>1009.04</ele>
        <time>2014-07-02T12:52:56Z</time>
      </trkpt>
      <trkpt lat="44.73788" lon="3.2738">
        <ele>1009.52</ele>
        <time>2014-07-02T12:52:57Z</time>
      </trkpt>
      <trkpt lat="44.73783" lon="3.27383">
        <ele>1009.52</ele>
        <time>2014-07-02T12:53:01Z</time>
      </trkpt>
      <trkpt lat="44.73776" lon="3.27385">
        <ele>1010.48</ele>
        <time>2014-07-02T12:53:06Z</time>
      </trkpt>
      <trkpt lat="44.73763" lon="3.27392">
        <ele>1010.96</ele>
        <time>2014-07-02T12:53:17Z</time>
      </trkpt>
      <trkpt lat="44.73759" lon="3.27394">
        <ele>1011.93</ele>
        <time>2014-07-02T12:53:21Z</time>
      </trkpt>
      <trkpt lat="44.73754" lon="3.27395">
        <ele>1011.93</ele>
        <time>2014-07-02T12:53:25Z</time>
      </trkpt>
      <trkpt lat="44.73748" lon="3.27397">
        <ele>1012.41</ele>
        <time>2014-07-02T12:53:30Z</time>
      </trkpt>
      <trkpt lat="44.73744" lon="3.27398">
        <ele>1012.89</ele>
        <time>2014-07-02T12:53:34Z</time>
      </trkpt>
      <trkpt lat="44.73733" lon="3.27402">
        <ele>1012.89</ele>
        <time>2014-07-02T12:53:43Z</time>
      </trkpt>
      <trkpt lat="44.73726" lon="3.27404">
        <ele>1012.89</ele>
        <time>2014-07-02T12:53:49Z</time>
      </trkpt>
      <trkpt lat="44.73709" lon="3.27409">
        <ele>1013.37</ele>
        <time>2014-07-02T12:54:04Z</time>
      </trkpt>
      <trkpt lat="44.73688" lon="3.27412">
        <ele>1013.85</ele>
        <time>2014-07-02T12:54:22Z</time>
      </trkpt>
      <trkpt lat="44.73675" lon="3.27413">
        <ele>1013.85</ele>
        <time>2014-07-02T12:54:33Z</time>
      </trkpt>
      <trkpt lat="44.73663" lon="3.27412">
        <ele>1012.41</ele>
        <time>2014-07-02T12:54:43Z</time>
      </trkpt>
      <trkpt lat="44.73642" lon="3.27409">
        <ele>1012.41</ele>
        <time>2014-07-02T12:55:00Z</time>
      </trkpt>
      <trkpt lat="44.73631" lon="3.27409">
        <ele>1012.41</ele>
        <time>2014-07-02T12:55:09Z</time>
      </trkpt>
      <trkpt lat="44.7363" lon="3.27409">
        <ele>1012.41</ele>
        <time>2014-07-02T12:55:10Z</time>
      </trkpt>
      <trkpt lat="44.73628" lon="3.27409">
        <ele>1012.41</ele>
        <time>2014-07-02T12:55:11Z</time>
      </trkpt>
      <trkpt lat="44.73627" lon="3.27409">
        <ele>1012.41</ele>
        <time>2014-07-02T12:55:12Z</time>
      </trkpt>
      <trkpt lat="44.73626" lon="3.27409">
        <ele>1012.41</ele>
        <time>2014-07-02T12:55:13Z</time>
      </trkpt>
      <trkpt lat="44.73625" lon="3.27409">
        <ele>1012.41</ele>
        <time>2014-07-02T12:55:14Z</time>
      </trkpt>
      <trkpt lat="44.73623" lon="3.2741">
        <ele>1012.41</ele>
        <time>2014-07-02T12:55:15Z</time>
      </trkpt>
      <trkpt lat="44.73605" lon="3.27412">
        <ele>1014.33</ele>
        <time>2014-07-02T12:55:30Z</time>
      </trkpt>
      <trkpt lat="44.73594" lon="3.27415">
        <ele>1014.81</ele>
        <time>2014-07-02T12:55:39Z</time>
      </trkpt>
      <trkpt lat="44.73592" lon="3.27416">
        <ele>1014.81</ele>
        <time>2014-07-02T12:55:40Z</time>
      </trkpt>
      <trkpt lat="44.73591" lon="3.27416">
        <ele>1014.81</ele>
        <time>2014-07-02T12:55:41Z</time>
      </trkpt>
      <trkpt lat="44.7359" lon="3.27417">
        <ele>1014.81</ele>
        <time>2014-07-02T12:55:42Z</time>
      </trkpt>
      <trkpt lat="44.73589" lon="3.27417">
        <ele>1014.81</ele>
        <time>2014-07-02T12:55:43Z</time>
      </trkpt>
      <trkpt lat="44.73588" lon="3.27418">
        <ele>1014.81</ele>
        <time>2014-07-02T12:55:44Z</time>
      </trkpt>
      <trkpt lat="44.73586" lon="3.27418">
        <ele>1014.81</ele>
        <time>2014-07-02T12:55:45Z</time>
      </trkpt>
      <trkpt lat="44.73563" lon="3.27426">
        <ele>1015.77</ele>
        <time>2014-07-02T12:56:03Z</time>
      </trkpt>
      <trkpt lat="44.7356" lon="3.27428">
        <ele>1015.77</ele>
        <time>2014-07-02T12:56:06Z</time>
      </trkpt>
      <trkpt lat="44.73559" lon="3.27428">
        <ele>1015.77</ele>
        <time>2014-07-02T12:56:07Z</time>
      </trkpt>
      <trkpt lat="44.73552" lon="3.27429">
        <ele>1016.25</ele>
        <time>2014-07-02T12:56:13Z</time>
      </trkpt>
      <trkpt lat="44.73551" lon="3.2743">
        <ele>1016.25</ele>
        <time>2014-07-02T12:56:14Z</time>
      </trkpt>
      <trkpt lat="44.73549" lon="3.27431">
        <ele>1016.25</ele>
        <time>2014-07-02T12:56:15Z</time>
      </trkpt>
      <trkpt lat="44.73548" lon="3.27432">
        <ele>1016.25</ele>
        <time>2014-07-02T12:56:16Z</time>
      </trkpt>
      <trkpt lat="44.73547" lon="3.27431">
        <ele>1016.25</ele>
        <time>2014-07-02T12:56:17Z</time>
      </trkpt>
      <trkpt lat="44.73545" lon="3.27431">
        <ele>1016.73</ele>
        <time>2014-07-02T12:56:18Z</time>
      </trkpt>
      <trkpt lat="44.73544" lon="3.27431">
        <ele>1016.73</ele>
        <time>2014-07-02T12:56:19Z</time>
      </trkpt>
      <trkpt lat="44.73543" lon="3.27432">
        <ele>1016.73</ele>
        <time>2014-07-02T12:56:20Z</time>
      </trkpt>
      <trkpt lat="44.73524" lon="3.27438">
        <ele>1016.73</ele>
        <time>2014-07-02T12:56:36Z</time>
      </trkpt>
      <trkpt lat="44.73511" lon="3.27442">
        <ele>1016.73</ele>
        <time>2014-07-02T12:56:48Z</time>
      </trkpt>
      <trkpt lat="44.73509" lon="3.27442">
        <ele>1016.73</ele>
        <time>2014-07-02T12:56:50Z</time>
      </trkpt>
      <trkpt lat="44.73508" lon="3.27443">
        <ele>1016.73</ele>
        <time>2014-07-02T12:56:51Z</time>
      </trkpt>
      <trkpt lat="44.73488" lon="3.27453">
        <ele>1017.21</ele>
        <time>2014-07-02T12:57:08Z</time>
      </trkpt>
      <trkpt lat="44.73483" lon="3.27457">
        <ele>1017.21</ele>
        <time>2014-07-02T12:57:13Z</time>
      </trkpt>
      <trkpt lat="44.73476" lon="3.27467">
        <ele>1017.21</ele>
        <time>2014-07-02T12:57:21Z</time>
      </trkpt>
      <trkpt lat="44.73475" lon="3.27469">
        <ele>1017.21</ele>
        <time>2014-07-02T12:57:22Z</time>
      </trkpt>
      <trkpt lat="44.7347" lon="3.27474">
        <ele>1017.69</ele>
        <time>2014-07-02T12:57:27Z</time>
      </trkpt>
      <trkpt lat="44.7346" lon="3.27494">
        <ele>1019.13</ele>
        <time>2014-07-02T12:57:41Z</time>
      </trkpt>
      <trkpt lat="44.73455" lon="3.27519">
        <ele>1019.13</ele>
        <time>2014-07-02T12:57:56Z</time>
      </trkpt>
      <trkpt lat="44.73454" lon="3.27535">
        <ele>1020.58</ele>
        <time>2014-07-02T12:58:05Z</time>
      </trkpt>
      <trkpt lat="44.73453" lon="3.27555">
        <ele>1021.54</ele>
        <time>2014-07-02T12:58:18Z</time>
      </trkpt>
      <trkpt lat="44.73452" lon="3.27565">
        <ele>1022.02</ele>
        <time>2014-07-02T12:58:24Z</time>
      </trkpt>
      <trkpt lat="44.7345" lon="3.27582">
        <ele>1022.02</ele>
        <time>2014-07-02T12:58:35Z</time>
      </trkpt>
      <trkpt lat="44.73449" lon="3.27584">
        <ele>1022.02</ele>
        <time>2014-07-02T12:58:36Z</time>
      </trkpt>
      <trkpt lat="44.73449" lon="3.27586">
        <ele>1022.02</ele>
        <time>2014-07-02T12:58:37Z</time>
      </trkpt>
      <trkpt lat="44.73449" lon="3.27587">
        <ele>1022.02</ele>
        <time>2014-07-02T12:58:38Z</time>
      </trkpt>
      <trkpt lat="44.73448" lon="3.27589">
        <ele>1022.02</ele>
        <time>2014-07-02T12:58:39Z</time>
      </trkpt>
      <trkpt lat="44.73448" lon="3.2759">
        <ele>1022.5</ele>
        <time>2014-07-02T12:58:40Z</time>
      </trkpt>
      <trkpt lat="44.73448" lon="3.27592">
        <ele>1022.5</ele>
        <time>2014-07-02T12:58:41Z</time>
      </trkpt>
      <trkpt lat="44.73447" lon="3.27593">
        <ele>1022.5</ele>
        <time>2014-07-02T12:58:42Z</time>
      </trkpt>
      <trkpt lat="44.7344" lon="3.27614">
        <ele>1022.98</ele>
        <time>2014-07-02T12:58:57Z</time>
      </trkpt>
      <trkpt lat="44.73439" lon="3.27616">
        <ele>1022.98</ele>
        <time>2014-07-02T12:58:59Z</time>
      </trkpt>
      <trkpt lat="44.73439" lon="3.27618">
        <ele>1022.98</ele>
        <time>2014-07-02T12:59:00Z</time>
      </trkpt>
      <trkpt lat="44.73438" lon="3.27619">
        <ele>1022.98</ele>
        <time>2014-07-02T12:59:01Z</time>
      </trkpt>
      <trkpt lat="44.73438" lon="3.2762">
        <ele>1022.98</ele>
        <time>2014-07-02T12:59:02Z</time>
      </trkpt>
      <trkpt lat="44.73437" lon="3.27622">
        <ele>1022.98</ele>
        <time>2014-07-02T12:59:03Z</time>
      </trkpt>
      <trkpt lat="44.73436" lon="3.27623">
        <ele>1022.98</ele>
        <time>2014-07-02T12:59:04Z</time>
      </trkpt>
      <trkpt lat="44.73425" lon="3.27643">
        <ele>1022.02</ele>
        <time>2014-07-02T12:59:19Z</time>
      </trkpt>
      <trkpt lat="44.73409" lon="3.27661">
        <ele>1021.06</ele>
        <time>2014-07-02T12:59:36Z</time>
      </trkpt>
      <trkpt lat="44.73395" lon="3.27675">
        <ele>1020.58</ele>
        <time>2014-07-02T12:59:51Z</time>
      </trkpt>
      <trkpt lat="44.73374" lon="3.27687">
        <ele>1020.58</ele>
        <time>2014-07-02T13:00:09Z</time>
      </trkpt>
      <trkpt lat="44.73356" lon="3.27697">
        <ele>1020.58</ele>
        <time>2014-07-02T13:00:24Z</time>
      </trkpt>
      <trkpt lat="44.73355" lon="3.27698">
        <ele>1020.58</ele>
        <time>2014-07-02T13:00:25Z</time>
      </trkpt>
      <trkpt lat="44.73353" lon="3.27699">
        <ele>1020.58</ele>
        <time>2014-07-02T13:00:26Z</time>
      </trkpt>
      <trkpt lat="44.73336" lon="3.27705">
        <ele>1020.1</ele>
        <time>2014-07-02T13:00:41Z</time>
      </trkpt>
      <trkpt lat="44.73317" lon="3.2771">
        <ele>1020.1</ele>
        <time>2014-07-02T13:00:58Z</time>
      </trkpt>
      <trkpt lat="44.73312" lon="3.27716">
        <ele>1019.62</ele>
        <time>2014-07-02T13:01:10Z</time>
      </trkpt>
      <trkpt lat="44.73303" lon="3.27712">
        <ele>1019.62</ele>
        <time>2014-07-02T13:01:34Z</time>
      </trkpt>
      <trkpt lat="44.73288" lon="3.27709">
        <ele>1019.13</ele>
        <time>2014-07-02T13:01:49Z</time>
      </trkpt>
      <trkpt lat="44.73275" lon="3.27705">
        <ele>1018.65</ele>
        <time>2014-07-02T13:02:03Z</time>
      </trkpt>
      <trkpt lat="44.73258" lon="3.27701">
        <ele>1017.69</ele>
        <time>2014-07-02T13:02:19Z</time>
      </trkpt>
      <trkpt lat="44.73244" lon="3.27693">
        <ele>1015.77</ele>
        <time>2014-07-02T13:02:34Z</time>
      </trkpt>
      <trkpt lat="44.73229" lon="3.27683">
        <ele>1014.81</ele>
        <time>2014-07-02T13:02:50Z</time>
      </trkpt>
      <trkpt lat="44.73218" lon="3.27678">
        <ele>1013.85</ele>
        <time>2014-07-02T13:03:01Z</time>
      </trkpt>
      <trkpt lat="44.73209" lon="3.27677">
        <ele>1012.89</ele>
        <time>2014-07-02T13:03:10Z</time>
      </trkpt>
      <trkpt lat="44.73193" lon="3.27674">
        <ele>1010.48</ele>
        <time>2014-07-02T13:03:27Z</time>
      </trkpt>
      <trkpt lat="44.7318" lon="3.27675">
        <ele>1008.08</ele>
        <time>2014-07-02T13:03:40Z</time>
      </trkpt>
      <trkpt lat="44.73175" lon="3.27674">
        <ele>1007.6</ele>
        <time>2014-07-02T13:03:45Z</time>
      </trkpt>
      <trkpt lat="44.73172" lon="3.27675">
        <ele>1007.12</ele>
        <time>2014-07-02T13:03:48Z</time>
      </trkpt>
      <trkpt lat="44.7317" lon="3.27675">
        <ele>1006.64</ele>
        <time>2014-07-02T13:03:51Z</time>
      </trkpt>
      <trkpt lat="44.73169" lon="3.27675">
        <ele>1006.64</ele>
        <time>2014-07-02T13:03:52Z</time>
      </trkpt>
      <trkpt lat="44.73153" lon="3.2768">
        <ele>1004.72</ele>
        <time>2014-07-02T13:04:09Z</time>
      </trkpt>
      <trkpt lat="44.73137" lon="3.27691">
        <ele>1004.23</ele>
        <time>2014-07-02T13:04:25Z</time>
      </trkpt>
      <trkpt lat="44.7312" lon="3.27703">
        <ele>1003.27</ele>
        <time>2014-07-02T13:04:42Z</time>
      </trkpt>
      <trkpt lat="44.73109" lon="3.27707">
        <ele>1002.79</ele>
        <time>2014-07-02T13:04:52Z</time>
      </trkpt>
      <trkpt lat="44.73108" lon="3.27707">
        <ele>1002.79</ele>
        <time>2014-07-02T13:04:53Z</time>
      </trkpt>
      <trkpt lat="44.73107" lon="3.27706">
        <ele>1002.79</ele>
        <time>2014-07-02T13:04:54Z</time>
      </trkpt>
      <trkpt lat="44.73106" lon="3.27706">
        <ele>1002.79</ele>
        <time>2014-07-02T13:04:55Z</time>
      </trkpt>
      <trkpt lat="44.73087" lon="3.27698">
        <ele>1002.31</ele>
        <time>2014-07-02T13:05:13Z</time>
      </trkpt>
      <trkpt lat="44.73081" lon="3.27694">
        <ele>1001.83</ele>
        <time>2014-07-02T13:05:18Z</time>
      </trkpt>
      <trkpt lat="44.7308" lon="3.27693">
        <ele>1001.35</ele>
        <time>2014-07-02T13:05:19Z</time>
      </trkpt>
      <trkpt lat="44.73079" lon="3.27692">
        <ele>1001.35</ele>
        <time>2014-07-02T13:05:20Z</time>
      </trkpt>
      <trkpt lat="44.73066" lon="3.27683">
        <ele>1000.87</ele>
        <time>2014-07-02T13:05:33Z</time>
      </trkpt>
      <trkpt lat="44.73065" lon="3.27683">
        <ele>1000.87</ele>
        <time>2014-07-02T13:05:34Z</time>
      </trkpt>
      <trkpt lat="44.73052" lon="3.27673">
        <ele>1000.39</ele>
        <time>2014-07-02T13:05:48Z</time>
      </trkpt>
      <trkpt lat="44.73044" lon="3.27668">
        <ele>999.43</ele>
        <time>2014-07-02T13:05:56Z</time>
      </trkpt>
      <trkpt lat="44.73043" lon="3.27668">
        <ele>998.95</ele>
        <time>2014-07-02T13:05:57Z</time>
      </trkpt>
      <trkpt lat="44.73042" lon="3.27668">
        <ele>998.95</ele>
        <time>2014-07-02T13:05:58Z</time>
      </trkpt>
      <trkpt lat="44.73041" lon="3.27668">
        <ele>998.95</ele>
        <time>2014-07-02T13:05:59Z</time>
      </trkpt>
      <trkpt lat="44.7304" lon="3.27668">
        <ele>998.95</ele>
        <time>2014-07-02T13:06:00Z</time>
      </trkpt>
      <trkpt lat="44.73039" lon="3.27668">
        <ele>998.95</ele>
        <time>2014-07-02T13:06:01Z</time>
      </trkpt>
      <trkpt lat="44.73037" lon="3.27667">
        <ele>998.95</ele>
        <time>2014-07-02T13:06:02Z</time>
      </trkpt>
      <trkpt lat="44.73036" lon="3.27667">
        <ele>998.95</ele>
        <time>2014-07-02T13:06:03Z</time>
      </trkpt>
      <trkpt lat="44.73021" lon="3.27667">
        <ele>998.95</ele>
        <time>2014-07-02T13:06:17Z</time>
      </trkpt>
      <trkpt lat="44.73017" lon="3.27667">
        <ele>998.95</ele>
        <time>2014-07-02T13:06:21Z</time>
      </trkpt>
      <trkpt lat="44.73016" lon="3.27667">
        <ele>998.95</ele>
        <time>2014-07-02T13:06:22Z</time>
      </trkpt>
      <trkpt lat="44.73015" lon="3.27667">
        <ele>998.95</ele>
        <time>2014-07-02T13:06:23Z</time>
      </trkpt>
      <trkpt lat="44.73014" lon="3.27667">
        <ele>998.95</ele>
        <time>2014-07-02T13:06:24Z</time>
      </trkpt>
      <trkpt lat="44.7301" lon="3.27667">
        <ele>998.95</ele>
        <time>2014-07-02T13:06:28Z</time>
      </trkpt>
      <trkpt lat="44.73009" lon="3.27668">
        <ele>998.95</ele>
        <time>2014-07-02T13:06:29Z</time>
      </trkpt>
      <trkpt lat="44.73008" lon="3.27667">
        <ele>998.95</ele>
        <time>2014-07-02T13:06:30Z</time>
      </trkpt>
      <trkpt lat="44.73006" lon="3.27667">
        <ele>998.95</ele>
        <time>2014-07-02T13:06:31Z</time>
      </trkpt>
      <trkpt lat="44.73001" lon="3.27667">
        <ele>998.95</ele>
        <time>2014-07-02T13:06:36Z</time>
      </trkpt>
      <trkpt lat="44.73" lon="3.27667">
        <ele>998.95</ele>
        <time>2014-07-02T13:06:37Z</time>
      </trkpt>
      <trkpt lat="44.72999" lon="3.27667">
        <ele>998.95</ele>
        <time>2014-07-02T13:06:38Z</time>
      </trkpt>
      <trkpt lat="44.72997" lon="3.27667">
        <ele>998.95</ele>
        <time>2014-07-02T13:06:39Z</time>
      </trkpt>
      <trkpt lat="44.72996" lon="3.27667">
        <ele>1000.39</ele>
        <time>2014-07-02T13:06:40Z</time>
      </trkpt>
      <trkpt lat="44.72995" lon="3.27667">
        <ele>1000.39</ele>
        <time>2014-07-02T13:06:41Z</time>
      </trkpt>
      <trkpt lat="44.72994" lon="3.27666">
        <ele>1000.87</ele>
        <time>2014-07-02T13:06:43Z</time>
      </trkpt>
      <trkpt lat="44.72989" lon="3.27666">
        <ele>1001.35</ele>
        <time>2014-07-02T13:06:47Z</time>
      </trkpt>
      <trkpt lat="44.72988" lon="3.27665">
        <ele>1001.35</ele>
        <time>2014-07-02T13:06:48Z</time>
      </trkpt>
      <trkpt lat="44.72987" lon="3.27665">
        <ele>1001.83</ele>
        <time>2014-07-02T13:06:49Z</time>
      </trkpt>
      <trkpt lat="44.72983" lon="3.27663">
        <ele>1002.79</ele>
        <time>2014-07-02T13:06:54Z</time>
      </trkpt>
      <trkpt lat="44.72973" lon="3.27659">
        <ele>1004.72</ele>
        <time>2014-07-02T13:07:04Z</time>
      </trkpt>
      <trkpt lat="44.72963" lon="3.27655">
        <ele>1006.64</ele>
        <time>2014-07-02T13:07:16Z</time>
      </trkpt>
      <trkpt lat="44.72962" lon="3.27655">
        <ele>1007.12</ele>
        <time>2014-07-02T13:07:18Z</time>
      </trkpt>
      <trkpt lat="44.72961" lon="3.27655">
        <ele>1007.6</ele>
        <time>2014-07-02T13:07:19Z</time>
      </trkpt>
      <trkpt lat="44.72952" lon="3.27651">
        <ele>1009.04</ele>
        <time>2014-07-02T13:07:30Z</time>
      </trkpt>
      <trkpt lat="44.72951" lon="3.2765">
        <ele>1009.52</ele>
        <time>2014-07-02T13:07:32Z</time>
      </trkpt>
      <trkpt lat="44.7295" lon="3.2765">
        <ele>1010</ele>
        <time>2014-07-02T13:07:33Z</time>
      </trkpt>
      <trkpt lat="44.72938" lon="3.27644">
        <ele>1011.44</ele>
        <time>2014-07-02T13:07:45Z</time>
      </trkpt>
      <trkpt lat="44.72937" lon="3.27644">
        <ele>1011.44</ele>
        <time>2014-07-02T13:07:46Z</time>
      </trkpt>
      <trkpt lat="44.72933" lon="3.27642">
        <ele>1011.93</ele>
        <time>2014-07-02T13:07:50Z</time>
      </trkpt>
      <trkpt lat="44.72932" lon="3.27641">
        <ele>1011.93</ele>
        <time>2014-07-02T13:07:51Z</time>
      </trkpt>
      <trkpt lat="44.72917" lon="3.27636">
        <ele>1012.89</ele>
        <time>2014-07-02T13:08:05Z</time>
      </trkpt>
      <trkpt lat="44.72901" lon="3.2763">
        <ele>1012.89</ele>
        <time>2014-07-02T13:08:20Z</time>
      </trkpt>
      <trkpt lat="44.72884" lon="3.27622">
        <ele>1011.44</ele>
        <time>2014-07-02T13:08:36Z</time>
      </trkpt>
      <trkpt lat="44.72865" lon="3.27614">
        <ele>1011.44</ele>
        <time>2014-07-02T13:08:52Z</time>
      </trkpt>
      <trkpt lat="44.7285" lon="3.27609">
        <ele>1010.96</ele>
        <time>2014-07-02T13:09:05Z</time>
      </trkpt>
      <trkpt lat="44.72831" lon="3.276">
        <ele>1010.96</ele>
        <time>2014-07-02T13:09:20Z</time>
      </trkpt>
      <trkpt lat="44.72814" lon="3.27593">
        <ele>1010.96</ele>
        <time>2014-07-02T13:09:34Z</time>
      </trkpt>
      <trkpt lat="44.72805" lon="3.27589">
        <ele>1010.96</ele>
        <time>2014-07-02T13:09:41Z</time>
      </trkpt>
      <trkpt lat="44.72804" lon="3.27588">
        <ele>1010.96</ele>
        <time>2014-07-02T13:09:42Z</time>
      </trkpt>
      <trkpt lat="44.72795" lon="3.27586">
        <ele>1010.96</ele>
        <time>2014-07-02T13:09:49Z</time>
      </trkpt>
      <trkpt lat="44.72794" lon="3.27585">
        <ele>1010.96</ele>
        <time>2014-07-02T13:09:50Z</time>
      </trkpt>
      <trkpt lat="44.72793" lon="3.27584">
        <ele>1010.96</ele>
        <time>2014-07-02T13:09:51Z</time>
      </trkpt>
      <trkpt lat="44.72792" lon="3.27583">
        <ele>1010.96</ele>
        <time>2014-07-02T13:09:52Z</time>
      </trkpt>
      <trkpt lat="44.72791" lon="3.27583">
        <ele>1010.96</ele>
        <time>2014-07-02T13:09:53Z</time>
      </trkpt>
      <trkpt lat="44.72789" lon="3.27582">
        <ele>1010.96</ele>
        <time>2014-07-02T13:09:54Z</time>
      </trkpt>
      <trkpt lat="44.72788" lon="3.27582">
        <ele>1010.96</ele>
        <time>2014-07-02T13:09:55Z</time>
      </trkpt>
      <trkpt lat="44.72787" lon="3.27581">
        <ele>1010.96</ele>
        <time>2014-07-02T13:09:56Z</time>
      </trkpt>
      <trkpt lat="44.72785" lon="3.27581">
        <ele>1010.96</ele>
        <time>2014-07-02T13:09:57Z</time>
      </trkpt>
      <trkpt lat="44.72782" lon="3.2758">
        <ele>1010.96</ele>
        <time>2014-07-02T13:10:00Z</time>
      </trkpt>
      <trkpt lat="44.72781" lon="3.2758">
        <ele>1010.96</ele>
        <time>2014-07-02T13:10:01Z</time>
      </trkpt>
      <trkpt lat="44.72779" lon="3.27579">
        <ele>1010.96</ele>
        <time>2014-07-02T13:10:02Z</time>
      </trkpt>
      <trkpt lat="44.72766" lon="3.27583">
        <ele>1010.96</ele>
        <time>2014-07-02T13:10:14Z</time>
      </trkpt>
      <trkpt lat="44.72756" lon="3.27606">
        <ele>1010.96</ele>
        <time>2014-07-02T13:10:31Z</time>
      </trkpt>
      <trkpt lat="44.72748" lon="3.27635">
        <ele>1010.96</ele>
        <time>2014-07-02T13:10:48Z</time>
      </trkpt>
      <trkpt lat="44.72741" lon="3.27663">
        <ele>1010.96</ele>
        <time>2014-07-02T13:11:04Z</time>
      </trkpt>
      <trkpt lat="44.72736" lon="3.27688">
        <ele>1010.96</ele>
        <time>2014-07-02T13:11:19Z</time>
      </trkpt>
      <trkpt lat="44.72731" lon="3.27702">
        <ele>1010.96</ele>
        <time>2014-07-02T13:11:29Z</time>
      </trkpt>
      <trkpt lat="44.72725" lon="3.27724">
        <ele>1010.48</ele>
        <time>2014-07-02T13:11:42Z</time>
      </trkpt>
      <trkpt lat="44.72715" lon="3.2775">
        <ele>1012.41</ele>
        <time>2014-07-02T13:11:59Z</time>
      </trkpt>
      <trkpt lat="44.72702" lon="3.27776">
        <ele>1012.41</ele>
        <time>2014-07-02T13:12:18Z</time>
      </trkpt>
      <trkpt lat="44.72687" lon="3.278">
        <ele>1012.89</ele>
        <time>2014-07-02T13:12:37Z</time>
      </trkpt>
      <trkpt lat="44.72671" lon="3.27819">
        <ele>1013.37</ele>
        <time>2014-07-02T13:12:54Z</time>
      </trkpt>
      <trkpt lat="44.72657" lon="3.27833">
        <ele>1014.33</ele>
        <time>2014-07-02T13:13:08Z</time>
      </trkpt>
      <trkpt lat="44.72656" lon="3.27834">
        <ele>1014.33</ele>
        <time>2014-07-02T13:13:09Z</time>
      </trkpt>
      <trkpt lat="44.72655" lon="3.27835">
        <ele>1014.33</ele>
        <time>2014-07-02T13:13:10Z</time>
      </trkpt>
      <trkpt lat="44.72639" lon="3.27855">
        <ele>1014.81</ele>
        <time>2014-07-02T13:13:28Z</time>
      </trkpt>
      <trkpt lat="44.72625" lon="3.27875">
        <ele>1015.77</ele>
        <time>2014-07-02T13:13:46Z</time>
      </trkpt>
      <trkpt lat="44.72621" lon="3.27881">
        <ele>1015.77</ele>
        <time>2014-07-02T13:13:51Z</time>
      </trkpt>
      <trkpt lat="44.72611" lon="3.27896">
        <ele>1016.25</ele>
        <time>2014-07-02T13:14:03Z</time>
      </trkpt>
      <trkpt lat="44.7261" lon="3.27897">
        <ele>1016.25</ele>
        <time>2014-07-02T13:14:04Z</time>
      </trkpt>
      <trkpt lat="44.7261" lon="3.27898">
        <ele>1016.25</ele>
        <time>2014-07-02T13:14:05Z</time>
      </trkpt>
      <trkpt lat="44.72609" lon="3.279">
        <ele>1016.73</ele>
        <time>2014-07-02T13:14:06Z</time>
      </trkpt>
      <trkpt lat="44.72608" lon="3.27901">
        <ele>1016.73</ele>
        <time>2014-07-02T13:14:07Z</time>
      </trkpt>
      <trkpt lat="44.72608" lon="3.27903">
        <ele>1016.73</ele>
        <time>2014-07-02T13:14:08Z</time>
      </trkpt>
      <trkpt lat="44.72593" lon="3.27921">
        <ele>1017.69</ele>
        <time>2014-07-02T13:14:24Z</time>
      </trkpt>
      <trkpt lat="44.72592" lon="3.27923">
        <ele>1017.69</ele>
        <time>2014-07-02T13:14:25Z</time>
      </trkpt>
      <trkpt lat="44.72591" lon="3.27924">
        <ele>1017.69</ele>
        <time>2014-07-02T13:14:26Z</time>
      </trkpt>
      <trkpt lat="44.72591" lon="3.27925">
        <ele>1017.69</ele>
        <time>2014-07-02T13:14:27Z</time>
      </trkpt>
      <trkpt lat="44.7259" lon="3.27926">
        <ele>1017.69</ele>
        <time>2014-07-02T13:14:28Z</time>
      </trkpt>
      <trkpt lat="44.7259" lon="3.27928">
        <ele>1017.69</ele>
        <time>2014-07-02T13:14:29Z</time>
      </trkpt>
      <trkpt lat="44.7259" lon="3.2793">
        <ele>1017.69</ele>
        <time>2014-07-02T13:14:30Z</time>
      </trkpt>
      <trkpt lat="44.72589" lon="3.27932">
        <ele>1017.69</ele>
        <time>2014-07-02T13:14:31Z</time>
      </trkpt>
      <trkpt lat="44.72587" lon="3.27934">
        <ele>1017.69</ele>
        <time>2014-07-02T13:14:33Z</time>
      </trkpt>
      <trkpt lat="44.72586" lon="3.27935">
        <ele>1017.69</ele>
        <time>2014-07-02T13:14:34Z</time>
      </trkpt>
      <trkpt lat="44.72585" lon="3.27935">
        <ele>1017.69</ele>
        <time>2014-07-02T13:14:35Z</time>
      </trkpt>
      <trkpt lat="44.72583" lon="3.27936">
        <ele>1016.73</ele>
        <time>2014-07-02T13:14:37Z</time>
      </trkpt>
      <trkpt lat="44.7256" lon="3.27945">
        <ele>1016.25</ele>
        <time>2014-07-02T13:14:57Z</time>
      </trkpt>
      <trkpt lat="44.72541" lon="3.27953">
        <ele>1014.81</ele>
        <time>2014-07-02T13:15:15Z</time>
      </trkpt>
      <trkpt lat="44.7254" lon="3.27953">
        <ele>1014.81</ele>
        <time>2014-07-02T13:15:16Z</time>
      </trkpt>
      <trkpt lat="44.72539" lon="3.27954">
        <ele>1014.81</ele>
        <time>2014-07-02T13:15:17Z</time>
      </trkpt>
      <trkpt lat="44.72538" lon="3.27954">
        <ele>1014.81</ele>
        <time>2014-07-02T13:15:18Z</time>
      </trkpt>
      <trkpt lat="44.72537" lon="3.27954">
        <ele>1014.81</ele>
        <time>2014-07-02T13:15:19Z</time>
      </trkpt>
      <trkpt lat="44.72535" lon="3.27955">
        <ele>1014.81</ele>
        <time>2014-07-02T13:15:20Z</time>
      </trkpt>
      <trkpt lat="44.72534" lon="3.27955">
        <ele>1014.81</ele>
        <time>2014-07-02T13:15:21Z</time>
      </trkpt>
      <trkpt lat="44.72533" lon="3.27956">
        <ele>1014.81</ele>
        <time>2014-07-02T13:15:22Z</time>
      </trkpt>
      <trkpt lat="44.72532" lon="3.27956">
        <ele>1014.81</ele>
        <time>2014-07-02T13:15:23Z</time>
      </trkpt>
      <trkpt lat="44.72514" lon="3.27962">
        <ele>1014.81</ele>
        <time>2014-07-02T13:15:41Z</time>
      </trkpt>
      <trkpt lat="44.72496" lon="3.27965">
        <ele>1014.33</ele>
        <time>2014-07-02T13:15:57Z</time>
      </trkpt>
      <trkpt lat="44.72484" lon="3.27964">
        <ele>1014.33</ele>
        <time>2014-07-02T13:16:07Z</time>
      </trkpt>
      <trkpt lat="44.72464" lon="3.27962">
        <ele>1012.89</ele>
        <time>2014-07-02T13:16:24Z</time>
      </trkpt>
      <trkpt lat="44.72453" lon="3.2796">
        <ele>1014.33</ele>
        <time>2014-07-02T13:16:33Z</time>
      </trkpt>
      <trkpt lat="44.72433" lon="3.27956">
        <ele>1013.85</ele>
        <time>2014-07-02T13:16:50Z</time>
      </trkpt>
      <trkpt lat="44.72419" lon="3.27958">
        <ele>1013.37</ele>
        <time>2014-07-02T13:17:02Z</time>
      </trkpt>
      <trkpt lat="44.72403" lon="3.27965">
        <ele>1013.37</ele>
        <time>2014-07-02T13:17:17Z</time>
      </trkpt>
      <trkpt lat="44.72401" lon="3.27966">
        <ele>1013.37</ele>
        <time>2014-07-02T13:17:18Z</time>
      </trkpt>
      <trkpt lat="44.724" lon="3.27968">
        <ele>1013.37</ele>
        <time>2014-07-02T13:17:20Z</time>
      </trkpt>
      <trkpt lat="44.72397" lon="3.2797">
        <ele>1013.37</ele>
        <time>2014-07-02T13:17:23Z</time>
      </trkpt>
      <trkpt lat="44.72395" lon="3.2797">
        <ele>1013.37</ele>
        <time>2014-07-02T13:17:24Z</time>
      </trkpt>
      <trkpt lat="44.72394" lon="3.27971">
        <ele>1013.37</ele>
        <time>2014-07-02T13:17:25Z</time>
      </trkpt>
      <trkpt lat="44.72391" lon="3.27972">
        <ele>1013.37</ele>
        <time>2014-07-02T13:17:28Z</time>
      </trkpt>
      <trkpt lat="44.7238" lon="3.2798">
        <ele>1013.37</ele>
        <time>2014-07-02T13:17:45Z</time>
      </trkpt>
      <trkpt lat="44.72377" lon="3.27983">
        <ele>1013.37</ele>
        <time>2014-07-02T13:17:46Z</time>
      </trkpt>
      <trkpt lat="44.7237" lon="3.27988">
        <ele>1014.81</ele>
        <time>2014-07-02T13:17:49Z</time>
      </trkpt>
      <trkpt lat="44.7235" lon="3.2801">
        <ele>1015.29</ele>
        <time>2014-07-02T13:18:08Z</time>
      </trkpt>
      <trkpt lat="44.72331" lon="3.28018">
        <ele>1015.77</ele>
        <time>2014-07-02T13:18:24Z</time>
      </trkpt>
      <trkpt lat="44.72329" lon="3.28019">
        <ele>1015.77</ele>
        <time>2014-07-02T13:18:25Z</time>
      </trkpt>
      <trkpt lat="44.72328" lon="3.2802">
        <ele>1016.25</ele>
        <time>2014-07-02T13:18:26Z</time>
      </trkpt>
      <trkpt lat="44.72327" lon="3.2802">
        <ele>1016.25</ele>
        <time>2014-07-02T13:18:27Z</time>
      </trkpt>
      <trkpt lat="44.72319" lon="3.28021">
        <ele>1016.73</ele>
        <time>2014-07-02T13:18:33Z</time>
      </trkpt>
      <trkpt lat="44.72318" lon="3.28022">
        <ele>1016.73</ele>
        <time>2014-07-02T13:18:34Z</time>
      </trkpt>
      <trkpt lat="44.72317" lon="3.28021">
        <ele>1016.73</ele>
        <time>2014-07-02T13:18:35Z</time>
      </trkpt>
      <trkpt lat="44.72313" lon="3.28022">
        <ele>1016.73</ele>
        <time>2014-07-02T13:18:39Z</time>
      </trkpt>
      <trkpt lat="44.72312" lon="3.28022">
        <ele>1016.73</ele>
        <time>2014-07-02T13:18:40Z</time>
      </trkpt>
      <trkpt lat="44.7231" lon="3.28024">
        <ele>1017.21</ele>
        <time>2014-07-02T13:18:42Z</time>
      </trkpt>
      <trkpt lat="44.72309" lon="3.28032">
        <ele>1017.69</ele>
        <time>2014-07-02T13:18:47Z</time>
      </trkpt>
      <trkpt lat="44.72309" lon="3.28033">
        <ele>1017.69</ele>
        <time>2014-07-02T13:18:48Z</time>
      </trkpt>
      <trkpt lat="44.72311" lon="3.28036">
        <ele>1018.17</ele>
        <time>2014-07-02T13:18:51Z</time>
      </trkpt>
      <trkpt lat="44.72314" lon="3.28041">
        <ele>1019.13</ele>
        <time>2014-07-02T13:18:55Z</time>
      </trkpt>
      <trkpt lat="44.72314" lon="3.28042">
        <ele>1019.13</ele>
        <time>2014-07-02T13:18:56Z</time>
      </trkpt>
      <trkpt lat="44.72317" lon="3.28047">
        <ele>1019.13</ele>
        <time>2014-07-02T13:19:00Z</time>
      </trkpt>
      <trkpt lat="44.72318" lon="3.28049">
        <ele>1019.62</ele>
        <time>2014-07-02T13:19:02Z</time>
      </trkpt>
      <trkpt lat="44.72319" lon="3.2805">
        <ele>1019.62</ele>
        <time>2014-07-02T13:19:03Z</time>
      </trkpt>
      <trkpt lat="44.72328" lon="3.28059">
        <ele>1020.1</ele>
        <time>2014-07-02T13:19:14Z</time>
      </trkpt>
      <trkpt lat="44.72328" lon="3.2806">
        <ele>1020.58</ele>
        <time>2014-07-02T13:19:15Z</time>
      </trkpt>
      <trkpt lat="44.72329" lon="3.28061">
        <ele>1020.58</ele>
        <time>2014-07-02T13:19:16Z</time>
      </trkpt>
      <trkpt lat="44.7233" lon="3.28063">
        <ele>1020.58</ele>
        <time>2014-07-02T13:19:17Z</time>
      </trkpt>
      <trkpt lat="44.72331" lon="3.28064">
        <ele>1020.58</ele>
        <time>2014-07-02T13:19:18Z</time>
      </trkpt>
      <trkpt lat="44.72332" lon="3.28065">
        <ele>1020.58</ele>
        <time>2014-07-02T13:19:19Z</time>
      </trkpt>
      <trkpt lat="44.72333" lon="3.28066">
        <ele>1020.58</ele>
        <time>2014-07-02T13:19:20Z</time>
      </trkpt>
      <trkpt lat="44.72333" lon="3.28068">
        <ele>1021.54</ele>
        <time>2014-07-02T13:19:21Z</time>
      </trkpt>
      <trkpt lat="44.72334" lon="3.28072">
        <ele>1021.54</ele>
        <time>2014-07-02T13:19:24Z</time>
      </trkpt>
      <trkpt lat="44.72335" lon="3.28074">
        <ele>1021.54</ele>
        <time>2014-07-02T13:19:25Z</time>
      </trkpt>
      <trkpt lat="44.72335" lon="3.28076">
        <ele>1021.54</ele>
        <time>2014-07-02T13:19:26Z</time>
      </trkpt>
      <trkpt lat="44.72335" lon="3.28078">
        <ele>1021.54</ele>
        <time>2014-07-02T13:19:27Z</time>
      </trkpt>
      <trkpt lat="44.72335" lon="3.28079">
        <ele>1021.54</ele>
        <time>2014-07-02T13:19:28Z</time>
      </trkpt>
      <trkpt lat="44.72335" lon="3.28086">
        <ele>1021.54</ele>
        <time>2014-07-02T13:19:32Z</time>
      </trkpt>
      <trkpt lat="44.72335" lon="3.28087">
        <ele>1022.02</ele>
        <time>2014-07-02T13:19:33Z</time>
      </trkpt>
      <trkpt lat="44.72334" lon="3.2809">
        <ele>1022.5</ele>
        <time>2014-07-02T13:19:35Z</time>
      </trkpt>
      <trkpt lat="44.72334" lon="3.28091">
        <ele>1022.5</ele>
        <time>2014-07-02T13:19:36Z</time>
      </trkpt>
      <trkpt lat="44.72333" lon="3.28093">
        <ele>1022.5</ele>
        <time>2014-07-02T13:19:37Z</time>
      </trkpt>
      <trkpt lat="44.72333" lon="3.28094">
        <ele>1022.98</ele>
        <time>2014-07-02T13:19:38Z</time>
      </trkpt>
      <trkpt lat="44.72332" lon="3.28095">
        <ele>1022.5</ele>
        <time>2014-07-02T13:19:39Z</time>
      </trkpt>
      <trkpt lat="44.72331" lon="3.28097">
        <ele>1022.5</ele>
        <time>2014-07-02T13:19:40Z</time>
      </trkpt>
      <trkpt lat="44.72331" lon="3.28098">
        <ele>1023.46</ele>
        <time>2014-07-02T13:19:41Z</time>
      </trkpt>
      <trkpt lat="44.72331" lon="3.281">
        <ele>1023.46</ele>
        <time>2014-07-02T13:19:42Z</time>
      </trkpt>
      <trkpt lat="44.7233" lon="3.28101">
        <ele>1023.46</ele>
        <time>2014-07-02T13:19:43Z</time>
      </trkpt>
      <trkpt lat="44.72325" lon="3.28105">
        <ele>1023.94</ele>
        <time>2014-07-02T13:19:49Z</time>
      </trkpt>
      <trkpt lat="44.72324" lon="3.28107">
        <ele>1023.94</ele>
        <time>2014-07-02T13:19:50Z</time>
      </trkpt>
      <trkpt lat="44.72323" lon="3.28111">
        <ele>1023.94</ele>
        <time>2014-07-02T13:19:53Z</time>
      </trkpt>
      <trkpt lat="44.72323" lon="3.28112">
        <ele>1023.94</ele>
        <time>2014-07-02T13:19:54Z</time>
      </trkpt>
      <trkpt lat="44.72323" lon="3.28114">
        <ele>1023.94</ele>
        <time>2014-07-02T13:19:55Z</time>
      </trkpt>
      <trkpt lat="44.72323" lon="3.28116">
        <ele>1023.94</ele>
        <time>2014-07-02T13:19:56Z</time>
      </trkpt>
      <trkpt lat="44.72322" lon="3.28117">
        <ele>1023.94</ele>
        <time>2014-07-02T13:19:57Z</time>
      </trkpt>
      <trkpt lat="44.72322" lon="3.28119">
        <ele>1023.94</ele>
        <time>2014-07-02T13:19:58Z</time>
      </trkpt>
      <trkpt lat="44.72321" lon="3.2812">
        <ele>1023.94</ele>
        <time>2014-07-02T13:19:59Z</time>
      </trkpt>
      <trkpt lat="44.72321" lon="3.28122">
        <ele>1023.94</ele>
        <time>2014-07-02T13:20:00Z</time>
      </trkpt>
      <trkpt lat="44.7232" lon="3.28128">
        <ele>1023.94</ele>
        <time>2014-07-02T13:20:04Z</time>
      </trkpt>
      <trkpt lat="44.72319" lon="3.2813">
        <ele>1023.94</ele>
        <time>2014-07-02T13:20:05Z</time>
      </trkpt>
      <trkpt lat="44.72319" lon="3.28131">
        <ele>1023.94</ele>
        <time>2014-07-02T13:20:06Z</time>
      </trkpt>
      <trkpt lat="44.72318" lon="3.28132">
        <ele>1023.94</ele>
        <time>2014-07-02T13:20:07Z</time>
      </trkpt>
      <trkpt lat="44.72318" lon="3.28134">
        <ele>1023.94</ele>
        <time>2014-07-02T13:20:08Z</time>
      </trkpt>
      <trkpt lat="44.72318" lon="3.28136">
        <ele>1024.9</ele>
        <time>2014-07-02T13:20:09Z</time>
      </trkpt>
      <trkpt lat="44.72316" lon="3.28148">
        <ele>1026.34</ele>
        <time>2014-07-02T13:20:19Z</time>
      </trkpt>
      <trkpt lat="44.72314" lon="3.28166">
        <ele>1028.27</ele>
        <time>2014-07-02T13:20:33Z</time>
      </trkpt>
      <trkpt lat="44.7231" lon="3.28174">
        <ele>1029.23</ele>
        <time>2014-07-02T13:20:41Z</time>
      </trkpt>
      <trkpt lat="44.72305" lon="3.28188">
        <ele>1031.63</ele>
        <time>2014-07-02T13:20:53Z</time>
      </trkpt>
      <trkpt lat="44.723" lon="3.28202">
        <ele>1034.04</ele>
        <time>2014-07-02T13:21:06Z</time>
      </trkpt>
      <trkpt lat="44.72299" lon="3.28219">
        <ele>1035.96</ele>
        <time>2014-07-02T13:21:20Z</time>
      </trkpt>
      <trkpt lat="44.72299" lon="3.2822">
        <ele>1035.96</ele>
        <time>2014-07-02T13:21:21Z</time>
      </trkpt>
      <trkpt lat="44.723" lon="3.28223">
        <ele>1036.92</ele>
        <time>2014-07-02T13:21:23Z</time>
      </trkpt>
      <trkpt lat="44.723" lon="3.28227">
        <ele>1036.92</ele>
        <time>2014-07-02T13:21:26Z</time>
      </trkpt>
      <trkpt lat="44.72299" lon="3.28237">
        <ele>1037.88</ele>
        <time>2014-07-02T13:21:33Z</time>
      </trkpt>
      <trkpt lat="44.72299" lon="3.28238">
        <ele>1037.88</ele>
        <time>2014-07-02T13:21:34Z</time>
      </trkpt>
      <trkpt lat="44.72298" lon="3.28254">
        <ele>1039.32</ele>
        <time>2014-07-02T13:21:46Z</time>
      </trkpt>
      <trkpt lat="44.72299" lon="3.2827">
        <ele>1040.76</ele>
        <time>2014-07-02T13:21:58Z</time>
      </trkpt>
      <trkpt lat="44.72298" lon="3.28287">
        <ele>1042.21</ele>
        <time>2014-07-02T13:22:11Z</time>
      </trkpt>
      <trkpt lat="44.72299" lon="3.28304">
        <ele>1043.17</ele>
        <time>2014-07-02T13:22:23Z</time>
      </trkpt>
      <trkpt lat="44.723" lon="3.28306">
        <ele>1043.65</ele>
        <time>2014-07-02T13:22:24Z</time>
      </trkpt>
      <trkpt lat="44.72304" lon="3.28329">
        <ele>1043.65</ele>
        <time>2014-07-02T13:22:41Z</time>
      </trkpt>
      <trkpt lat="44.72305" lon="3.28334">
        <ele>1043.65</ele>
        <time>2014-07-02T13:22:44Z</time>
      </trkpt>
      <trkpt lat="44.7231" lon="3.28362">
        <ele>1042.21</ele>
        <time>2014-07-02T13:23:03Z</time>
      </trkpt>
      <trkpt lat="44.72307" lon="3.2838">
        <ele>1041.73</ele>
        <time>2014-07-02T13:23:17Z</time>
      </trkpt>
      <trkpt lat="44.723" lon="3.28396">
        <ele>1041.73</ele>
        <time>2014-07-02T13:23:31Z</time>
      </trkpt>
      <trkpt lat="44.72299" lon="3.28396">
        <ele>1041.73</ele>
        <time>2014-07-02T13:23:32Z</time>
      </trkpt>
      <trkpt lat="44.72298" lon="3.28397">
        <ele>1041.73</ele>
        <time>2014-07-02T13:23:33Z</time>
      </trkpt>
      <trkpt lat="44.72288" lon="3.28407">
        <ele>1041.73</ele>
        <time>2014-07-02T13:23:45Z</time>
      </trkpt>
      <trkpt lat="44.72287" lon="3.28408">
        <ele>1041.73</ele>
        <time>2014-07-02T13:23:46Z</time>
      </trkpt>
      <trkpt lat="44.72286" lon="3.28409">
        <ele>1041.73</ele>
        <time>2014-07-02T13:23:47Z</time>
      </trkpt>
      <trkpt lat="44.72282" lon="3.28414">
        <ele>1041.73</ele>
        <time>2014-07-02T13:23:52Z</time>
      </trkpt>
      <trkpt lat="44.72277" lon="3.28415">
        <ele>1042.69</ele>
        <time>2014-07-02T13:23:57Z</time>
      </trkpt>
      <trkpt lat="44.72269" lon="3.28423">
        <ele>1043.65</ele>
        <time>2014-07-02T13:24:07Z</time>
      </trkpt>
      <trkpt lat="44.72269" lon="3.28429">
        <ele>1044.13</ele>
        <time>2014-07-02T13:24:12Z</time>
      </trkpt>
      <trkpt lat="44.7227" lon="3.28433">
        <ele>1044.13</ele>
        <time>2014-07-02T13:24:15Z</time>
      </trkpt>
      <trkpt lat="44.72271" lon="3.28442">
        <ele>1044.61</ele>
        <time>2014-07-02T13:24:21Z</time>
      </trkpt>
      <trkpt lat="44.72271" lon="3.28448">
        <ele>1044.61</ele>
        <time>2014-07-02T13:24:25Z</time>
      </trkpt>
      <trkpt lat="44.7227" lon="3.2845">
        <ele>1044.61</ele>
        <time>2014-07-02T13:24:27Z</time>
      </trkpt>
      <trkpt lat="44.72269" lon="3.28469">
        <ele>1045.09</ele>
        <time>2014-07-02T13:24:43Z</time>
      </trkpt>
      <trkpt lat="44.72267" lon="3.28495">
        <ele>1045.09</ele>
        <time>2014-07-02T13:25:00Z</time>
      </trkpt>
      <trkpt lat="44.72263" lon="3.28503">
        <ele>1045.09</ele>
        <time>2014-07-02T13:25:08Z</time>
      </trkpt>
      <trkpt lat="44.72258" lon="3.28509">
        <ele>1045.09</ele>
        <time>2014-07-02T13:25:13Z</time>
      </trkpt>
      <trkpt lat="44.72257" lon="3.28514">
        <ele>1045.09</ele>
        <time>2014-07-02T13:25:16Z</time>
      </trkpt>
      <trkpt lat="44.72253" lon="3.28523">
        <ele>1045.09</ele>
        <time>2014-07-02T13:25:23Z</time>
      </trkpt>
      <trkpt lat="44.72244" lon="3.28541">
        <ele>1045.57</ele>
        <time>2014-07-02T13:25:37Z</time>
      </trkpt>
      <trkpt lat="44.72232" lon="3.28564">
        <ele>1046.53</ele>
        <time>2014-07-02T13:25:54Z</time>
      </trkpt>
      <trkpt lat="44.72222" lon="3.28585">
        <ele>1047.49</ele>
        <time>2014-07-02T13:26:09Z</time>
      </trkpt>
      <trkpt lat="44.72221" lon="3.28591">
        <ele>1047.49</ele>
        <time>2014-07-02T13:26:13Z</time>
      </trkpt>
      <trkpt lat="44.72218" lon="3.28601">
        <ele>1047.97</ele>
        <time>2014-07-02T13:26:20Z</time>
      </trkpt>
      <trkpt lat="44.72215" lon="3.28607">
        <ele>1048.45</ele>
        <time>2014-07-02T13:26:24Z</time>
      </trkpt>
      <trkpt lat="44.72213" lon="3.2862">
        <ele>1048.94</ele>
        <time>2014-07-02T13:26:32Z</time>
      </trkpt>
      <trkpt lat="44.72213" lon="3.28623">
        <ele>1048.94</ele>
        <time>2014-07-02T13:26:34Z</time>
      </trkpt>
      <trkpt lat="44.72214" lon="3.28631">
        <ele>1049.9</ele>
        <time>2014-07-02T13:26:39Z</time>
      </trkpt>
      <trkpt lat="44.72219" lon="3.28647">
        <ele>1049.9</ele>
        <time>2014-07-02T13:26:49Z</time>
      </trkpt>
      <trkpt lat="44.72218" lon="3.28654">
        <ele>1049.9</ele>
        <time>2014-07-02T13:26:54Z</time>
      </trkpt>
      <trkpt lat="44.72218" lon="3.28664">
        <ele>1050.38</ele>
        <time>2014-07-02T13:27:01Z</time>
      </trkpt>
      <trkpt lat="44.7222" lon="3.28666">
        <ele>1050.86</ele>
        <time>2014-07-02T13:27:03Z</time>
      </trkpt>
      <trkpt lat="44.72222" lon="3.28672">
        <ele>1050.86</ele>
        <time>2014-07-02T13:27:08Z</time>
      </trkpt>
      <trkpt lat="44.72224" lon="3.2869">
        <ele>1051.82</ele>
        <time>2014-07-02T13:27:23Z</time>
      </trkpt>
      <trkpt lat="44.72227" lon="3.28706">
        <ele>1052.78</ele>
        <time>2014-07-02T13:27:36Z</time>
      </trkpt>
      <trkpt lat="44.72231" lon="3.28714">
        <ele>1053.26</ele>
        <time>2014-07-02T13:27:48Z</time>
      </trkpt>
      <trkpt lat="44.72232" lon="3.28722">
        <ele>1053.26</ele>
        <time>2014-07-02T13:27:56Z</time>
      </trkpt>
      <trkpt lat="44.72232" lon="3.28736">
        <ele>1053.26</ele>
        <time>2014-07-02T13:28:11Z</time>
      </trkpt>
      <trkpt lat="44.72236" lon="3.28728">
        <ele>1053.26</ele>
        <time>2014-07-02T13:28:26Z</time>
      </trkpt>
      <trkpt lat="44.72239" lon="3.28732">
        <ele>1053.26</ele>
        <time>2014-07-02T13:28:40Z</time>
      </trkpt>
      <trkpt lat="44.72245" lon="3.2874">
        <ele>1052.78</ele>
        <time>2014-07-02T13:29:02Z</time>
      </trkpt>
      <trkpt lat="44.72243" lon="3.28738">
        <ele>1052.78</ele>
        <time>2014-07-02T13:30:04Z</time>
      </trkpt>
      <trkpt lat="44.72233" lon="3.28735">
        <ele>1053.26</ele>
        <time>2014-07-02T13:30:17Z</time>
      </trkpt>
      <trkpt lat="44.7224" lon="3.28733">
        <ele>1053.26</ele>
        <time>2014-07-02T13:30:30Z</time>
      </trkpt>
      <trkpt lat="44.72246" lon="3.28745">
        <ele>1052.78</ele>
        <time>2014-07-02T13:30:44Z</time>
      </trkpt>
      <trkpt lat="44.72246" lon="3.28748">
        <ele>1053.26</ele>
        <time>2014-07-02T13:30:53Z</time>
      </trkpt>
      <trkpt lat="44.72245" lon="3.28749">
        <ele>1053.74</ele>
        <time>2014-07-02T13:31:06Z</time>
      </trkpt>
      <trkpt lat="44.72246" lon="3.28751">
        <ele>1053.74</ele>
        <time>2014-07-02T13:31:29Z</time>
      </trkpt>
      <trkpt lat="44.72245" lon="3.2875">
        <ele>1054.22</ele>
        <time>2014-07-02T13:31:57Z</time>
      </trkpt>
      <trkpt lat="44.72245" lon="3.28749">
        <ele>1054.22</ele>
        <time>2014-07-02T13:32:26Z</time>
      </trkpt>
      <trkpt lat="44.72245" lon="3.28749">
        <ele>1054.22</ele>
        <time>2014-07-02T13:32:57Z</time>
      </trkpt>
      <trkpt lat="44.72246" lon="3.28749">
        <ele>1054.22</ele>
        <time>2014-07-02T13:33:25Z</time>
      </trkpt>
      <trkpt lat="44.72245" lon="3.28749">
        <ele>1052.78</ele>
        <time>2014-07-02T13:33:49Z</time>
      </trkpt>
    </trkseg>
  </trk>
</gpx>